Date StartTime U_cm/s V_cm/s W_cm/s Ustd_cm/s Vstd_cm/s Wstd_cm/s Uvar_(cm/s)^2 Vvar_(cm/s)^2 Wvar_(cm/s)^2 KE_(m/s)^2 TurbulentKE_(m/s)^2 HorizWindSpeed_cm/s FrictionSpeec_cm/s DragCoef SpeedOfSound_m/s SonicTemperature_C Pressure_mb 
02/03/2014  00:00:00       41.420       39.577        7.789       15.310       18.906       16.497      234.400      357.419      272.160        0.210        0.043       57.288        9.912        0.030      331.410       -0.592      856.576
02/03/2014  00:01:00       55.911       46.657       10.117       10.924       11.791       13.535      119.326      139.020      183.206        0.292        0.022       72.822        3.870        0.003      331.368       -0.661      856.576
02/03/2014  00:02:00       42.196       48.319       27.061       19.272       13.309       13.378      371.401      177.139      178.975        0.279        0.036       64.150        6.575        0.011      331.435       -0.553      856.570
02/03/2014  00:03:00       -0.059       27.937       25.250       11.414       23.051       15.211      130.287      531.344      231.373        0.116        0.045       27.937        7.025        0.063      331.452       -0.524      856.565
02/03/2014  00:04:00       14.010        7.185       15.498       13.444       13.427       10.666      180.746      180.275      113.770        0.048        0.024       15.745        3.241        0.042      331.455       -0.519      856.568
02/03/2014  00:05:00       16.059       34.471        1.422        8.165       18.434       11.454       66.664      339.829      131.202        0.099        0.027       38.028       12.103        0.101      331.391       -0.626      856.575
02/03/2014  00:06:00        5.735       42.904       -9.816        8.230        7.721        8.009       67.738       59.607       64.138        0.108        0.010       43.286        5.529        0.016      331.364       -0.668      856.585
02/03/2014  00:07:00       20.155       30.466       -3.471        9.815       20.051       12.196       96.329      402.042      148.736        0.100        0.032       36.530       12.308        0.114      331.391       -0.621      856.582
02/03/2014  00:08:00       25.979       25.775        0.341       12.195       14.978        9.326      148.718      224.337       86.976        0.090        0.023       36.596        5.919        0.026      331.366       -0.666      856.579
02/03/2014  00:09:00       33.619       16.433       -7.785        7.769        8.478        8.899       60.359       71.873       79.189        0.084        0.011       37.420        3.432        0.008      331.356       -0.685      856.566
02/03/2014  00:10:00       33.280       31.866        4.682       13.331       11.431        9.114      177.724      130.661       83.071        0.127        0.020       46.076        3.682        0.006      331.388       -0.627      856.539
02/03/2014  00:11:00       32.383       36.693        5.989       13.061        7.232       11.435      170.580       52.303      130.752        0.139        0.018       48.939        7.193        0.022      331.380       -0.638      856.521
02/03/2014  00:12:00       32.106       15.746        1.458        7.900       10.801        9.856       62.413      116.664       97.143        0.078        0.014       35.759        4.967        0.019      331.399       -0.610      856.512
02/03/2014  00:13:00       22.809       29.692        2.658       14.782        9.522        9.170      218.499       90.669       84.098        0.090        0.020       37.442        6.421        0.029      331.374       -0.653      856.515
02/03/2014  00:14:00       36.248       29.596       -5.156       15.414       11.236        9.688      237.582      126.248       93.855        0.134        0.023       46.796        2.923        0.004      331.400       -0.609      856.520
02/03/2014  00:15:00       61.389       48.707       14.522       23.224       14.411       17.547      539.344      207.667      307.882        0.370        0.053       78.364        6.298        0.006      331.386       -0.632      856.528
02/03/2014  00:16:00       70.546       47.013        8.073       27.866       15.619       16.514      776.523      243.968      272.702        0.427        0.065       84.776       14.771        0.030      331.327       -0.728      856.517
02/03/2014  00:17:00      100.369       61.515       13.987       26.294       17.674       24.544      691.391      312.380      602.424        0.783        0.080      117.720        9.788        0.007      331.270       -0.822      856.504
02/03/2014  00:18:00       90.368       59.040       -7.758       35.729       22.090       17.251     1276.565      487.966      297.592        0.689        0.103      107.945       12.982        0.014      331.216       -0.912      856.483
02/03/2014  00:19:00       80.297       39.491        9.139       25.589       15.926       20.944      654.778      253.622      438.635        0.472        0.067       89.483       16.619        0.034      331.236       -0.879      856.465
02/03/2014  00:20:00       95.301       52.066       -4.373       25.984       24.629       17.697      675.150      606.565      313.166        0.670        0.080      108.597        9.411        0.008      331.240       -0.872      856.464
02/03/2014  00:21:00       72.037       44.039       -0.743       13.979       16.310       15.308      195.414      266.007      234.327        0.391        0.035       84.432        9.116        0.012      331.271       -0.819      856.467
02/03/2014  00:22:00       62.280       42.992       18.477       25.355       18.537       20.168      642.859      343.602      406.762        0.373        0.070       75.677       14.181        0.035      331.332       -0.722      856.472
02/03/2014  00:23:00       91.362       48.121       20.196       18.743       14.439       20.490      351.304      208.482      419.821        0.602        0.049      103.260       13.820        0.018      331.248       -0.860      856.468
02/03/2014  00:24:00       65.335       47.832       31.392       22.843       17.209       20.145      521.790      296.135      405.829        0.438        0.061       80.973       13.656        0.028      331.262       -0.834      856.476
02/03/2014  00:25:00       97.491       41.946       15.351       19.278       13.668       22.340      371.652      186.827      499.098        0.628        0.053      106.132       16.632        0.025      331.299       -0.775      856.480
02/03/2014  00:26:00       97.711       40.861        4.280       38.168       30.623       19.537     1456.764      937.745      381.696        0.701        0.139      105.910       15.377        0.021      331.279       -0.806      856.487
02/03/2014  00:27:00       57.319       52.503       41.704       28.358       23.853       30.004      804.156      568.962      900.260        0.503        0.114       77.730       17.488        0.051      331.286       -0.795      856.495
02/03/2014  00:28:00       40.867       68.745       65.667       27.783       21.012       18.552      771.919      441.484      344.164        0.613        0.078       79.975       12.267        0.024      331.273       -0.816      856.500
02/03/2014  00:29:00       55.122       54.470       47.256       36.264       31.667       30.206     1315.061     1002.788      912.414        0.573        0.162       77.495       27.294        0.124      331.247       -0.860      856.503
02/03/2014  00:30:00       41.281       52.681       61.416       41.424       28.359       18.377     1715.953      804.246      337.728        0.555        0.143       66.928       14.922        0.050      331.253       -0.849      856.512
02/03/2014  00:31:00       42.321       34.672       47.067       34.452       23.823       20.556     1186.906      567.515      422.535        0.369        0.109       54.710       21.004        0.147      331.207       -0.926      856.523
02/03/2014  00:32:00       70.640       60.302       24.115       27.644       19.860       24.716      764.166      394.430      610.880        0.549        0.088       92.878        9.582        0.011      331.261       -0.838      856.529
02/03/2014  00:33:00       43.907       64.738       46.523       24.581       21.179       15.946      604.212      448.535      254.271        0.479        0.065       78.222        9.996        0.016      331.198       -0.940      856.531
02/03/2014  00:34:00       46.701       47.960       33.385       20.837       16.377       15.925      434.171      268.213      253.601        0.328        0.048       66.941       11.137        0.028      331.184       -0.964      856.535
02/03/2014  00:35:00       74.885       53.285       15.436       23.009       18.324       20.682      529.416      335.767      427.729        0.499        0.065       91.907       14.799        0.026      331.188       -0.958      856.541
02/03/2014  00:36:00       47.989       59.617       46.959       26.600       23.653       26.178      707.573      559.451      685.300        0.501        0.098       76.531        8.487        0.012      331.165       -0.997      856.546
02/03/2014  00:37:00       28.411       60.399       53.153       22.748       22.482       17.182      517.483      505.459      295.221        0.430        0.066       66.747        5.928        0.008      331.139       -1.040      856.541
02/03/2014  00:38:00       31.920       55.114       46.282       18.738       18.160       16.513      351.130      329.775      272.667        0.358        0.048       63.690        9.282        0.021      331.120       -1.071      856.546
02/03/2014  00:39:00       61.837       52.625       29.135       22.346       11.522       14.234      499.330      132.760      202.620        0.414        0.042       81.199        7.397        0.008      331.136       -1.044      856.560
02/03/2014  00:40:00       55.913       37.468       22.694       22.629       14.241       16.219      512.066      202.799      263.065        0.301        0.049       67.306       12.358        0.034      331.094       -1.113      856.568
02/03/2014  00:41:00       67.800       43.485       10.348       12.431        9.576       11.105      154.525       91.706      123.323        0.348        0.018       80.547        7.044        0.008      331.106       -1.093      856.565
02/03/2014  00:42:00       62.498       42.252       19.403       14.333       10.592       11.775      205.433      112.189      138.649        0.326        0.023       75.440        5.903        0.006      331.083       -1.131      856.552
02/03/2014  00:43:00       61.598       49.283       17.480       18.394       10.375       13.329      338.337      107.649      177.649        0.358        0.031       78.886       10.187        0.017      331.084       -1.129      856.546
02/03/2014  00:44:00       65.053       47.486       10.949       14.611       10.983       10.787      213.486      120.617      116.357        0.353        0.023       80.540        9.431        0.014      331.095       -1.113      856.536
02/03/2014  00:45:00       62.604       45.577        4.652       12.611       12.303       10.168      159.048      151.376      103.388        0.322        0.021       77.437        7.839        0.010      331.073       -1.148      856.529
02/03/2014  00:46:00       66.249       39.571        0.281       12.930       13.903       11.889      167.178      193.301      141.347        0.323        0.025       77.167        7.533        0.010      331.096       -1.110      856.520
02/03/2014  00:47:00       54.646       43.412        4.816       15.936       17.429       11.528      253.945      303.772      132.890        0.279        0.035       69.791        8.010        0.013      331.084       -1.129      856.501
02/03/2014  00:48:00       69.178       48.869        4.272       11.930        9.886        8.088      142.326       97.726       65.420        0.375        0.015       84.698        1.409        0.000      331.088       -1.123      856.477
02/03/2014  00:49:00       68.877       46.497        1.647       12.282       12.044        8.493      150.845      145.070       72.126        0.364        0.018       83.103        3.623        0.002      331.082       -1.134      856.463
02/03/2014  00:50:00       52.726       39.116        1.804       12.492       16.097       11.737      156.062      259.112      137.748        0.243        0.028       65.651        8.823        0.018      331.049       -1.187      856.464
02/03/2014  00:51:00       53.154       39.964        4.037       22.264       12.894        9.884      495.684      166.259       97.687        0.260        0.038       66.501        7.831        0.014      331.048       -1.189      856.469
02/03/2014  00:52:00       25.086       28.325        2.653       17.248       13.683       11.380      297.507      187.214      129.497        0.103        0.031       37.837        8.268        0.048      331.030       -1.218      856.487
02/03/2014  00:53:00       24.264       53.692       -7.127       17.850       22.412       13.722      318.606      502.320      188.295        0.227        0.050       58.920       10.616        0.032      331.017       -1.239      856.504
02/03/2014  00:54:00       24.368       36.340        2.177       14.065       22.200       16.370      197.830      492.822      267.978        0.144        0.048       43.754       14.321        0.107      331.025       -1.226      856.514
02/03/2014  00:55:00       14.939       58.752       -6.648       11.454       20.271       10.983      131.187      410.903      120.620        0.219        0.033       60.621        8.767        0.021      330.993       -1.279      856.504
02/03/2014  00:56:00       13.612       76.219      -10.005        7.168        9.472        4.427       51.374       89.713       19.595        0.313        0.008       77.425        3.175        0.002      330.995       -1.277      856.488
02/03/2014  00:57:00       17.387       68.016       -5.447        6.536        9.194        7.694       42.721       84.532       59.192        0.257        0.009       70.203        3.598        0.003      330.961       -1.328      856.461
02/03/2014  00:58:00       17.945       68.828       -7.228        8.215        7.961        5.688       67.481       63.381       32.355        0.264        0.008       71.129        3.911        0.003      330.964       -1.324      856.431
02/03/2014  00:59:00       22.510       47.334       -2.903       14.667       17.336       11.754      215.128      300.541      138.157        0.170        0.033       52.414       10.136        0.037      330.903       -1.426      856.409
02/03/2014  01:00:00       16.957       31.267       -2.288       11.475       17.492        8.234      131.686      305.986       67.799        0.089        0.025       35.569        7.110        0.040      330.917       -1.405      856.413
02/03/2014  01:01:00        6.393        8.247        0.436       11.021       14.541        6.718      121.466      211.430       45.128        0.024        0.019       10.435        5.019        0.231      330.911       -1.413      856.413
02/03/2014  01:02:00        7.724       30.235       -4.274       14.039       19.252        8.817      197.091      370.622       77.742        0.082        0.032       31.206       11.849        0.144      330.897       -1.436      856.415
02/03/2014  01:03:00        2.821       64.060       -9.506       10.533        7.388        5.915      110.944       54.582       34.983        0.220        0.010       64.122        5.517        0.007      330.949       -1.350      856.418
02/03/2014  01:04:00       -7.796       53.279       -1.985        9.703       29.543       14.445       94.145      872.786      208.657        0.204        0.059       53.846       13.365        0.062      330.948       -1.351      856.427
02/03/2014  01:05:00      -15.916        7.577        1.468       12.331       17.725       15.422      152.049      314.176      237.844        0.051        0.035       17.628       12.949        0.540      330.834       -1.540      856.430
02/03/2014  01:06:00       -6.437       33.511       -5.325       15.809       26.627        6.255      249.921      708.988       39.123        0.110        0.050       34.123        7.486        0.048      330.852       -1.510      856.434
02/03/2014  01:07:00        2.612       58.339       -0.391       13.077       19.172       17.805      171.005      367.577      317.010        0.213        0.043       58.397       14.802        0.064      330.934       -1.375      856.424
02/03/2014  01:08:00       -0.282       40.895       -3.400       11.495       22.066       12.159      132.129      486.906      147.845        0.123        0.038       40.896       12.723        0.097      330.915       -1.405      856.408
02/03/2014  01:09:00       -4.859        3.392        2.190       11.262       10.232        9.071      126.839      104.692       82.275        0.018        0.016        5.926        4.045        0.466      330.919       -1.400      856.385
02/03/2014  01:10:00      -35.242      -24.156       -8.863       27.399       15.310        8.937      750.706      234.405       79.875        0.148        0.053       42.726       10.078        0.056      330.725       -1.719      856.369
02/03/2014  01:11:00      -37.633       -8.608       -0.988       18.738       27.756       17.006      351.100      770.371      289.211        0.145        0.071       38.605        5.832        0.023      330.558       -1.992      856.357
02/03/2014  01:12:00      -61.716       -6.853       -5.944       13.760       13.291       10.564      189.347      176.653      111.591        0.218        0.024       62.095        7.072        0.013      330.550       -2.005      856.354
02/03/2014  01:13:00      -43.276       -9.560       -2.834       13.094       11.568       11.627      171.458      133.817      135.179        0.121        0.022       44.319        7.349        0.027      330.507       -2.077      856.348
02/03/2014  01:14:00      -11.347       -9.611        2.913       12.695       10.275        7.657      161.175      105.572       58.627        0.028        0.016       14.871        8.525        0.329      330.648       -1.843      856.334
02/03/2014  01:15:00       19.570       16.153        1.080       15.627       22.742       10.237      244.191      517.179      104.800        0.076        0.043       25.376        9.366        0.136      330.799       -1.596      856.323
02/03/2014  01:16:00       -4.887       19.468        1.580       17.300       11.519       15.467      299.292      132.682      239.242        0.054        0.034       20.072        9.193        0.210      330.773       -1.639      856.314
02/03/2014  01:17:00      -24.185       -6.763        1.954       14.088       20.463       15.492      198.478      418.742      239.990        0.075        0.043       25.113       14.514        0.334      330.776       -1.634      856.308
02/03/2014  01:18:00      -11.811      -15.515       -7.894       27.459       23.743       12.039      753.994      563.749      144.927        0.095        0.073       19.499        8.747        0.201      330.790       -1.613      856.311
02/03/2014  01:19:00      -10.211       -3.659      -12.133       11.802       22.809       13.911      139.298      520.253      193.520        0.056        0.043       10.847        8.596        0.628      330.615       -1.900      856.318
02/03/2014  01:20:00      -10.044        6.512        6.346       18.523        8.036       15.310      343.084       64.579      234.394        0.041        0.032       11.971       13.158        1.208      330.720       -1.725      856.328
02/03/2014  01:21:00       17.776       56.788      -11.085       32.309       30.247       12.675     1043.869      914.860      160.652        0.289        0.106       59.506       14.265        0.057      330.955       -1.340      856.339
02/03/2014  01:22:00        6.849       61.188        7.339       24.949       32.776       22.807      622.434     1074.241      520.150        0.303        0.111       61.570       19.546        0.101      330.915       -1.406      856.350
02/03/2014  01:23:00       11.407       83.896       -5.689       20.707       19.264       10.090      428.760      371.110      101.802        0.405        0.045       84.668        5.934        0.005      330.990       -1.282      856.357
02/03/2014  01:24:00        8.128       62.289       -4.877       19.612       26.778       10.349      384.625      717.049      107.110        0.259        0.060       62.817        8.932        0.020      330.970       -1.315      856.354
02/03/2014  01:25:00      -50.023        6.998       -2.802       29.596       34.568       16.372      875.953     1194.934      268.049        0.245        0.117       50.510       16.379        0.105      330.539       -2.022      856.365
02/03/2014  01:26:00      -76.558       -9.009       -6.747       22.666       23.809       21.317      513.770      566.861      454.429        0.376        0.077       77.086       16.300        0.045      330.311       -2.398      856.376
02/03/2014  01:27:00      -51.806      -10.446       -4.164       19.855       15.209       14.752      394.237      231.319      217.614        0.183        0.042       52.849       10.533        0.040      330.376       -2.290      856.391
02/03/2014  01:28:00      -39.192      -15.423       -5.459       26.276       11.984        9.432      690.439      143.627       88.954        0.136        0.046       42.117       10.231        0.059      330.407       -2.239      856.401
02/03/2014  01:29:00       16.192        2.450        4.491       15.772       14.916       12.557      248.751      222.493      157.682        0.046        0.031       16.376       10.538        0.414      330.651       -1.839      856.403
02/03/2014  01:30:00       -0.478       15.993        8.970        9.586       18.058       13.053       91.893      326.089      170.382        0.046        0.029       16.000       12.552        0.615      330.685       -1.783      856.401
02/03/2014  01:31:00      -35.349       -5.657       -5.239       33.970       24.449       13.750     1153.974      597.740      189.070        0.162        0.097       35.799       12.541        0.123      330.560       -1.991      856.401
02/03/2014  01:32:00     -117.373      -25.611      -10.471       23.229       25.611       16.380      539.597      655.935      268.293        0.800        0.073      120.135       10.966        0.008      330.268       -2.468      856.405
02/03/2014  01:33:00     -129.283       -2.406       -7.500       46.563       45.319       25.791     2168.102     2053.849      665.187        1.083        0.244      129.305       25.564        0.039      330.097       -2.749      856.405
02/03/2014  01:34:00      -71.751        3.760       -7.738       33.887       27.899       20.411     1148.312      778.345      416.620        0.378        0.117       71.850       14.594        0.041      330.105       -2.736      856.404
02/03/2014  01:35:00      -51.810       20.787       -5.587       20.139       16.895       13.717      405.561      285.439      188.144        0.201        0.044       55.825       10.869        0.038      330.296       -2.421      856.399
02/03/2014  01:36:00       -2.950       21.164        4.095       27.590       13.562        9.886      761.181      183.925       97.728        0.076        0.052       21.368       10.195        0.228      330.500       -2.087      856.390
02/03/2014  01:37:00       27.548       27.719        4.742       19.277       18.877       19.216      371.584      356.358      369.239        0.132        0.055       39.079       15.408        0.155      330.797       -1.600      856.388
02/03/2014  01:38:00       -6.601       14.183       10.230       22.521       12.395       13.883      507.205      153.634      192.751        0.060        0.043       15.644       10.634        0.462      330.622       -1.888      856.396
02/03/2014  01:39:00      -23.310       -3.324       -4.723        9.810        6.458        9.424       96.239       41.706       88.803        0.040        0.011       23.545        5.074        0.046      330.453       -2.165      856.409
02/03/2014  01:40:00      -61.858      -24.642      -10.066       16.769       14.231        8.294      281.209      202.515       68.795        0.254        0.028       66.585        4.497        0.005      330.246       -2.504      856.418
02/03/2014  01:41:00      -78.971      -17.870       -6.996       34.148       21.911       16.018     1166.113      480.086      256.591        0.425        0.095       80.967       14.808        0.033      330.129       -2.696      856.420
02/03/2014  01:42:00      -37.168      -12.456       -2.136       26.616       24.457       17.324      708.413      598.149      300.120        0.157        0.080       39.200       15.595        0.158      330.110       -2.727      856.423
02/03/2014  01:43:00      -43.735       -9.769      -13.653       26.395       19.230       14.694      696.715      369.777      215.918        0.174        0.064       44.813       13.695        0.093      330.197       -2.586      856.420
02/03/2014  01:44:00      -65.781       -8.804      -18.868       15.130       19.800       11.191      228.922      392.049      125.228        0.275        0.037       66.368        8.403        0.016      330.219       -2.548      856.422
02/03/2014  01:45:00      -41.887       -8.865       -2.072       16.524       17.783       14.137      273.042      316.229      199.869        0.131        0.039       42.815       10.155        0.056      330.298       -2.419      856.428
02/03/2014  01:46:00      -25.192        3.732       -8.712       21.798       30.894       10.606      475.161      954.467      112.496        0.113        0.077       25.467       10.011        0.155      330.584       -1.949      856.425
02/03/2014  01:47:00        2.631       30.037        2.926       33.746       20.502       16.993     1138.772      420.312      288.778        0.138        0.092       30.152        8.550        0.080      330.744       -1.688      856.410
02/03/2014  01:48:00       -4.079       21.833       16.802       25.500       16.850       14.841      650.254      283.918      220.243        0.096        0.058       22.211       13.330        0.360      330.780       -1.629      856.402
02/03/2014  01:49:00      -31.356       14.929       -3.695       18.140       16.566       11.355      329.069      274.443      128.939        0.098        0.037       34.729        8.334        0.058      330.615       -1.898      856.407
02/03/2014  01:50:00      -48.578       12.903      -13.492       27.210       19.752       15.615      740.411      390.124      243.820        0.204        0.069       50.263       13.428        0.071      330.516       -2.061      856.418
02/03/2014  01:51:00      -67.914      -19.367       -6.816       25.535       17.745       12.526      652.027      314.887      156.898        0.308        0.056       70.622       14.593        0.043      330.286       -2.438      856.431
02/03/2014  01:52:00     -105.894      -30.212      -11.630       33.772       23.067       13.013     1140.578      532.089      169.343        0.705        0.092      110.120       14.234        0.017      330.203       -2.575      856.441
02/03/2014  01:53:00     -116.513      -17.276       -8.678       39.341       30.286       20.571     1547.677      917.270      423.156        0.842        0.144      117.787       20.834        0.031      330.156       -2.651      856.442
02/03/2014  01:54:00      -83.668       -5.944       -6.629       46.992       30.864       24.805     2208.258      952.574      615.269        0.543        0.189       83.878       27.765        0.110      330.083       -2.770      856.435
02/03/2014  01:55:00      -68.266      -12.450      -14.757       36.314       27.444       13.115     1318.726      753.185      172.012        0.364        0.112       69.392        9.702        0.020      330.110       -2.726      856.423
02/03/2014  01:56:00      -39.645       -6.700      -10.761       17.091       17.273        9.467      292.091      298.373       89.632        0.121        0.034       40.207        6.266        0.024      330.213       -2.559      856.409
02/03/2014  01:57:00      -34.864        5.131       -6.734       12.539       18.510        8.155      157.221      342.636       66.511        0.093        0.028       35.240        8.108        0.053      330.325       -2.374      856.414
02/03/2014  01:58:00      -49.108       18.497       -5.693       14.582       19.576        8.544      212.636      383.213       72.997        0.173        0.033       52.476        7.002        0.018      330.400       -2.254      856.424
02/03/2014  01:59:00      -58.085       -2.003       -4.349       13.587       15.900       11.523      184.618      252.821      132.768        0.198        0.029       58.119        9.455        0.026      330.335       -2.358      856.426
02/03/2014  02:00:00      -52.929      -11.215      -12.776       13.130       19.901       14.656      172.399      396.048      214.810        0.194        0.039       54.104       10.370        0.037      330.271       -2.462      856.424
02/03/2014  02:01:00      -62.525      -16.223      -19.792       15.426       15.515       13.012      237.957      240.722      169.319        0.261        0.032       64.595        7.319        0.013      330.313       -2.394      856.427
02/03/2014  02:02:00      -47.227        7.237       -6.419       20.772       33.355       14.131      431.487     1112.570      199.682        0.203        0.087       47.778       15.525        0.106      330.390       -2.268      856.433
02/03/2014  02:03:00      -19.617       20.701       -0.131       40.694       18.173       17.735     1656.018      330.269      314.540        0.156        0.115       28.519       21.682        0.578      330.694       -1.770      856.434
02/03/2014  02:04:00      -11.246       25.148       -0.566       31.989       24.517       16.572     1023.298      601.074      274.633        0.133        0.095       27.548       17.820        0.418      330.712       -1.739      856.431
02/03/2014  02:05:00        4.152       38.298       -4.201       25.256       19.200       13.191      637.873      368.638      173.994        0.134        0.059       38.522       13.347        0.120      330.799       -1.598      856.426
02/03/2014  02:06:00      -16.527       27.693       -1.487       18.963       15.283       15.411      359.592      233.576      237.486        0.094        0.042       32.250       15.309        0.225      330.745       -1.685      856.423
02/03/2014  02:07:00       -3.010       16.132        3.297        8.689        8.418        8.331       75.503       70.869       69.400        0.025        0.011       16.410        4.729        0.083      330.669       -1.810      856.415
02/03/2014  02:08:00       14.171       32.470       -2.623       14.619       13.371       12.212      213.708      178.779      149.121        0.090        0.027       35.428        9.887        0.078      330.837       -1.534      856.415
02/03/2014  02:09:00        6.490       13.417        4.485       14.479       17.788       11.174      209.640      316.419      124.865        0.045        0.033       14.904        7.314        0.241      330.828       -1.548      856.415
02/03/2014  02:10:00      -37.075        0.297        9.138       15.922       17.095       15.926      253.510      292.249      253.633        0.113        0.040       37.077       12.990        0.123      330.564       -1.983      856.424
02/03/2014  02:11:00      -84.894      -17.581      -10.672       22.708       13.992        8.088      515.649      195.771       65.418        0.420        0.039       86.695        6.892        0.006      330.325       -2.374      856.428
02/03/2014  02:12:00      -88.908      -17.275       -5.351       25.881       14.658       12.569      669.837      214.861      157.975        0.464        0.052       90.571       11.732        0.017      330.267       -2.469      856.430
02/03/2014  02:13:00      -95.122      -12.659       -8.087       15.232       13.810       16.515      232.020      190.721      272.740        0.498        0.035       95.960       10.542        0.012      330.244       -2.508      856.427
02/03/2014  02:14:00      -88.113       -3.310       -9.144       20.988       17.939       18.831      440.502      321.792      354.590        0.449        0.056       88.175       15.409        0.031      330.195       -2.589      856.426
02/03/2014  02:15:00      -47.038       -1.746       -0.393       17.118       11.426       13.432      293.042      130.543      180.412        0.141        0.030       47.070       10.150        0.046      330.181       -2.610      856.416
02/03/2014  02:16:00      -25.698       -3.807       -4.915        9.409        8.018        6.005       88.530       64.290       36.064        0.044        0.009       25.979        5.465        0.044      330.239       -2.516      856.410
02/03/2014  02:17:00      -59.480       -3.102       -5.565       13.746        8.021       10.158      188.954       64.333      103.183        0.197        0.018       59.560        8.714        0.021      330.351       -2.333      856.423
02/03/2014  02:18:00      -87.660      -26.584       -8.361       16.524       13.508       10.049      273.058      182.460      100.992        0.451        0.028       91.603        3.165        0.001      330.341       -2.349      856.427
02/03/2014  02:19:00     -107.108      -40.766       -9.715       22.823       23.478       11.243      520.882      551.199      126.398        0.721        0.060      114.604        7.109        0.004      330.164       -2.639      856.426
02/03/2014  02:20:00     -144.443      -45.258      -11.011       25.937       33.042       23.123      672.712     1091.807      534.653        1.267        0.115      151.368       15.903        0.011      330.113       -2.723      856.424
02/03/2014  02:21:00     -109.897      -19.946       -5.259       51.748       31.797       24.236     2677.815     1011.024      587.399        0.839        0.214      111.692       25.036        0.050      330.058       -2.811      856.420
02/03/2014  02:22:00     -168.590       -5.310      -13.722       40.233       34.785       25.036     1618.685     1210.018      626.826        1.605        0.173      168.674       21.753        0.017      329.988       -2.928      856.417
02/03/2014  02:23:00     -143.733       -7.678      -16.831       41.297       25.864       17.204     1705.456      668.950      295.975        1.184        0.134      143.938        9.688        0.005      329.955       -2.981      856.407
02/03/2014  02:24:00      -42.461        1.630       -3.061       24.416       19.861       16.427      596.141      394.477      269.855        0.154        0.063       42.492       13.278        0.098      329.983       -2.933      856.394
02/03/2014  02:25:00      -48.907      -18.717       -6.240       25.058       16.435       15.678      627.926      270.112      245.801        0.196        0.057       52.367       10.221        0.038      330.093       -2.755      856.402
02/03/2014  02:26:00      -51.872      -55.443       -7.263       48.416       24.914       17.560     2344.064      620.726      308.351        0.454        0.164       75.925       14.719        0.038      330.061       -2.808      856.402
02/03/2014  02:27:00      -44.367      -27.697        3.267       47.795       24.219       21.243     2284.398      586.539      451.249        0.303        0.166       52.302       25.662        0.241      330.000       -2.906      856.400
02/03/2014  02:28:00     -111.697      -34.709       -3.529       39.788       36.472       21.215     1583.105     1330.224      450.063        0.853        0.168      116.965       16.812        0.021      329.949       -2.989      856.396
02/03/2014  02:29:00     -128.337      -50.637       -4.249       46.976       49.795       24.239     2206.754     2479.532      587.543        1.216        0.264      137.965       21.645        0.025      329.896       -3.077      856.393
02/03/2014  02:30:00     -174.838       20.602      -18.189       34.594       37.915       21.998     1196.726     1437.550      483.930        1.722        0.156      176.047       14.243        0.007      329.774       -3.277      856.395
02/03/2014  02:31:00     -110.917      -19.531       -9.652       51.986       29.496       26.560     2702.508      870.037      705.410        0.853        0.214      112.624       27.252        0.059      329.745       -3.323      856.397
02/03/2014  02:32:00      -87.973       14.073       -5.914       37.793       26.660       15.054     1428.332      710.739      226.610        0.517        0.118       89.091        6.030        0.005      329.848       -3.157      856.380
02/03/2014  02:33:00      -68.277       -4.923       -8.960       24.476       20.792       12.486      599.068      432.324      155.911        0.298        0.059       68.455        8.707        0.016      329.850       -3.155      856.369
02/03/2014  02:34:00      -24.468      -40.567       -5.939       36.734       15.999       15.031     1349.404      255.969      225.918        0.206        0.092       47.375       11.048        0.054      329.968       -2.960      856.363
02/03/2014  02:35:00      -89.055      -24.399       -8.826       17.193       17.947       11.843      295.601      322.099      140.265        0.468        0.038       92.337        6.640        0.005      329.826       -3.192      856.374
02/03/2014  02:36:00      -65.899      -33.830       -4.708       30.613       28.615       15.280      937.169      818.804      233.482        0.375        0.099       74.075        5.869        0.006      329.866       -3.127      856.369
02/03/2014  02:37:00     -101.809      -37.653      -10.955       75.168       44.824       20.168     5650.297     2009.195      406.742        0.998        0.403      108.549       24.735        0.052      329.909       -3.058      856.377
02/03/2014  02:38:00     -192.946      -75.592       -7.349       39.451       54.733       29.647     1556.347     2995.660      878.949        2.421        0.272      207.225       23.497        0.013      329.742       -3.331      856.386
02/03/2014  02:39:00     -165.885      -52.885       -8.021       46.320       35.172       21.071     2145.579     1237.058      443.986        1.710        0.191      174.111       21.630        0.015      329.801       -3.233      856.389
02/03/2014  02:40:00     -124.517        9.810       -8.979       48.297       43.739       19.249     2332.619     1913.059      370.531        1.015        0.231      124.903       12.518        0.010      329.779       -3.268      856.395
02/03/2014  02:41:00     -143.760       32.013      -10.138       36.400       33.401       21.517     1324.985     1115.645      462.980        1.235        0.145      147.281       16.120        0.012      329.731       -3.345      856.387
02/03/2014  02:42:00     -156.074       21.894      -15.992       37.361       30.736       25.257     1395.808      944.692      637.919        1.404        0.149      157.602       19.966        0.016      329.717       -3.371      856.382
02/03/2014  02:43:00     -140.121       34.243      -18.604       39.385       26.884       22.887     1551.169      722.766      523.831        1.197        0.140      144.244       11.900        0.007      329.708       -3.385      856.384
02/03/2014  02:44:00     -172.881       35.866      -18.441       38.364       23.179       20.392     1471.829      537.280      415.836        1.697        0.121      176.563       12.151        0.005      329.701       -3.396      856.394
02/03/2014  02:45:00     -157.598        8.896      -17.208       29.545       44.778       28.360      872.919     2005.027      804.294        1.445        0.184      157.849       19.757        0.016      329.697       -3.404      856.409
02/03/2014  02:46:00     -110.228       11.949      -16.251       38.263       38.707       22.685     1464.033     1498.262      514.594        0.802        0.174      110.874       15.221        0.019      329.656       -3.470      856.410
02/03/2014  02:47:00     -110.670       14.073      -15.378       29.610       41.891       23.262      876.758     1754.879      541.098        0.793        0.159      111.561       18.717        0.028      329.704       -3.391      856.395
02/03/2014  02:48:00      -70.934       22.048       -0.646       26.729       15.287       13.455      714.422      233.705      181.032        0.332        0.056       74.282        9.600        0.017      329.799       -3.237      856.382
02/03/2014  02:49:00     -107.057        8.012      -10.096       39.068       21.046       19.829     1526.283      442.943      393.204        0.699        0.118      107.357       14.571        0.018      329.790       -3.251      856.379
02/03/2014  02:50:00     -108.199       10.876       -6.249       58.966       34.173       22.112     3477.044     1167.804      488.919        0.850        0.257      108.744       23.680        0.047      329.728       -3.352      856.383
02/03/2014  02:51:00     -188.532       -0.607      -21.737       29.263       29.654       23.158      856.298      879.365      536.291        1.914        0.114      188.533       18.250        0.009      329.629       -3.515      856.368
02/03/2014  02:52:00     -162.238      -21.089      -23.482       46.549       17.191       16.605     2166.817      295.545      275.719        1.503        0.137      163.603       18.529        0.013      329.606       -3.551      856.352
02/03/2014  02:53:00      -50.132       -1.586       -3.729       34.029       28.553       18.317     1157.939      815.276      335.512        0.242        0.115       50.157       22.978        0.210      329.736       -3.339      856.345
02/03/2014  02:54:00     -104.594      -15.366      -10.622       35.555       30.138       20.447     1264.164      908.309      418.077        0.694        0.130      105.716       19.810        0.035      329.768       -3.286      856.354
02/03/2014  02:55:00     -109.262      -21.159        2.280       39.090       38.125       24.757     1528.038     1453.536      612.919        0.799        0.180      111.292       24.739        0.049      329.748       -3.319      856.370
02/03/2014  02:56:00     -147.663       10.291      -19.836       18.240       29.141       18.139      332.688      849.197      329.017        1.191        0.076      148.021       12.095        0.007      329.712       -3.379      856.377
02/03/2014  02:57:00      -97.708       17.272      -15.964       25.062       26.002       19.578      628.087      676.115      383.312        0.589        0.084       99.223        8.650        0.008      329.750       -3.316      856.366
02/03/2014  02:58:00      -70.275       46.012      -11.945       23.879       35.802       17.061      570.194     1281.796      291.075        0.467        0.107       83.998       16.291        0.038      329.890       -3.087      856.333
02/03/2014  02:59:00      -48.823       30.546       -7.578       25.457       33.857       14.223      648.063     1146.280      202.288        0.269        0.100       57.591       15.868        0.076      329.976       -2.945      856.307
02/03/2014  03:00:00      -63.795       39.018       -8.085       26.995       30.394       17.200      728.749      923.779      295.856        0.380        0.097       74.781       16.666        0.050      330.049       -2.827      856.291
02/03/2014  03:01:00      -52.627       30.795       -6.729       24.487       23.460       16.893      599.590      550.354      285.375        0.260        0.072       60.975        7.927        0.017      330.116       -2.719      856.294
02/03/2014  03:02:00      -50.848        3.954       -5.726       14.040       22.673       15.525      197.122      514.043      241.031        0.179        0.048       51.002       10.134        0.039      330.055       -2.818      856.285
02/03/2014  03:03:00      -59.200      -20.632      -14.600       20.363       19.596       13.982      414.662      383.990      195.505        0.257        0.050       62.692        9.775        0.024      329.951       -2.987      856.274
02/03/2014  03:04:00      -40.091       -9.287        7.396       18.013       19.065       14.926      324.460      363.459      222.777        0.133        0.046       41.152        9.391        0.052      329.963       -2.967      856.269
02/03/2014  03:05:00      -47.222      -10.271       -8.850       20.609       14.928       10.941      424.729      222.858      119.702        0.159        0.038       48.326        9.007        0.035      329.937       -3.012      856.271
02/03/2014  03:06:00      -48.462       -8.702      -10.645       19.395       12.576       10.235      376.161      158.164      104.750        0.159        0.032       49.237       10.676        0.047      330.071       -2.792      856.272
02/03/2014  03:07:00      -93.593       -5.676      -14.413       25.139       15.918       12.090      631.993      253.374      146.160        0.502        0.052       93.764        6.782        0.005      330.015       -2.882      856.294
02/03/2014  03:08:00      -79.796       18.391      -11.016       38.834       31.460       22.335     1508.117      989.752      498.843        0.491        0.150       81.887       18.422        0.051      329.998       -2.911      856.297
02/03/2014  03:09:00      -80.480      -11.892      -14.023       19.545       19.836       13.400      382.016      393.460      179.558        0.388        0.048       81.354        5.830        0.005      329.980       -2.940      856.285
02/03/2014  03:10:00     -105.484        0.549      -11.593       25.190       16.989       12.259      634.535      288.617      150.292        0.617        0.054      105.486       10.775        0.010      329.978       -2.943      856.277
02/03/2014  03:11:00      -95.833      -12.093       -8.873       30.698       25.810       20.839      942.386      666.181      434.264        0.573        0.102       96.593       17.930        0.034      329.967       -2.960      856.284
02/03/2014  03:12:00     -123.957        5.056       -7.580       32.178       28.998       21.092     1035.432      840.873      444.892        0.888        0.116      124.060       19.887        0.026      329.900       -3.074      856.291
02/03/2014  03:13:00     -104.254        4.158      -15.325       22.581       25.046       15.553      509.895      627.293      241.894        0.625        0.069      104.337        8.719        0.007      329.928       -3.026      856.294
02/03/2014  03:14:00      -93.443       25.055      -18.034       39.733       29.359       17.157     1578.706      861.958      294.375        0.621        0.137       96.744        7.946        0.007      329.945       -2.997      856.289
02/03/2014  03:15:00     -105.214        8.183      -17.980       38.500       23.703       19.444     1482.275      561.824      378.085        0.694        0.121      105.532       11.251        0.011      329.899       -3.075      856.289
02/03/2014  03:16:00     -114.869      -10.021      -12.905       30.819       36.515       18.015      949.839     1333.321      324.540        0.803        0.130      115.305       17.318        0.023      329.902       -3.069      856.284
02/03/2014  03:17:00     -113.121      -10.552      -14.820       28.884       20.589       15.479      834.292      423.907      239.606        0.731        0.075      113.612       13.093        0.013      329.867       -3.126      856.278
02/03/2014  03:18:00      -81.057        6.769       -7.874       24.527       24.262       12.753      601.583      588.629      162.648        0.402        0.068       81.339        8.212        0.010      329.920       -3.038      856.266
02/03/2014  03:19:00      -83.413       13.379       -6.033       30.230       22.509       15.582      913.879      506.659      242.787        0.442        0.083       84.479       12.090        0.020      330.094       -2.754      856.258
02/03/2014  03:20:00      -80.541        5.118      -10.890       30.891       30.648       17.770      954.270      939.307      315.769        0.442        0.110       80.704       13.988        0.030      329.961       -2.971      856.244
02/03/2014  03:21:00      -49.272       13.807      -12.244       20.031       28.078       17.256      401.226      788.353      297.758        0.213        0.074       51.170       16.259        0.101      330.055       -2.817      856.220
02/03/2014  03:22:00       -6.671        6.566       -5.155       10.965       13.597       13.138      120.223      184.882      172.595        0.030        0.024        9.361       10.453        1.247      330.242       -2.511      856.209
02/03/2014  03:23:00      -30.455       11.436        3.598       20.780       17.949       15.853      431.792      322.154      251.304        0.104        0.050       32.531       14.513        0.199      330.181       -2.610      856.219
02/03/2014  03:24:00      -52.544      -18.037       -5.093       19.555       18.174       15.963      382.385      330.291      254.827        0.204        0.048       55.554       14.271        0.066      330.128       -2.698      856.228
02/03/2014  03:25:00      -86.363      -12.689       -5.933       25.829       23.354       16.365      667.136      545.402      267.803        0.457        0.074       87.291       10.341        0.014      329.994       -2.916      856.232
02/03/2014  03:26:00      -91.029       -1.313       -9.227       23.925       17.541       15.501      572.391      307.674      240.288        0.475        0.056       91.039       12.927        0.020      329.930       -3.022      856.239
02/03/2014  03:27:00      -70.017       22.286       -7.691       24.781       21.033       19.547      614.113      442.406      382.087        0.345        0.072       73.478       10.924        0.022      330.024       -2.870      856.216
02/03/2014  03:28:00       -9.357       84.053       -3.777       25.323       27.780       21.100      641.231      771.735      445.214        0.451        0.093       84.572       13.391        0.025      330.362       -2.313      856.180
02/03/2014  03:29:00        9.612       88.143      -17.757       14.830       21.308        7.345      219.927      454.049       53.947        0.445        0.036       88.666        8.077        0.008      330.233       -2.526      856.172
02/03/2014  03:30:00      -13.691       72.874       -9.245       24.015       36.190       15.509      576.728     1309.736      240.536        0.385        0.106       74.149       15.440        0.043      330.339       -2.349      856.176
02/03/2014  03:31:00      -72.146      -10.167       -9.985       15.067       21.853       10.465      227.019      477.563      109.520        0.311        0.041       72.859        9.655        0.018      330.058       -2.813      856.181
02/03/2014  03:32:00     -112.585       14.868      -12.619       37.023       27.569       13.724     1370.730      760.060      188.362        0.769        0.116      113.563       13.587        0.014      330.055       -2.816      856.171
02/03/2014  03:33:00     -134.778       38.889      -11.643       20.751       19.512       14.111      430.598      380.707      199.109        1.041        0.051      140.276        6.360        0.002      330.023       -2.870      856.144
02/03/2014  03:34:00     -108.774       -4.310      -17.153       22.602       16.395       10.379      510.847      268.812      107.730        0.652        0.044      108.859        9.874        0.008      330.028       -2.860      856.124
02/03/2014  03:35:00      -65.151      -17.092       -6.042       16.000       19.929       10.376      255.989      397.167      107.670        0.267        0.038       67.356        7.875        0.014      330.137       -2.685      856.111
02/03/2014  03:36:00      -51.359        7.325       -3.727       23.680       19.018       14.245      560.719      361.696      202.915        0.192        0.056       51.879       14.019        0.073      330.149       -2.663      856.107
02/03/2014  03:37:00      -52.923       -7.190       -7.163       21.222       14.386       11.079      450.371      206.958      122.735        0.184        0.039       53.409       12.740        0.057      330.088       -2.764      856.106
02/03/2014  03:38:00      -79.154       -7.538      -10.660       30.295       23.168       19.512      917.778      536.737      380.732        0.414        0.092       79.512       17.620        0.049      330.053       -2.820      856.122
02/03/2014  03:39:00      -91.707       10.716      -15.049       33.354       25.597       14.314     1112.515      655.195      204.880        0.536        0.099       92.331       14.978        0.026      329.960       -2.970      856.142
02/03/2014  03:40:00      -20.062       96.185      -10.927       49.560       62.706       24.706     2456.216     3932.061      610.392        0.838        0.350       98.255       20.792        0.045      330.216       -2.552      856.134
02/03/2014  03:41:00       16.394      103.996       -0.598       28.485       40.468       20.855      811.392     1637.648      434.925        0.698        0.144      105.280       14.600        0.019      330.249       -2.500      856.101
02/03/2014  03:42:00       27.927       25.181       -5.258       18.346       20.985        9.732      336.570      440.366       94.705        0.116        0.044       37.603       10.059        0.072      330.148       -2.666      856.073
02/03/2014  03:43:00       19.310       13.509        1.462       16.821       18.825       10.863      282.939      354.374      118.011        0.066        0.038       23.566        6.476        0.076      330.169       -2.630      856.055
02/03/2014  03:44:00        8.290       30.609       -1.059       17.587       24.866       13.223      309.313      618.298      174.856        0.105        0.055       31.712       11.795        0.138      330.159       -2.647      856.071
02/03/2014  03:45:00      -16.148       38.812       -9.732       13.809       38.572        9.633      190.679     1487.779       92.797        0.182        0.089       42.037       15.340        0.133      330.133       -2.689      856.099
02/03/2014  03:46:00      -58.839      -23.417       -7.946       19.669       12.715       11.032      386.879      161.660      121.701        0.237        0.034       63.327        9.975        0.025      329.872       -3.117      856.121
02/03/2014  03:47:00      -41.269      -13.885       -6.058       16.321       11.799        6.870      266.379      139.219       47.192        0.119        0.023       43.542        3.163        0.005      329.849       -3.156      856.139
02/03/2014  03:48:00      -16.153       19.757       -5.229       12.047       22.287        9.947      145.128      496.697       98.937        0.071        0.037       25.520       10.697        0.176      330.139       -2.679      856.135
02/03/2014  03:49:00       26.108       16.557        6.242       13.421       15.284       16.696      180.125      233.600      278.747        0.084        0.035       30.916       10.658        0.119      330.196       -2.587      856.123
02/03/2014  03:50:00       11.049       13.426        1.709       17.836       10.810       14.743      318.137      116.856      217.354        0.048        0.033       17.388       10.221        0.346      330.299       -2.417      856.123
02/03/2014  03:51:00      -59.640      -15.091       -7.529       28.971       10.425        9.290      839.311      108.685       86.303        0.244        0.052       61.520        6.180        0.010      329.972       -2.954      856.120
02/03/2014  03:52:00      -97.388      -13.443      -13.243       20.038       13.620       12.737      401.522      185.502      162.242        0.529        0.037       98.312       11.401        0.013      329.819       -3.202      856.127
02/03/2014  03:53:00      -85.957        2.944       -7.360       45.068       26.402       20.577     2031.155      697.069      423.421        0.530        0.158       86.007       24.790        0.083      329.777       -3.272      856.129
02/03/2014  03:54:00      -70.298       14.674      -12.297       31.623       27.952       23.791     1000.032      781.332      565.993        0.383        0.117       71.813       22.080        0.095      329.731       -3.348      856.129
02/03/2014  03:55:00      -27.742       45.411       -7.263       29.288       17.672       17.284      857.769      312.302      298.721        0.218        0.073       53.215       19.102        0.129      330.139       -2.679      856.116
02/03/2014  03:56:00       61.690       50.884       16.787       19.610       19.305       16.511      384.550      372.686      272.624        0.385        0.051       79.968        9.807        0.015      330.249       -2.498      856.089
02/03/2014  03:57:00       35.689       50.712        3.476       22.962       25.663       22.500      527.270      658.581      506.250        0.277        0.085       62.011       19.576        0.100      330.137       -2.683      856.070
02/03/2014  03:58:00       32.850       28.580        1.647       25.024       20.778       13.811      626.191      431.722      190.746        0.157        0.062       43.542        7.815        0.032      330.130       -2.695      856.066
02/03/2014  03:59:00       52.781       37.553        7.789       27.533       20.978       16.762      758.056      440.075      280.980        0.287        0.074       64.777       13.533        0.044      330.131       -2.692      856.082
02/03/2014  04:00:00       56.019       18.282        2.237       29.321       21.922       12.250      859.714      480.570      150.073        0.248        0.075       58.926        5.441        0.009      330.150       -2.663      856.108
02/03/2014  04:01:00      -68.006      -11.115       -8.839       59.215       15.343       11.231     3506.430      235.407      126.128        0.435        0.193       68.909       19.531        0.080      329.974       -2.950      856.156
02/03/2014  04:02:00     -135.301      -16.222      -11.309       33.107       29.352       24.738     1096.069      861.551      611.961        1.063        0.128      136.270       21.378        0.025      329.796       -3.242      856.198
02/03/2014  04:03:00      -98.218       11.166      -10.425       32.811       28.086       19.930     1076.543      788.841      397.224        0.607        0.113       98.850       14.449        0.021      329.756       -3.307      856.203
02/03/2014  04:04:00      -27.097        2.058       -3.817       26.734        8.034       11.047      714.696       64.539      122.039        0.083        0.045       27.175        9.886        0.132      329.733       -3.343      856.179
02/03/2014  04:05:00       25.888       12.811        5.136       16.684       13.166       13.309      278.351      173.354      177.126        0.074        0.031       28.884        9.854        0.116      330.042       -2.838      856.155
02/03/2014  04:06:00       25.779       21.227        5.466       13.504        8.777        9.097      182.358       77.033       82.757        0.074        0.017       33.394        6.441        0.037      330.164       -2.639      856.144
02/03/2014  04:07:00        7.540       18.612        1.578       10.910        9.981        6.620      119.030       99.620       43.820        0.033        0.013       20.081        5.208        0.067      330.166       -2.633      856.131
02/03/2014  04:08:00       15.373       46.425       -3.020        7.997       20.470        8.951       63.950      419.025       80.122        0.148        0.028       48.904        9.395        0.037      330.221       -2.546      856.115
02/03/2014  04:09:00       -2.015       39.399       -6.954        4.545        8.214        4.674       20.660       67.475       21.846        0.086        0.005       39.451        4.281        0.012      330.227       -2.534      856.117
02/03/2014  04:10:00      -13.235       -0.809        0.759       10.893       19.852        8.587      118.666      394.112       73.736        0.038        0.029       13.260        9.724        0.538      330.137       -2.680      856.150
02/03/2014  04:11:00       13.302       14.020       17.124       24.576       22.152        9.795      603.994      490.723       95.951        0.093        0.060       19.326        8.841        0.209      330.052       -2.823      856.161
02/03/2014  04:12:00       58.287       25.064       12.767       20.675       13.793       18.140      427.460      190.247      329.073        0.257        0.047       63.447       12.668        0.040      330.093       -2.756      856.165
02/03/2014  04:13:00       47.517       48.974       -2.372       15.761       10.625        6.867      248.404      112.882       47.160        0.254        0.020       68.237        3.940        0.003      330.037       -2.845      856.180
02/03/2014  04:14:00       30.815       39.477       -6.597        6.033       14.933        7.149       36.394      222.996       51.112        0.143        0.016       50.080        5.859        0.014      330.090       -2.762      856.200
02/03/2014  04:15:00       22.106       24.877       -4.086       11.814       15.408        7.455      139.572      237.395       55.581        0.078        0.022       33.279        4.634        0.019      330.125       -2.704      856.217
02/03/2014  04:16:00       53.242       31.826        4.389       21.202       16.455        9.425      449.524      270.766       88.833        0.234        0.040       62.029        6.188        0.010      330.133       -2.690      856.197
02/03/2014  04:17:00       56.612       38.524       19.474       23.479       21.875       24.301      551.271      478.534      590.556        0.334        0.081       68.477       18.018        0.069      330.148       -2.666      856.171
02/03/2014  04:18:00       26.197       45.966       46.113       28.128       24.855       17.578      791.158      617.747      308.981        0.332        0.086       52.907       13.582        0.066      330.064       -2.803      856.160
02/03/2014  04:19:00       13.941       17.850       26.878       20.097       17.394       15.110      403.891      302.538      228.324        0.108        0.047       22.649       13.003        0.330      330.165       -2.637      856.167
02/03/2014  04:20:00       19.457       41.182       48.615       23.427       26.645       18.816      548.842      709.969      354.025        0.303        0.081       45.547       20.908        0.211      330.185       -2.605      856.157
02/03/2014  04:21:00        3.115       64.683       87.515       18.143       37.172       22.273      329.172     1381.725      496.076        0.703        0.110       64.758       27.380        0.179      330.050       -2.825      856.137
02/03/2014  04:22:00       17.559       34.915       66.726       32.799       46.311       34.333     1075.775     2144.700     1178.779        0.519        0.220       39.082       34.667        0.787      330.039       -2.845      856.133
02/03/2014  04:23:00       36.559       17.911       53.883       43.434       53.404       32.567     1886.483     2852.029     1060.585        0.518        0.290       40.711       33.972        0.696      329.985       -2.932      856.149
02/03/2014  04:24:00       24.146        5.918       40.562       27.870       38.118       30.709      776.712     1452.991      943.053        0.272        0.159       24.860       26.520        1.138      329.922       -3.035      856.168
02/03/2014  04:25:00       36.489       21.092       43.449       30.184       30.448       27.581      911.049      927.092      760.685        0.313        0.130       42.146       22.229        0.278      329.861       -3.135      856.180
02/03/2014  04:26:00       18.138       41.794       57.074       32.735       29.880       17.974     1071.601      892.811      323.072        0.381        0.114       45.560       19.063        0.175      329.854       -3.146      856.171
02/03/2014  04:27:00       49.341       45.581       57.642       35.629       28.506       18.768     1269.424      812.604      352.229        0.513        0.122       67.173       10.572        0.025      329.851       -3.151      856.154
02/03/2014  04:28:00      105.071       63.627       26.365       57.864       27.787       31.548     3348.194      772.142      995.264        1.045        0.256      122.834       32.901        0.072      329.805       -3.227      856.149
02/03/2014  04:29:00       98.173       42.066       25.605       57.860       31.002       29.440     3347.834      961.143      866.705        0.862        0.259      106.806       28.214        0.070      329.815       -3.209      856.144
02/03/2014  04:30:00       75.848       53.909       38.760       63.063       28.901       30.754     3976.986      835.246      945.802        0.796        0.288       93.055       34.288        0.136      329.830       -3.186      856.150
02/03/2014  04:31:00       51.392       54.639       44.521       41.253       26.531       23.615     1701.794      703.899      557.662        0.529        0.148       75.010       22.398        0.089      329.768       -3.287      856.150
02/03/2014  04:32:00       32.312       42.429       46.644       27.952       23.437       13.491      781.329      549.296      182.019        0.327        0.076       53.332        8.326        0.024      329.761       -3.297      856.160
02/03/2014  04:33:00       56.490       43.580       50.308       26.838       24.350       24.350      720.270      592.916      592.903        0.476        0.095       71.346       16.718        0.055      329.739       -3.334      856.194
02/03/2014  04:34:00       21.843       36.478       43.446       33.927       27.950       23.416     1151.067      781.223      548.309        0.309        0.124       42.518       24.943        0.344      329.725       -3.356      856.230
02/03/2014  04:35:00       22.615       10.852       31.530       22.136       24.934       23.050      489.980      621.721      531.307        0.163        0.082       25.084       18.231        0.528      329.750       -3.317      856.242
02/03/2014  04:36:00       20.842       42.834       63.755       24.291       24.971       20.918      590.043      623.562      437.578        0.399        0.083       47.636       19.273        0.164      329.792       -3.247      856.233
02/03/2014  04:37:00       -1.442        1.210       57.850       19.800       45.595       33.823      392.032     2078.887     1144.014        0.348        0.181        1.883       31.058      272.106      329.894       -3.082      856.217
02/03/2014  04:38:00       10.679        3.761       50.544       20.210       26.231       15.080      408.454      688.059      227.395        0.200        0.066       11.322       12.088        1.140      329.890       -3.089      856.226
02/03/2014  04:39:00       22.570       -5.060       42.475       23.850       41.213       21.047      568.845     1698.489      442.975        0.252        0.136       23.130       24.197        1.094      329.931       -3.021      856.232
02/03/2014  04:40:00       11.354       16.920       40.981       17.421       30.127       17.912      303.502      907.623      320.850        0.181        0.077       20.377       16.062        0.621      329.912       -3.052      856.226
02/03/2014  04:41:00       13.384       14.563       30.669       15.257       16.796       13.254      232.790      282.106      175.667        0.101        0.035       19.780        8.592        0.189      329.907       -3.061      856.227
02/03/2014  04:42:00       15.115        4.403       22.541       17.363       29.531       14.015      301.465      872.107      196.421        0.106        0.068       15.743       12.790        0.660      329.927       -3.027      856.219
02/03/2014  04:43:00       17.251       16.780       23.418       25.034       13.369       14.642      626.678      178.730      214.393        0.107        0.051       24.065       11.523        0.229      329.960       -2.973      856.223
02/03/2014  04:44:00       27.868       -8.389       14.946       21.206       27.271       22.499      449.708      743.734      506.222        0.138        0.085       29.103       19.673        0.457      330.044       -2.835      856.228
02/03/2014  04:45:00       22.169        1.093       23.083       18.504       27.577       19.794      342.401      760.497      391.795        0.126        0.075       22.196       17.760        0.640      329.968       -2.959      856.230
02/03/2014  04:46:00       45.292      -44.075        6.868       30.307       50.993       29.752      918.487     2600.281      885.203        0.422        0.220       63.198       35.030        0.307      330.052       -2.823      856.244
02/03/2014  04:47:00        1.471      -33.405       11.696       25.707       29.401       22.495      660.846      864.402      506.023        0.164        0.102       33.437       16.851        0.254      330.107       -2.734      856.251
02/03/2014  04:48:00       -7.899      -13.967       16.350       18.692       13.833       11.826      349.379      191.353      139.864        0.060        0.034       16.046       10.817        0.454      330.072       -2.791      856.262
02/03/2014  04:49:00      -15.922      -16.767        0.909       25.641       11.500       14.761      657.467      132.255      217.884        0.077        0.050       23.123        9.749        0.178      330.056       -2.816      856.261
02/03/2014  04:50:00      -29.968      -10.102        1.123       13.880       11.054        9.916      192.644      122.181       98.334        0.071        0.021       31.624        8.070        0.065      330.034       -2.850      856.258
02/03/2014  04:51:00       -4.635        9.725       17.819        9.447       12.208        8.829       89.254      149.042       77.955        0.037        0.016       10.773        7.932        0.542      330.100       -2.744      856.253
02/03/2014  04:52:00       37.306       47.370       25.803       37.137       14.248       16.994     1379.138      203.013      288.795        0.309        0.094       60.296       18.960        0.099      330.062       -2.806      856.248
02/03/2014  04:53:00       56.496       28.635        7.511       16.736       14.520       11.623      280.087      210.841      135.104        0.235        0.031       63.338        6.325        0.010      330.052       -2.822      856.253
02/03/2014  04:54:00       32.051       21.392       26.513       21.688       13.363       13.935      470.382      178.559      194.189        0.152        0.042       38.534        6.171        0.026      330.097       -2.749      856.246
02/03/2014  04:55:00       40.042       33.353       31.007       13.797       14.832       18.346      190.361      219.988      336.585        0.221        0.037       52.113        8.983        0.030      330.117       -2.715      856.244
02/03/2014  04:56:00       22.120       35.946       36.643       25.562       17.943       15.349      653.429      321.939      235.606        0.217        0.061       42.206       14.304        0.115      330.109       -2.729      856.253
02/03/2014  04:57:00       35.582       20.495       29.706       21.568       14.374       17.078      465.157      206.623      291.667        0.177        0.048       41.062        9.241        0.051      330.037       -2.847      856.270
02/03/2014  04:58:00       31.475      -14.284       13.713       34.670       21.590       14.607     1202.023      466.131      213.350        0.163        0.094       34.565       11.374        0.108      330.199       -2.581      856.290
02/03/2014  04:59:00      -31.287      -19.794       15.718       41.356       28.155       19.909     1710.320      792.676      396.363        0.226        0.145       37.023       17.227        0.217      330.026       -2.866      856.297
02/03/2014  05:00:00      -34.779        8.428        5.274       42.022       25.877       17.733     1765.813      669.641      314.473        0.203        0.137       35.786       15.965        0.199      329.816       -3.209      856.302
02/03/2014  05:01:00      -16.598        2.274        1.334       16.343       23.393       16.715      267.090      547.224      279.401        0.069        0.055       16.753        9.989        0.355      329.813       -3.213      856.305
02/03/2014  05:02:00      -30.347       19.337        2.888       17.681       19.043       13.131      312.612      362.639      172.426        0.108        0.042       35.984        6.805        0.036      329.892       -3.083      856.305
02/03/2014  05:03:00      -23.447       27.063       12.165       23.619       16.786       13.301      557.878      281.765      176.913        0.122        0.051       35.807       12.586        0.124      330.008       -2.893      856.316
02/03/2014  05:04:00      -31.211       31.976       -4.107       18.420       21.155       15.600      339.297      447.532      243.356        0.152        0.052       44.683       12.827        0.082      329.823       -3.195      856.351
02/03/2014  05:05:00      -48.957       -5.848      -11.361       10.800       16.515       10.587      116.647      272.738      112.087        0.153        0.025       49.305        5.579        0.013      329.812       -3.216      856.374
02/03/2014  05:06:00      -44.244      -12.404       -5.861       11.075       13.915       10.641      122.666      193.636      113.221        0.129        0.021       45.950        5.962        0.017      329.804       -3.228      856.375
02/03/2014  05:07:00      -38.814      -17.271       -2.010       11.620       13.682       11.229      135.026      187.191      126.095        0.113        0.022       42.483        5.886        0.019      329.782       -3.265      856.364
02/03/2014  05:08:00      -63.220      -19.170       -6.078       12.766       13.800       10.557      162.962      190.443      111.458        0.243        0.023       66.062        5.032        0.006      329.746       -3.322      856.346
02/03/2014  05:09:00      -62.521      -18.995      -11.679       12.111       14.373        9.567      146.668      206.589       91.518        0.243        0.022       65.343        6.073        0.009      329.754       -3.310      856.334
02/03/2014  05:10:00      -61.383      -17.886       -9.993       18.299       11.175        8.409      334.857      124.879       70.711        0.236        0.027       63.936        8.243        0.017      329.738       -3.335      856.322
02/03/2014  05:11:00      -45.586        6.590       -3.315       28.367       19.699       11.931      804.714      388.069      142.339        0.173        0.067       46.060        9.449        0.042      329.759       -3.301      856.327
02/03/2014  05:12:00      -28.683        9.149       -2.423       24.863       16.175       13.424      618.162      261.643      180.207        0.099        0.053       30.107       10.541        0.123      329.768       -3.287      856.336
02/03/2014  05:13:00      -56.036       16.294       -9.157       23.758       13.984        9.281      564.458      195.540       86.138        0.217        0.042       58.357        5.350        0.008      329.834       -3.179      856.351
02/03/2014  05:14:00      -69.218       15.909      -13.929       10.424       14.328        9.129      108.667      205.286       83.348        0.282        0.020       71.023        7.537        0.011      329.818       -3.206      856.359
02/03/2014  05:15:00      -78.285        3.671       -9.995       23.840       21.880       15.888      568.362      478.716      252.422        0.377        0.065       78.371       11.070        0.020      329.787       -3.255      856.377
02/03/2014  05:16:00      -75.903       15.284      -16.669       33.900       24.892       18.810     1149.211      619.605      353.828        0.420        0.106       77.427       18.179        0.055      329.782       -3.264      856.386
02/03/2014  05:17:00      -72.843       28.831      -11.110       28.809       24.585       20.176      829.933      604.409      407.082        0.405        0.092       78.341       14.101        0.032      329.803       -3.229      856.387
02/03/2014  05:18:00      -54.868       32.179        5.499       30.878       17.959       17.921      953.462      322.523      321.176        0.284        0.080       63.608       13.195        0.043      329.819       -3.204      856.380
02/03/2014  05:19:00      -64.422       17.157      -14.887       17.844       21.765       13.104      318.425      473.699      171.717        0.281        0.048       66.668        8.892        0.018      329.825       -3.193      856.370
02/03/2014  05:20:00      -78.866       -3.881       -9.760       22.914       24.693       12.810      525.041      609.721      164.106        0.381        0.065       78.961        8.584        0.012      329.814       -3.212      856.371
02/03/2014  05:21:00      -96.817        2.407      -12.789       39.197       31.397       18.991     1536.374      985.774      360.671        0.621        0.144       96.847       18.147        0.035      329.771       -3.279      856.384
02/03/2014  05:22:00      -96.578        6.269      -11.375       34.488       35.011       21.627     1189.413     1225.773      467.711        0.619        0.144       96.781       19.566        0.041      329.725       -3.356      856.381
02/03/2014  05:23:00     -119.640      -15.842      -10.629       25.979       31.047       19.437      674.923      963.909      377.785        0.835        0.101      120.685       16.021        0.018      329.756       -3.306      856.384
02/03/2014  05:24:00     -153.591       20.879      -13.967       29.308       27.495       19.850      858.942      755.958      394.026        1.311        0.100      155.004       15.975        0.011      329.724       -3.359      856.391
02/03/2014  05:25:00     -142.797       36.823       -6.133       43.343       27.749       18.578     1878.591      770.031      345.147        1.239        0.150      147.469       19.635        0.018      329.679       -3.432      856.389
02/03/2014  05:26:00     -133.514       35.767       -8.839       41.395       22.683       18.287     1713.567      514.524      334.406        1.087        0.128      138.222       18.208        0.017      329.687       -3.420      856.382
02/03/2014  05:27:00     -131.046       27.893      -13.829       25.729       27.986       16.710      661.963      783.204      279.221        0.993        0.086      133.981       12.859        0.009      329.683       -3.426      856.382
02/03/2014  05:28:00      -86.837        8.572      -12.055       24.509       23.646       12.030      600.699      559.111      144.709        0.453        0.065       87.259       10.752        0.015      329.734       -3.342      856.381
02/03/2014  05:29:00      -68.114       23.895      -14.354       16.071       23.862       15.578      258.284      569.393      242.671        0.324        0.054       72.184        9.833        0.019      329.809       -3.218      856.364
02/03/2014  05:30:00      -51.357       23.387       -4.419       22.866       16.522       12.559      522.848      272.984      157.729        0.208        0.048       56.432        6.129        0.012      329.893       -3.085      856.333
02/03/2014  05:31:00      -62.010       33.786      -11.900       25.969       25.982       13.826      674.381      675.061      191.160        0.333        0.077       70.617       10.996        0.024      330.015       -2.883      856.313
02/03/2014  05:32:00      -65.343       17.579       -7.790       29.914       21.163       16.378      894.856      447.890      268.234        0.312        0.081       67.666       18.273        0.073      329.930       -3.023      856.312
02/03/2014  05:33:00     -102.739      -19.147      -13.399       18.224       23.902       11.813      332.115      571.311      139.537        0.607        0.052      104.508       10.366        0.010      329.856       -3.143      856.325
02/03/2014  05:34:00     -100.741      -32.727       -3.959       26.743       22.959       19.933      715.188      527.115      397.313        0.644        0.082      105.923       17.559        0.027      329.724       -3.359      856.336
02/03/2014  05:35:00      -92.505      -22.048      -13.290       18.199       17.609       12.380      331.197      310.078      153.268        0.501        0.040       95.096        4.803        0.003      329.787       -3.256      856.331
02/03/2014  05:36:00      -37.736        0.857        2.007       16.179       14.833       11.416      261.772      220.011      130.336        0.102        0.031       37.746       11.391        0.091      329.790       -3.251      856.307
02/03/2014  05:37:00      -66.337       -4.154       -2.897       30.119       21.397       15.849      907.179      457.843      251.195        0.302        0.081       66.467       18.944        0.081      329.816       -3.209      856.291
02/03/2014  05:38:00     -130.065       -6.796      -11.254       30.156       14.373       17.537      909.386      206.593      307.539        0.926        0.071      130.243       19.014        0.021      329.811       -3.216      856.291
02/03/2014  05:39:00     -116.959      -22.288       -7.997       26.020       21.332       15.659      677.024      455.074      245.203        0.781        0.069      119.064       15.043        0.016      329.821       -3.200      856.299
02/03/2014  05:40:00      -88.052       -9.904       -1.534       37.285       16.563       14.686     1390.178      274.331      215.687        0.487        0.094       88.607       15.675        0.031      329.795       -3.243      856.305
02/03/2014  05:41:00      -96.237       -1.000      -13.219       20.540       17.851       15.215      421.891      318.652      231.500        0.520        0.049       96.242       11.782        0.015      329.744       -3.325      856.319
02/03/2014  05:42:00     -114.431        3.361      -11.852       32.473       25.350       19.595     1054.471      642.626      383.947        0.766        0.104      114.480        8.596        0.006      329.890       -3.088      856.336
02/03/2014  05:43:00     -102.741       -2.907      -11.126       24.140       23.509       16.720      582.753      552.681      279.575        0.605        0.071      102.782       14.283        0.019      329.865       -3.130      856.360
02/03/2014  05:44:00      -74.906      -13.098       -5.385       26.592       21.059       11.372      707.122      443.495      129.331        0.355        0.064       76.042        9.279        0.015      329.842       -3.166      856.383
02/03/2014  05:45:00      -98.832        0.304      -10.620       17.909       19.566       13.470      320.743      382.811      181.450        0.538        0.044       98.833        6.731        0.005      329.856       -3.143      856.399
02/03/2014  05:46:00     -117.804       18.760       -9.090       24.427       19.875        9.993      596.670      395.000       99.852        0.770        0.055      119.289        9.300        0.006      329.881       -3.101      856.409
02/03/2014  05:47:00     -103.374        5.964       -9.402       12.438       14.941        6.220      154.702      223.248       38.691        0.561        0.021      103.546        5.398        0.003      329.943       -3.001      856.422
02/03/2014  05:48:00      -97.808        7.148       -8.956       14.388       16.517       10.492      207.019      272.806      110.089        0.514        0.029       98.069        8.603        0.008      329.924       -3.031      856.435
02/03/2014  05:49:00      -90.052        4.103       -5.217       15.981       15.163       12.088      255.397      229.904      146.124        0.439        0.032       90.145       10.008        0.012      329.938       -3.009      856.456
02/03/2014  05:50:00      -89.408       -7.022      -11.801       15.968       16.119       11.445      254.985      259.830      130.988        0.441        0.032       89.683        7.578        0.007      329.944       -2.999      856.482
02/03/2014  05:51:00      -64.855      -35.416       -6.141       38.731       15.368       13.399     1500.063      236.168      179.526        0.371        0.096       73.895       10.894        0.022      329.982       -2.938      856.502
02/03/2014  05:52:00      -51.764      -37.851        1.183       31.904       16.024       16.169     1017.871      256.782      261.422        0.282        0.077       64.126       19.506        0.093      330.014       -2.885      856.507
02/03/2014  05:53:00      -26.470      -21.140        0.444       23.293       13.057       13.645      542.569      170.483      186.187        0.102        0.045       33.876       14.017        0.171      330.075       -2.785      856.517
02/03/2014  05:54:00      -65.403      -14.785       -3.398       24.691       15.271       10.595      609.666      233.218      112.259        0.273        0.048       67.053       10.226        0.023      330.022       -2.872      856.518
02/03/2014  05:55:00      -74.386        6.335       -5.918       23.522       19.219       12.418      553.298      369.356      154.213        0.334        0.054       74.655       10.417        0.019      329.935       -3.013      856.526
02/03/2014  05:56:00      -89.883       17.254      -11.620       17.874       14.784       10.493      319.476      218.569      110.111        0.458        0.032       91.524        8.780        0.009      330.007       -2.895      856.536
02/03/2014  05:57:00      -89.412       30.056       -0.017       27.179       18.012       17.951      738.710      324.418      322.234        0.514        0.069       94.329       13.258        0.020      330.162       -2.642      856.545
02/03/2014  05:58:00      -99.397       21.026       -6.689       18.479       18.630       12.416      341.461      347.090      154.161        0.560        0.042      101.597       10.013        0.010      330.047       -2.829      856.556
02/03/2014  05:59:00      -95.274       10.339      -14.241       24.058       21.507       12.239      578.800      462.532      149.786        0.529        0.060       95.834        8.479        0.008      329.950       -2.987      856.556
02/03/2014  06:00:00      -95.389      -15.515      -15.090       29.943       21.357       16.938      896.590      456.117      286.906        0.560        0.082       96.642       13.082        0.018      329.949       -2.990      856.552
02/03/2014  06:01:00      -95.316      -19.190       -9.272       19.748       18.228       11.793      389.988      332.255      139.074        0.520        0.043       97.228        7.737        0.006      330.007       -2.896      856.550
02/03/2014  06:02:00     -104.750      -25.095       -7.802       22.140       28.194       11.298      490.174      794.882      127.652        0.654        0.071      107.714       10.350        0.009      329.978       -2.943      856.540
02/03/2014  06:03:00     -118.728      -29.609      -20.814       24.236       39.184       14.290      587.377     1535.397      204.212        0.887        0.116      122.365       19.159        0.025      329.959       -2.974      856.535
02/03/2014  06:04:00      -90.036      -34.098       -3.767       25.697       36.093       14.077      660.316     1302.729      198.158        0.572        0.108       96.276        5.232        0.003      329.928       -3.025      856.533
02/03/2014  06:05:00      -82.362      -51.815       -0.847       24.482       26.233       16.877      599.355      688.167      284.842        0.552        0.079       97.305        9.128        0.009      329.894       -3.082      856.545
02/03/2014  06:06:00      -84.073      -40.045      -17.337       13.001       10.677        8.558      169.014      114.002       73.237        0.466        0.018       93.123        3.942        0.002      329.928       -3.026      856.551
02/03/2014  06:07:00      -75.534      -22.170       -9.590       13.277       12.630        9.104      176.285      159.507       82.885        0.335        0.021       78.721        4.651        0.003      329.961       -2.971      856.555
02/03/2014  06:08:00     -100.830       -0.559       -6.513       23.386       16.492       13.577      546.928      271.977      184.336        0.561        0.050      100.832       10.650        0.011      329.939       -3.006      856.554
02/03/2014  06:09:00     -105.130      -10.753      -11.167       19.080       14.944       11.786      364.028      223.337      138.900        0.601        0.036      105.678        7.564        0.005      329.906       -3.062      856.557
02/03/2014  06:10:00     -100.292      -20.644       -7.022       23.969       20.581       14.091      574.501      423.586      198.551        0.587        0.060      102.395       11.823        0.013      329.916       -3.045      856.559
02/03/2014  06:11:00      -94.345      -26.949       -7.192       22.926       22.064       13.540      525.609      486.831      183.331        0.544        0.060       98.118        8.591        0.008      329.902       -3.069      856.571
02/03/2014  06:12:00      -80.273      -66.569        0.225       43.960       28.284       19.063     1932.452      800.011      363.382        0.699        0.155      104.284       22.578        0.047      329.961       -2.972      856.589
02/03/2014  06:13:00     -103.639      -64.558      -10.228       22.427       22.783       21.801      502.962      519.063      475.286        0.826        0.075      122.101       14.588        0.014      330.004       -2.901      856.593
02/03/2014  06:14:00      -90.938      -48.077       -8.932       38.715       31.342       21.796     1498.888      982.339      475.065        0.681        0.148      102.865       26.126        0.065      330.004       -2.901      856.589
02/03/2014  06:15:00      -86.769      -18.366       -5.186       27.824       30.631       20.696      774.160      938.241      428.326        0.502        0.107       88.691       12.119        0.019      330.015       -2.882      856.584
02/03/2014  06:16:00     -126.302       13.819      -10.624       26.360       18.874       11.470      694.833      356.223      131.559        0.872        0.059      127.056       13.217        0.011      329.953       -2.984      856.577
02/03/2014  06:17:00     -135.350       12.969      -11.312       17.009       17.220       10.899      289.317      296.530      118.787        0.966        0.035      135.970        9.920        0.005      329.951       -2.988      856.590
02/03/2014  06:18:00      -95.576        1.708       -9.321       29.372       22.019       11.883      862.735      484.836      141.209        0.536        0.074       95.592        8.138        0.007      329.927       -3.028      856.598
02/03/2014  06:19:00     -128.336        2.252      -15.536       19.593       16.374       14.983      383.898      268.100      224.487        0.880        0.044      128.356        7.419        0.003      329.930       -3.022      856.594
02/03/2014  06:20:00      -94.158       12.863      -13.427       23.044       27.819       15.881      531.032      773.873      252.191        0.538        0.078       95.032       14.056        0.022      329.926       -3.028      856.593
02/03/2014  06:21:00      -99.653       25.371      -11.467       14.885       15.924       18.799      221.550      253.573      353.404        0.577        0.041      102.832       11.391        0.012      329.942       -3.001      856.587
02/03/2014  06:22:00     -114.818       24.210      -10.811       20.689       18.567       13.287      428.034      344.735      176.557        0.742        0.047      117.343        9.664        0.007      329.925       -3.032      856.578
02/03/2014  06:23:00      -86.130        9.463      -12.015       30.482       24.864       18.190      929.161      618.239      330.889        0.476        0.094       86.649       14.979        0.030      329.927       -3.027      856.591
02/03/2014  06:24:00     -122.333      -30.669      -14.201       40.042       30.516       18.361     1603.396      931.217      337.137        0.949        0.144      126.119       18.372        0.021      329.945       -2.999      856.608
02/03/2014  06:25:00     -109.035      -35.966       -4.995       46.708       44.930       22.863     2181.591     2018.670      522.715        0.896        0.236      114.814       20.026        0.030      329.936       -3.013      856.619
02/03/2014  06:26:00     -148.774       -5.552      -18.233       55.556       32.789       25.199     3086.433     1075.134      634.968        1.365        0.240      148.877       24.746        0.028      329.872       -3.119      856.614
02/03/2014  06:27:00     -112.475      -16.587       -2.896       37.011       28.179       23.426     1369.795      794.036      548.800        0.782        0.136      113.691       22.605        0.040      329.856       -3.143      856.587
02/03/2014  06:28:00     -134.808      -41.702      -18.519       30.433       36.395       12.531      926.170     1324.576      157.014        1.133        0.120      141.111       11.930        0.007      329.902       -3.067      856.565
02/03/2014  06:29:00     -109.988      -27.834      -10.745       18.900       25.429       16.505      357.204      646.632      272.412        0.713        0.064      113.455       12.659        0.012      329.886       -3.094      856.552
02/03/2014  06:30:00      -99.432      -27.849      -11.427       26.011       32.113       17.427      676.572     1031.235      303.715        0.640        0.101      103.259       11.913        0.013      329.953       -2.983      856.547
02/03/2014  06:31:00     -108.909      -27.418       -7.226       20.890       27.905       13.362      436.412      778.700      178.539        0.703        0.070      112.307        7.688        0.005      329.933       -3.016      856.552
02/03/2014  06:32:00      -96.532      -27.586       -8.069       35.435       26.944       15.871     1255.628      725.966      251.896        0.619        0.112      100.396       13.167        0.017      329.901       -3.069      856.554
02/03/2014  06:33:00     -101.042      -51.720      -12.858       39.409       31.626       22.472     1553.073     1000.235      504.978        0.805        0.153      113.510       19.954        0.031      329.940       -3.006      856.551
02/03/2014  06:34:00     -107.966      -39.601       -1.811       33.264       41.923       19.587     1106.490     1757.560      383.651        0.824        0.162      115.000       20.482        0.032      329.910       -3.056      856.550
02/03/2014  06:35:00     -104.821      -23.316      -12.090       34.968       37.631       12.841     1222.727     1416.058      164.901        0.724        0.140      107.383       11.486        0.011      329.942       -3.002      856.540
02/03/2014  06:36:00     -115.636      -18.387       -8.565       27.042       26.281       18.768      731.278      690.671      352.253        0.778        0.089      117.089       13.354        0.013      329.900       -3.072      856.535
02/03/2014  06:37:00      -81.925       -4.001       -5.986       37.173       22.633       17.006     1381.839      512.257      289.203        0.447        0.109       82.023       17.349        0.045      329.895       -3.081      856.551
02/03/2014  06:38:00      -81.959       33.715       -9.297       28.006       21.639       22.316      784.329      468.229      497.989        0.485        0.088       88.622       17.667        0.040      329.823       -3.197      856.572
02/03/2014  06:39:00      -61.137       30.565       -9.165       26.182       16.646       14.358      685.481      277.084      206.139        0.296        0.058       68.352       15.751        0.053      329.840       -3.171      856.584
02/03/2014  06:40:00      -72.317       37.878      -15.357       14.332       17.502       13.250      205.411      306.313      175.566        0.379        0.034       81.637        4.984        0.004      329.896       -3.078      856.592
02/03/2014  06:41:00      -75.669       35.508      -11.693       14.553       19.363       13.667      211.785      374.935      186.795        0.395        0.039       83.586        6.148        0.005      329.908       -3.058      856.590
02/03/2014  06:42:00      -55.887        5.168      -10.168       16.642       17.006       11.202      276.970      289.219      125.495        0.197        0.035       56.126       10.737        0.037      329.923       -3.034      856.588
02/03/2014  06:43:00      -50.158      -10.344        1.618       17.427       15.879       11.404      303.696      252.138      130.059        0.166        0.034       51.213        8.788        0.029      329.966       -2.962      856.596
02/03/2014  06:44:00      -47.871       20.970       -1.730       22.361       17.841       13.752      499.998      318.297      189.108        0.187        0.050       52.262       12.392        0.056      329.942       -3.002      856.610
02/03/2014  06:45:00      -87.683       11.239      -10.981        9.965       11.860        8.118       99.301      140.658       65.904        0.412        0.015       88.400        4.569        0.003      329.881       -3.104      856.623
02/03/2014  06:46:00      -72.553       -9.064       -5.100       20.512       16.459       15.286      420.725      270.905      233.671        0.315        0.046       73.117       14.587        0.040      329.895       -3.077      856.625
02/03/2014  06:47:00      -92.778       -8.601       -5.921       27.645       14.165       14.250      764.237      200.645      203.052        0.494        0.058       93.175       14.769        0.025      329.900       -3.070      856.641
02/03/2014  06:48:00      -92.203       -8.793       -8.928       20.448       22.111       16.903      418.111      488.894      285.721        0.493        0.060       92.622       11.541        0.016      329.878       -3.109      856.657
02/03/2014  06:49:00      -84.956       15.500       -8.822       24.579       15.812       12.060      604.108      250.006      145.455        0.427        0.050       86.358       12.576        0.021      329.883       -3.100      856.676
02/03/2014  06:50:00      -62.238        6.420       -5.736       20.996       15.421       11.609      440.839      237.821      134.763        0.238        0.041       62.569       12.433        0.039      329.899       -3.072      856.674
02/03/2014  06:51:00       14.423       -9.088       19.668       18.074       11.026        9.839      326.662      121.573       96.800        0.061        0.027       17.048       10.767        0.399      329.977       -2.945      856.667
02/03/2014  06:52:00       30.694       25.962       20.345       26.085       21.096       17.415      680.420      445.026      303.279        0.173        0.071       40.202       16.822        0.175      329.909       -3.058      856.639
02/03/2014  06:53:00       29.653       21.996       20.135       20.486       19.542       15.805      419.661      381.886      249.806        0.141        0.053       36.921        8.035        0.047      329.879       -3.107      856.619
02/03/2014  06:54:00       39.984       26.589        4.727       13.088       14.144       15.221      171.300      200.041      231.673        0.147        0.030       48.017        6.161        0.016      329.833       -3.181      856.611
02/03/2014  06:55:00       31.210       24.826        0.195       13.302       14.760       11.865      176.935      217.870      140.775        0.106        0.027       39.880       10.459        0.069      329.851       -3.152      856.618
02/03/2014  06:56:00       16.130       37.499       -2.498       15.194       15.520        9.703      230.849      240.879       94.156        0.112        0.028       40.821        4.241        0.011      329.822       -3.197      856.634
02/03/2014  06:57:00       33.387       27.039       -0.199       15.996       12.853        7.541      255.876      165.204       56.870        0.116        0.024       42.963        4.980        0.013      329.870       -3.120      856.649
02/03/2014  06:58:00       66.441       41.645      -14.467       35.525       21.060       18.676     1262.036      443.503      348.801        0.421        0.103       78.413       16.992        0.047      329.826       -3.193      856.659
02/03/2014  06:59:00       58.156       32.992        2.827       31.281       24.971       19.067      978.488      623.546      363.541        0.322        0.098       66.862       14.153        0.045      329.742       -3.328      856.665
02/03/2014  07:00:00       39.605       61.653        1.181       25.805       32.167       28.343      665.892     1034.746      803.333        0.394        0.125       73.278       24.517        0.112      329.770       -3.282      856.673
02/03/2014  07:01:00       22.547       84.804       -9.494       24.544       53.071       29.265      602.429     2816.534      856.459        0.603        0.214       87.750       33.509        0.146      329.729       -3.350      856.693
02/03/2014  07:02:00        4.690      117.860      -12.954       33.124       29.537       18.046     1097.216      872.408      325.673        0.819        0.115      117.953       15.497        0.017      329.763       -3.294      856.712
02/03/2014  07:03:00      -18.982      132.428       -8.775       23.795       32.520       19.636      566.209     1057.539      385.587        0.999        0.100      133.781       20.425        0.023      329.896       -3.077      856.740
02/03/2014  07:04:00      -32.307      143.694      -21.285       36.471       38.259       20.794     1330.168     1463.779      432.406        1.269        0.161      147.281       16.040        0.012      329.899       -3.073      856.771
02/03/2014  07:05:00      -10.633      168.047      -16.244       31.787       41.880       21.382     1010.431     1753.945      457.196        1.592        0.161      168.383       20.361        0.015      329.851       -3.151      856.795
02/03/2014  07:06:00       -5.529      103.229      -17.419       27.642       40.907       22.778      764.055     1673.415      518.850        0.697        0.148      103.377       15.093        0.021      329.879       -3.105      856.800
02/03/2014  07:07:00        5.598       78.428       -4.345       29.796       39.566       20.896      887.788     1565.443      436.629        0.455        0.144       78.628       21.356        0.074      329.853       -3.147      856.800
02/03/2014  07:08:00       -2.960      129.212      -13.675       23.405       34.226       19.311      547.780     1171.445      372.932        0.949        0.105      129.246       19.998        0.024      329.814       -3.210      856.800
02/03/2014  07:09:00      -56.443       50.827      -10.858       27.762       46.450       16.189      770.720     2157.614      262.079        0.454        0.160       75.955       18.549        0.060      329.933       -3.017      856.809
02/03/2014  07:10:00      -43.619       57.789      -10.436       21.293       27.744       15.958      453.400      769.726      254.653        0.341        0.074       72.403       14.694        0.041      329.871       -3.120      856.816
02/03/2014  07:11:00       -6.967       62.006       -6.185       26.282       22.153       15.172      690.719      490.741      230.199        0.267        0.071       62.396        6.652        0.011      329.905       -3.064      856.820
02/03/2014  07:12:00      -17.599       37.624       -0.931       25.533       31.535       19.728      651.933      994.433      389.211        0.188        0.102       41.536       17.346        0.174      329.940       -3.005      856.818
02/03/2014  07:13:00       -4.947       31.616        8.729       22.034       29.808       17.066      485.499      888.508      291.236        0.138        0.083       32.001        9.315        0.085      329.973       -2.951      856.807
02/03/2014  07:14:00       11.860       24.273        4.745        9.405       10.197        8.959       88.450      103.986       80.262        0.051        0.014       27.016        3.750        0.019      329.894       -3.082      856.786
02/03/2014  07:15:00       -4.439       26.641        3.206        7.483       11.457        9.416       55.999      131.268       88.670        0.051        0.014       27.008        5.056        0.035      329.887       -3.095      856.775
02/03/2014  07:16:00      -23.974       22.165       -0.344       17.183       17.560       11.778      295.240      308.340      138.731        0.090        0.037       32.650       10.776        0.109      329.862       -3.134      856.787
02/03/2014  07:17:00      -28.767       22.976       -1.953        8.612       11.068       10.061       74.163      122.504      101.218        0.083        0.015       36.817        4.969        0.018      329.888       -3.091      856.798
02/03/2014  07:18:00      -29.321       31.988       -5.391       12.685       13.161        8.347      160.907      173.223       69.667        0.116        0.020       43.393        3.440        0.006      329.814       -3.212      856.818
02/03/2014  07:19:00        5.873       31.765        4.357       19.656       16.645       14.615      386.371      277.045      213.587        0.097        0.044       32.303       11.934        0.136      329.828       -3.189      856.833
02/03/2014  07:20:00       27.798       24.971       -7.765        9.641       10.095        9.309       92.950      101.904       86.660        0.087        0.014       37.367        7.577        0.041      329.812       -3.213      856.851
02/03/2014  07:21:00        7.832       26.336       -4.887        8.793        8.259        5.088       77.319       68.210       25.883        0.048        0.009       27.476        3.220        0.014      329.807       -3.224      856.875
02/03/2014  07:22:00      -21.863       16.504       -0.486       16.655        7.919        9.753      277.390       62.713       95.115        0.059        0.022       27.392        7.727        0.080      329.812       -3.217      856.906
02/03/2014  07:23:00      -40.220       11.735        0.060       22.351       15.973       11.955      499.557      255.132      142.915        0.133        0.045       41.897       12.191        0.085      329.904       -3.065      856.946
02/03/2014  07:24:00      -65.921       -8.093        4.860       47.885       36.626       20.040     2292.954     1341.494      401.607        0.423        0.202       66.416       21.581        0.106      329.879       -3.104      856.971
02/03/2014  07:25:00      -92.546       25.842       -7.284       39.044       34.597       23.274     1524.455     1196.936      541.690        0.627        0.163       96.086       21.164        0.049      329.925       -3.031      856.984
02/03/2014  07:26:00      -92.095        5.208      -15.685       31.525       26.497       18.484      993.829      702.085      341.645        0.540        0.102       92.242       15.768        0.029      329.877       -3.109      857.003
02/03/2014  07:27:00     -141.611      -58.815      -18.985       36.332       36.094       25.388     1320.048     1302.755      644.541        1.357        0.163      153.339       22.485        0.022      329.916       -3.045      857.010
02/03/2014  07:28:00     -141.129      -26.815      -17.360       25.159       21.972       24.444      632.955      482.788      597.516        1.133        0.086      143.654       17.967        0.016      329.816       -3.208      857.010
02/03/2014  07:29:00      -67.348      -19.690       -6.876       46.032       19.069       18.900     2118.943      363.645      357.204        0.390        0.142       70.167       15.461        0.049      329.934       -3.015      857.009
02/03/2014  07:30:00     -109.149      -10.523       -3.872       35.280       29.552       17.477     1244.685      873.340      305.451        0.723        0.121      109.655        4.357        0.002      329.893       -3.083      857.001
02/03/2014  07:31:00     -101.629      -19.244       -7.921       26.950       30.483       16.091      726.315      929.227      258.915        0.634        0.096      103.435       12.932        0.016      329.835       -3.178      856.998
02/03/2014  07:32:00      -60.530       20.457       -9.300       27.370       10.340       13.437      749.115      106.919      180.556        0.260        0.052       63.893        6.597        0.011      329.742       -3.327      856.997
02/03/2014  07:33:00      -24.076       44.593      -16.910       20.360       20.899       21.197      414.512      436.749      449.331        0.208        0.065       50.677       14.238        0.079      329.787       -3.253      856.993
02/03/2014  07:34:00      -11.043       20.735       -9.810       16.027       17.554        9.479      256.863      308.143       89.859        0.065        0.033       23.492        4.804        0.042      329.822       -3.200      856.995
02/03/2014  07:35:00       24.772       47.207       -6.088       18.371       35.029       15.026      337.499     1227.002      225.766        0.233        0.090       53.311       15.719        0.087      329.901       -3.070      856.994
02/03/2014  07:36:00       69.353       44.198        9.430       36.334       25.325       23.923     1320.137      641.351      572.325        0.469        0.127       82.240       15.724        0.037      329.902       -3.070      856.992
02/03/2014  07:37:00      133.771       62.060        5.625       34.682       30.792       27.039     1202.810      948.152      731.089        1.233        0.144      147.466       17.888        0.015      329.811       -3.217      856.985
02/03/2014  07:38:00       90.309       59.064       11.103       23.937       24.617       18.718      572.978      605.982      350.365        0.665        0.076      107.909       10.563        0.010      329.779       -3.269      856.996
02/03/2014  07:39:00       56.253       49.977       18.061       12.193       17.657       14.128      148.677      311.768      199.592        0.332        0.033       75.247        7.991        0.011      329.741       -3.330      857.017
02/03/2014  07:40:00       46.432       41.759       12.496       15.930       11.520       17.000      253.767      132.704      288.996        0.237        0.034       62.449        8.290        0.018      329.764       -3.291      857.034
02/03/2014  07:41:00       32.698       49.580      -15.096       13.662       26.139        9.661      186.645      683.263       93.326        0.236        0.048       59.391        7.629        0.016      329.769       -3.285      857.036
02/03/2014  07:42:00       54.389       26.241       13.706       23.778       21.531       23.295      565.382      463.587      542.678        0.270        0.079       60.388       15.024        0.062      329.903       -3.067      857.013
02/03/2014  07:43:00       42.610       31.395        0.455       28.241       30.114       24.084      797.532      906.825      580.049        0.254        0.114       52.926       13.351        0.064      329.978       -2.941      856.997
02/03/2014  07:44:00       -2.440       10.269       29.239       11.086       14.010       11.038      122.890      196.283      121.842        0.070        0.022       10.555        7.992        0.573      330.125       -2.704      857.011
02/03/2014  07:45:00      -33.844       25.708        5.040       24.449       13.418       16.436      597.761      180.037      270.142        0.144        0.052       42.500       17.936        0.178      329.927       -3.026      857.035
02/03/2014  07:46:00      -81.949       12.229       -6.562       19.925       17.085       12.344      396.995      291.904      152.379        0.387        0.042       82.856        7.295        0.008      329.933       -3.018      857.048
02/03/2014  07:47:00      -80.229      -27.481       -6.329       25.633       19.570       11.710      657.057      382.968      137.132        0.420        0.059       84.805        9.480        0.012      330.001       -2.906      857.040
02/03/2014  07:48:00      -24.339      -32.693        8.268       26.855       15.736       15.908      721.177      247.624      253.053        0.148        0.061       40.758       16.848        0.171      330.092       -2.756      857.041
02/03/2014  07:49:00      -22.200      -45.803        7.321       23.786       20.829       14.646      565.762      433.850      214.495        0.193        0.061       50.900        9.760        0.037      330.131       -2.694      857.025
02/03/2014  07:50:00      -43.470       -9.045        4.020       32.716       22.289       16.447     1070.368      496.796      270.510        0.191        0.092       44.401       16.332        0.135      330.142       -2.674      857.006
02/03/2014  07:51:00      -42.022      -13.258       -0.634       21.464       19.110       14.733      460.686      365.192      217.063        0.149        0.052       44.064       12.511        0.081      330.058       -2.812      857.002
02/03/2014  07:52:00      -27.117       18.731        8.428       13.341       11.921        8.673      177.983      142.102       75.222        0.078        0.020       32.958        4.754        0.021      330.076       -2.782      856.993
02/03/2014  07:53:00      -26.198       21.088        4.884       14.006       13.136       12.873      196.160      172.552      165.713        0.084        0.027       33.631       10.078        0.090      330.117       -2.716      856.978
02/03/2014  07:54:00      -24.987       24.317        0.918       10.987       10.090       12.277      120.722      101.801      150.717        0.079        0.019       34.867        6.605        0.036      330.092       -2.757      856.969
02/03/2014  07:55:00        3.167        9.478       26.546       19.095       10.439       14.136      364.620      108.975      199.826        0.074        0.034        9.993       13.149        1.732      330.249       -2.499      856.977
02/03/2014  07:56:00       -4.923        8.247        5.192       14.930       13.563        8.671      222.894      183.966       75.178        0.030        0.024        9.605        7.135        0.552      330.157       -2.650      856.979
02/03/2014  07:57:00       14.142       26.893       -5.556       13.959       13.672       11.967      194.846      186.933      143.204        0.074        0.026       30.385        8.700        0.082      330.054       -2.820      856.971
02/03/2014  07:58:00        4.628       16.703      -10.481        6.214        8.585        7.366       38.611       73.698       54.263        0.029        0.008       17.332        5.101        0.087      330.119       -2.713      856.980
02/03/2014  07:59:00        3.064       14.803       -0.273        5.150        8.382       10.633       26.522       70.256      113.071        0.022        0.010       15.117        6.909        0.209      330.179       -2.614      856.980
02/03/2014  08:00:00       26.291       14.000        4.055       12.369        7.440       11.542      152.992       55.351      133.217        0.062        0.017       29.786        6.928        0.054      330.126       -2.702      856.979
02/03/2014  08:01:00       14.527       15.747       -0.146       10.150        9.922        9.431      103.020       98.449       88.940        0.037        0.015       21.424        7.427        0.120      330.167       -2.635      856.984
02/03/2014  08:02:00       11.674       26.266       21.056       18.235       26.419       18.329      332.522      697.972      335.938        0.132        0.068       28.743       10.352        0.130      330.322       -2.380      856.986
02/03/2014  08:03:00       63.666       39.608       11.683       14.468       15.009       16.090      209.323      225.279      258.872        0.323        0.035       74.981        7.882        0.011      330.105       -2.736      857.007
02/03/2014  08:04:00       51.081       31.017       -2.102       21.835       20.843       17.546      476.766      434.445      307.879        0.240        0.061       59.761       12.448        0.043      330.104       -2.736      857.024
02/03/2014  08:05:00       42.962       29.570        1.968       19.752       19.973       16.753      390.145      398.921      280.656        0.190        0.053       52.155       10.569        0.041      330.117       -2.718      857.023
02/03/2014  08:06:00       36.032       36.385       24.843       35.405       24.415       21.819     1253.479      596.093      476.076        0.278        0.116       51.207       15.820        0.095      330.216       -2.554      857.012
02/03/2014  08:07:00       38.798       51.448       37.321       30.674       21.880       17.564      940.866      478.745      308.502        0.364        0.086       64.438       13.835        0.046      330.220       -2.547      856.973
02/03/2014  08:08:00       18.288       57.748       73.174       37.438       36.030       26.959     1401.603     1298.179      726.774        0.622        0.171       60.575       27.397        0.205      330.182       -2.608      856.941
02/03/2014  08:09:00       79.795       63.860       44.074       43.052       28.832       26.611     1853.436      831.296      708.149        0.789        0.170      102.203       26.637        0.068      330.096       -2.750      856.936
02/03/2014  08:10:00      108.717       56.189       24.252       22.716       17.364       22.424      516.035      301.492      502.844        0.844        0.066      122.378       17.111        0.020      330.005       -2.899      856.935
02/03/2014  08:11:00       97.651       64.600       14.058       32.784       29.113       23.111     1074.766      847.563      534.117        0.818        0.123      117.085       16.830        0.021      330.052       -2.822      856.944
02/03/2014  08:12:00       92.812       63.862       21.292       41.945       31.010       29.668     1759.370      961.649      880.205        0.837        0.180      112.660       23.382        0.043      330.126       -2.700      856.942
02/03/2014  08:13:00       71.508       63.321       23.965       39.400       34.242       32.224     1552.333     1172.530     1038.357        0.673        0.188       95.514        8.704        0.008      330.145       -2.670      856.943
02/03/2014  08:14:00       56.052       45.437       62.751       48.339       46.022       33.300     2336.626     2118.016     1108.894        0.735        0.278       72.155       37.528        0.271      330.185       -2.605      856.947
02/03/2014  08:15:00       41.108       72.118       62.557       38.969       31.342       24.844     1518.577      982.342      617.224        0.696        0.156       83.011        8.133        0.010      330.135       -2.685      856.945
02/03/2014  08:16:00       97.114       59.957       17.042       37.741       32.308       27.401     1424.407     1043.810      750.829        0.827        0.161      114.131       19.517        0.029      330.044       -2.837      856.961
02/03/2014  08:17:00       95.732       75.005       28.011       40.882       29.269       33.662     1671.332      856.697     1133.146        0.962        0.183      121.616       20.328        0.028      329.966       -2.964      856.979
02/03/2014  08:18:00       68.167       43.156       15.855       30.882       29.294       25.356      953.727      858.158      642.905        0.461        0.123       80.680       16.116        0.040      330.020       -2.876      856.988
02/03/2014  08:19:00       64.225       36.321        6.906       33.746       24.629       19.512     1138.817      606.569      380.718        0.381        0.106       73.784       14.070        0.036      330.044       -2.836      856.984
02/03/2014  08:20:00       42.485       18.239       29.987       24.574       27.099       23.054      603.861      734.348      531.506        0.245        0.093       46.235       17.139        0.137      330.171       -2.628      856.985
02/03/2014  08:21:00       51.873       36.686       33.161       29.632       23.246       25.215      878.048      540.370      635.811        0.359        0.103       63.534       16.602        0.068      330.212       -2.559      856.977
02/03/2014  08:22:00        8.312       19.078       38.245       21.233       24.727       19.724      450.837      611.420      389.021        0.167        0.073       20.810        8.272        0.158      330.365       -2.310      856.978
02/03/2014  08:23:00      -66.104       -5.426       11.099       32.252       35.827       20.368     1040.178     1283.609      414.835        0.363        0.137       66.326       20.062        0.091      330.338       -2.353      856.984
02/03/2014  08:24:00      -83.390       18.530       -6.769       45.470       20.132       21.070     2067.563      405.285      443.964        0.513        0.146       85.424       23.443        0.075      330.233       -2.526      856.982
02/03/2014  08:25:00      -48.137      -19.669        1.076       27.338       30.859       13.668      747.374      952.248      186.821        0.230        0.094       52.001       13.488        0.067      330.316       -2.389      856.966
02/03/2014  08:26:00      -45.906      -37.773       -3.310       31.080       19.008       14.085      965.963      361.291      198.393        0.254        0.076       59.449       13.026        0.048      330.373       -2.296      856.953
02/03/2014  08:27:00      -81.846      -88.517      -11.230       30.824       30.605       17.466      950.134      936.684      305.064        0.843        0.110      120.557       17.960        0.022      330.247       -2.502      856.948
02/03/2014  08:28:00      -83.399      -34.534       -4.731       32.863       27.897       16.913     1079.970      778.216      286.066        0.516        0.107       90.266       15.946        0.031      330.257       -2.485      856.939
02/03/2014  08:29:00      -61.266      -27.998       -5.745       27.978       20.570       15.028      782.774      423.120      225.841        0.300        0.072       67.360        9.276        0.019      330.307       -2.403      856.940
02/03/2014  08:30:00      -74.375       -0.882        2.797       34.990       37.258       21.540     1224.316     1388.168      463.969        0.431        0.154       74.380       19.363        0.068      330.356       -2.323      856.957
02/03/2014  08:31:00      -30.682      -24.062        1.930       19.073       17.401       14.219      363.768      302.778      202.172        0.120        0.043       38.992        6.359        0.027      330.455       -2.162      856.965
02/03/2014  08:32:00      -31.224      -40.464        0.297       17.573       23.064       19.067      308.810      531.968      363.563        0.191        0.060       51.110       16.218        0.101      330.488       -2.107      856.953
02/03/2014  08:33:00       -4.904        8.987       14.983       10.463       13.016       11.921      109.478      169.422      142.101        0.038        0.021       10.238        7.603        0.551      330.783       -1.623      856.935
02/03/2014  08:34:00      -47.488        0.605       -3.624       20.813       22.427       19.412      433.169      502.963      376.828        0.179        0.066       47.492        8.364        0.031      330.536       -2.027      856.909
02/03/2014  08:35:00       -5.478      -36.213       19.405       28.634       24.709       20.757      819.880      610.518      430.867        0.179        0.093       36.625       17.316        0.224      330.680       -1.792      856.915
02/03/2014  08:36:00       20.339        5.588        9.514       20.720       33.245       11.667      429.301     1105.234      136.110        0.110        0.084       21.093       10.921        0.268      330.660       -1.824      856.953
02/03/2014  08:37:00       52.137       40.430       14.172       16.513       18.073       20.330      272.673      326.648      413.327        0.278        0.051       65.976       10.671        0.026      330.431       -2.200      856.989
02/03/2014  08:38:00       92.329       52.680        1.014       29.492       27.931       21.444      869.776      780.131      459.844        0.670        0.105      106.300       16.917        0.025      330.318       -2.387      857.014
02/03/2014  08:39:00      107.567       65.510       -5.254       43.703       23.244       18.894     1909.992      540.302      356.979        0.935        0.140      125.945        9.620        0.006      330.308       -2.401      857.027
02/03/2014  08:40:00       96.552       79.669       10.248       27.714       22.268       26.535      768.050      495.868      704.113        0.887        0.098      125.178       18.429        0.022      330.284       -2.441      857.026
02/03/2014  08:41:00      102.577       62.802       17.459       28.122       23.236       32.952      790.859      539.925     1085.826        0.859        0.121      120.275        8.979        0.006      330.323       -2.377      857.035
02/03/2014  08:42:00       95.829       47.729        3.460       31.858       23.048       26.856     1014.929      531.226      721.240        0.687        0.113      107.057       14.819        0.019      330.314       -2.392      857.036
02/03/2014  08:43:00      101.411       71.125        3.949       27.304       29.191       26.192      745.492      852.142      686.028        0.882        0.114      123.867       14.605        0.014      330.272       -2.462      857.026
02/03/2014  08:44:00       85.284       60.830        7.278       32.961       22.145       24.102     1086.445      490.390      580.923        0.659        0.108      104.755       18.426        0.031      330.295       -2.426      857.032
02/03/2014  08:45:00       53.704       45.357       -0.757       26.251       16.840       11.872      689.120      283.602      140.941        0.303        0.056       70.295       10.199        0.021      330.282       -2.445      857.026
02/03/2014  08:46:00       51.750       24.709       30.138       24.232       29.913       17.570      587.173      894.794      308.721        0.299        0.090       57.346       13.445        0.055      330.471       -2.134      857.022
02/03/2014  08:47:00       34.630       58.637       70.463       27.784       31.444       18.577      771.976      988.721      345.099        0.585        0.105       68.100       17.606        0.067      330.503       -2.082      857.030
02/03/2014  08:48:00       85.803       24.831       22.509       34.886       26.350       22.820     1217.000      694.331      520.750        0.546        0.122       89.324       14.484        0.026      330.340       -2.349      857.042
02/03/2014  08:49:00      121.350       51.394       17.840       28.798       24.637       28.019      829.352      606.988      785.056        0.995        0.111      131.785        6.631        0.003      330.399       -2.252      857.058
02/03/2014  08:50:00       92.746       61.095       21.906       37.699       24.923       31.554     1421.212      621.167      995.683        0.793        0.152      111.061       22.278        0.040      330.453       -2.165      857.075
02/03/2014  08:51:00       81.371       53.440       30.879       39.413       39.400       33.074     1553.364     1552.340     1093.858        0.731        0.210       97.351       10.546        0.012      330.497       -2.093      857.105
02/03/2014  08:52:00       16.209       45.228       47.638       31.483       22.548       21.180      991.176      508.419      448.611        0.326        0.097       48.045       15.423        0.103      330.676       -1.800      857.136
02/03/2014  08:53:00       37.608       56.018        4.282       25.231       31.497       26.796      636.588      992.079      718.041        0.346        0.117       67.471       21.612        0.103      330.561       -1.987      857.146
02/03/2014  08:54:00       69.536       56.503       21.075       45.199       27.376       23.883     2042.955      749.448      570.394        0.592        0.168       89.599       20.735        0.054      330.589       -1.942      857.163
02/03/2014  08:55:00        0.842       60.577       67.660       21.101       37.756       21.364      445.269     1425.523      456.411        0.529        0.116       60.583       15.090        0.062      330.720       -1.726      857.150
02/03/2014  08:56:00       10.775       66.956       83.643       33.177       31.634       23.356     1100.681     1000.693      545.512        0.712        0.132       67.818       18.166        0.072      330.753       -1.672      857.154
02/03/2014  08:57:00       57.175       61.969       64.802       37.130       42.596       30.592     1378.644     1814.456      935.887        0.772        0.206       84.316       30.587        0.132      330.586       -1.946      857.144
02/03/2014  08:58:00       62.917       14.073       40.466       40.878       34.634       26.384     1670.971     1199.480      696.114        0.468        0.178       64.472       23.110        0.128      330.544       -2.016      857.152
02/03/2014  08:59:00       48.445       65.820       65.923       39.272       30.116       27.011     1542.307      906.978      729.589        0.710        0.159       81.726       19.126        0.055      330.611       -1.904      857.149
02/03/2014  09:00:00       77.511       53.997       24.478       25.305       23.430       20.308      640.321      548.959      412.400        0.556        0.080       94.465       18.604        0.039      330.429       -2.204      857.162
02/03/2014  09:01:00       74.851       38.080       42.593       53.580       33.282       26.469     2870.785     1107.689      700.625        0.677        0.234       83.981       22.610        0.072      330.617       -1.896      857.163
02/03/2014  09:02:00       27.293       93.415       91.286       42.687       38.909       40.136     1822.221     1513.948     1610.891        1.137        0.247       97.321       40.379        0.172      330.626       -1.880      857.140
02/03/2014  09:03:00       87.717       95.153       57.875       58.817       33.510       57.580     3459.464     1122.939     3315.450        1.400        0.395      129.415       51.638        0.159      330.548       -2.009      857.131
02/03/2014  09:04:00       73.647       63.990       54.472       36.028       24.496       29.362     1298.034      600.065      862.142        0.762        0.138       97.563       17.995        0.034      330.504       -2.080      857.133
02/03/2014  09:05:00       51.997       32.671       33.442       43.664       31.504       30.957     1906.554      992.484      958.357        0.437        0.193       61.410       27.411        0.199      330.714       -1.736      857.133
02/03/2014  09:06:00       40.925       96.432       99.910       34.676       48.697       27.815     1202.417     2371.370      773.670        1.265        0.217      104.757       24.654        0.055      330.776       -1.633      857.136
02/03/2014  09:07:00      103.027      121.304       97.889       48.042       31.878       41.331     2308.080     1016.210     1708.230        1.997        0.252      159.152       26.772        0.028      330.534       -2.032      857.131
02/03/2014  09:08:00       45.384       89.887       99.981       44.466       44.838       23.167     1977.226     2010.488      536.728        1.233        0.226      100.695       18.600        0.034      330.684       -1.786      857.136
02/03/2014  09:09:00      135.643      104.915       26.601       37.720       31.052       42.950     1422.825      964.245     1844.706        1.717        0.212      171.482       25.059        0.021      330.447       -2.174      857.157
02/03/2014  09:10:00       95.949       26.549       19.704       42.515       52.960       26.681     1807.552     2804.747      711.894        0.781        0.266       99.554       16.937        0.029      330.653       -1.836      857.177
02/03/2014  09:11:00       79.627       63.218       21.909       22.245       30.303       28.358      494.861      918.245      804.192        0.652        0.111      101.671       12.879        0.016      330.771       -1.643      857.204
02/03/2014  09:12:00       30.785       37.037       48.246       30.464       25.356       22.946      928.049      642.917      526.539        0.337        0.105       48.161       19.228        0.159      330.966       -1.323      857.205
02/03/2014  09:13:00       79.347       34.026       19.916       42.991       31.475       32.344     1848.252      990.664     1046.134        0.587        0.194       86.335       24.050        0.078      330.852       -1.510      857.218
02/03/2014  09:14:00      111.141       73.633       26.540       40.094       26.187       43.482     1607.533      685.777     1890.654        1.133        0.209      133.320       29.246        0.048      330.723       -1.723      857.204
02/03/2014  09:15:00       35.097       39.912       71.030       38.372       41.944       27.429     1472.403     1759.291      752.376        0.593        0.199       53.149       24.507        0.213      330.957       -1.336      857.198
02/03/2014  09:16:00       89.990      -70.893       10.739       58.870       54.307       39.744     3465.619     2949.284     1579.571        1.062        0.400      114.560       33.058        0.083      330.750       -1.679      857.204
02/03/2014  09:17:00       86.539      -52.019       12.966       64.899       84.347       52.555     4211.916     7114.371     2762.034        1.222        0.704      100.971       64.098        0.403      330.670       -1.810      857.222
02/03/2014  09:18:00       56.903       38.265       27.007       32.176       31.584       38.743     1035.321      997.544     1500.987        0.448        0.177       68.572       21.015        0.094      330.642       -1.854      857.240
02/03/2014  09:19:00       31.177       17.792       28.978       46.767       45.118       38.422     2187.137     2035.644     1476.271        0.391        0.285       35.897       26.173        0.532      330.821       -1.562      857.225
02/03/2014  09:20:00       15.864       23.670       48.728       45.175       38.353       36.814     2040.813     1470.964     1355.251        0.403        0.243       28.494       33.974        1.422      330.933       -1.377      857.240
02/03/2014  09:21:00       29.812       -3.015       32.733       38.776       48.018       20.173     1503.602     2305.683      406.936        0.309        0.211       29.964       17.536        0.343      330.878       -1.468      857.262
02/03/2014  09:22:00       14.771       19.151        4.465       30.977       37.549       22.765      959.554     1409.939      518.242        0.175        0.144       24.186       15.741        0.424      330.665       -1.816      857.276
02/03/2014  09:23:00       34.008       20.845       -0.500       18.277       15.762       18.221      334.059      248.434      332.010        0.125        0.046       39.888       10.359        0.067      330.677       -1.797      857.275
02/03/2014  09:24:00       43.322       49.962       -5.262       16.133       23.882       17.635      260.265      570.352      310.987        0.277        0.057       66.129       11.884        0.032      330.626       -1.880      857.271
02/03/2014  09:25:00       33.954       37.367        1.519       23.228       19.851       22.678      539.531      394.080      514.273        0.200        0.072       50.489       13.273        0.069      330.791       -1.610      857.274
02/03/2014  09:26:00       25.770       27.069        1.386       24.342       19.517       14.913      592.519      380.919      222.401        0.130        0.060       37.374        8.256        0.049      330.804       -1.589      857.275
02/03/2014  09:27:00       57.182       35.831       -4.118       31.657       16.644       17.257     1002.141      277.021      297.798        0.307        0.079       67.481        7.067        0.011      330.770       -1.645      857.272
02/03/2014  09:28:00       49.958       38.649       29.095       31.668       23.960       38.192     1002.860      574.070     1458.642        0.394        0.152       63.163       21.203        0.113      330.981       -1.298      857.259
02/03/2014  09:29:00       14.384       30.572       21.442       23.214       21.900       22.293      538.898      479.621      496.993        0.156        0.076       33.786        6.384        0.036      331.069       -1.154      857.283
02/03/2014  09:30:00       27.019       21.405       21.927       29.916       30.210       25.906      894.953      912.615      671.116        0.207        0.124       34.470       19.261        0.312      331.174       -0.980      857.302
02/03/2014  09:31:00      -19.537       -0.739       60.921       28.550       62.486       37.633      815.109     3904.561     1416.217        0.511        0.307       19.551       39.569        4.096      331.280       -0.808      857.322
02/03/2014  09:32:00        0.018        4.913       39.236       22.427       34.572       21.293      502.980     1195.217      453.379        0.186        0.108        4.913       11.026        5.037      331.286       -0.797      857.339
02/03/2014  09:33:00        5.060       47.113       64.382       33.925       34.384       28.002     1150.925     1182.259      784.138        0.475        0.156       47.384       23.116        0.238      331.135       -1.046      857.357
02/03/2014  09:34:00       88.383       48.942       15.612       33.162       27.019       32.417     1099.697      730.049     1050.871        0.667        0.144      101.029       22.046        0.048      330.861       -1.496      857.372
02/03/2014  09:35:00       43.925       68.953       -5.912       30.256       43.615       24.353      915.444     1902.304      593.046        0.506        0.171       81.755       25.234        0.095      330.896       -1.437      857.368
02/03/2014  09:36:00       84.319       67.277       -9.457       56.082       37.266       35.601     3145.184     1388.785     1267.404        0.876        0.290      107.869       21.474        0.040      330.892       -1.443      857.355
02/03/2014  09:37:00       48.644       91.647       -3.799       29.598       39.839       30.807      876.071     1587.109      949.096        0.710        0.171      103.757       28.247        0.074      330.936       -1.372      857.334
02/03/2014  09:38:00       25.368       75.381       -4.905       27.050       37.580       27.079      731.715     1412.267      733.264        0.461        0.144       79.535       24.031        0.091      330.881       -1.462      857.308
02/03/2014  09:39:00       -2.362       71.968       -2.720       20.737       17.710       20.116      430.018      313.635      404.663        0.317        0.057       72.007        8.119        0.013      330.955       -1.341      857.294
02/03/2014  09:40:00       17.136       29.626       -6.883       19.031       22.258       18.485      362.174      495.424      341.687        0.121        0.060       34.225       13.259        0.150      331.041       -1.199      857.280
02/03/2014  09:41:00       26.682       24.168       27.516       37.878       23.289       25.993     1434.735      542.382      675.638        0.235        0.133       36.000       17.603        0.239      331.168       -0.989      857.280
02/03/2014  09:42:00       29.865      -18.051       -5.547       23.783       24.343       15.987      565.643      592.586      255.593        0.133        0.071       34.896        8.665        0.062      331.118       -1.073      857.276
02/03/2014  09:43:00       -6.589       16.165        4.147       21.518       22.613       17.562      463.043      511.356      308.411        0.080        0.064       17.456       14.832        0.722      331.559       -0.347      857.299
02/03/2014  09:44:00       24.002       23.990       14.559       31.905       21.575       24.949     1017.952      465.494      622.462        0.173        0.105       33.935       11.711        0.119      331.595       -0.287      857.310
02/03/2014  09:45:00       26.444       40.703       37.163       26.810       26.404       20.501      718.762      697.167      420.284        0.279        0.092       48.539       17.177        0.125      331.606       -0.270      857.320
02/03/2014  09:46:00       37.193       50.009      -10.236       36.480       39.545       24.090     1330.771     1563.810      580.334        0.373        0.174       62.323       17.524        0.079      331.496       -0.451      857.313
02/03/2014  09:47:00       52.176       66.328        0.177       40.470       36.697       25.771     1637.787     1346.661      664.156        0.538        0.182       84.390       13.193        0.024      331.686       -0.137      857.311
02/03/2014  09:48:00      106.877       62.918        8.273       35.962       38.738       31.623     1293.230     1500.613     1000.041        0.962        0.190      124.022       22.209        0.032      331.381       -0.640      857.320
02/03/2014  09:49:00       49.102       32.982       51.841       53.238       47.956       38.759     2834.263     2299.764     1502.248        0.641        0.332       59.151       29.163        0.243      331.628       -0.235      857.334
02/03/2014  09:50:00       36.006       69.688       93.473       59.753       52.158       41.935     3570.456     2720.425     1758.561        1.147        0.402       78.440       41.103        0.275      331.401       -0.608      857.341
02/03/2014  09:51:00       53.567       73.250       94.355       85.222       84.118       70.631     7262.874     7075.819     4988.746        1.823        0.966       90.747       63.034        0.482      331.325       -0.733      857.335
02/03/2014  09:52:00      126.216      113.343       79.906       58.002       38.368       50.919     3364.223     1472.086     2592.779        2.129        0.371      169.638       44.668        0.069      331.059       -1.170      857.340
02/03/2014  09:53:00       27.182       -3.321       52.857       49.788       95.786       51.894     2478.818     9174.976     2693.013        0.894        0.717       27.384       60.524        4.885      331.422       -0.573      857.329
02/03/2014  09:54:00       66.662      -84.435       26.346       52.895       69.157       36.535     2797.848     4782.738     1334.795        1.059        0.446      107.579       25.363        0.056      331.371       -0.656      857.324
02/03/2014  09:55:00       83.894        2.427       39.755       44.236       70.622       39.914     1956.786     4987.514     1593.121        0.858        0.427       83.930       42.607        0.258      331.339       -0.709      857.333
02/03/2014  09:56:00      111.194       63.678       60.142       48.749       49.765       39.065     2376.512     2476.572     1526.065        1.321        0.319      128.137       31.246        0.059      331.082       -1.132      857.343
02/03/2014  09:57:00      152.138       76.542       18.878       48.878       32.561       33.087     2389.022     1060.220     1094.760        1.695        0.227      170.308       27.895        0.027      331.027       -1.222      857.353
02/03/2014  09:58:00       62.505       43.367       18.701       37.896       42.540       29.255     1436.092     1809.639      855.856        0.512        0.205       76.076       21.397        0.079      331.187       -0.961      857.356
02/03/2014  09:59:00      102.080       36.588       23.693       45.486       38.868       35.061     2068.972     1510.709     1229.290        0.856        0.240      108.439       14.234        0.017      331.224       -0.899      857.357
02/03/2014  10:00:00      105.067       65.114       17.703       52.373       37.971       37.193     2742.971     1441.779     1383.288        1.058        0.278      123.608       32.484        0.069      331.323       -0.737      857.369
02/03/2014  10:01:00       63.732       55.422       17.774       60.070       34.630       36.131     3608.398     1199.208     1305.440        0.678        0.306       84.460       21.597        0.065      331.176       -0.978      857.387
02/03/2014  10:02:00      123.512       57.909        8.016       36.777       41.271       29.521     1352.579     1703.255      871.495        1.130        0.196      136.413       14.111        0.011      331.110       -1.087      857.399
02/03/2014  10:03:00       23.288       49.396       -2.525       27.887       41.255       17.354      777.678     1701.942      301.154        0.288        0.139       54.611       17.253        0.100      331.169       -0.988      857.420
02/03/2014  10:04:00       17.521       34.349        4.801       19.346       32.664       18.671      374.282     1066.950      348.625        0.165        0.089       38.559        6.853        0.032      331.260       -0.839      857.430
02/03/2014  10:05:00       27.807       68.484        2.689       37.774       39.862       25.806     1426.870     1588.945      665.958        0.458        0.184       73.914       26.418        0.128      331.429       -0.563      857.439
02/03/2014  10:06:00       29.108       55.606       -4.435       30.168       35.846       19.498      910.137     1284.919      380.169        0.327        0.129       62.764       19.413        0.096      331.474       -0.487      857.440
02/03/2014  10:07:00       54.465       56.967        7.003       64.991       33.554       32.120     4223.884     1125.862     1031.709        0.632        0.319       78.815       13.984        0.031      331.577       -0.320      857.450
02/03/2014  10:08:00       99.324       86.854       20.462       39.401       34.845       39.566     1552.415     1214.144     1565.493        1.108        0.217      131.943       11.933        0.008      331.339       -0.710      857.457
02/03/2014  10:09:00       97.020       81.714        3.563       56.682       40.519       38.018     3212.899     1641.804     1445.398        1.120        0.315      126.847       21.430        0.029      331.350       -0.692      857.454
02/03/2014  10:10:00       93.473       80.564        8.068       57.478       36.159       31.246     3303.772     1307.505      976.314        1.044        0.279      123.400       20.320        0.027      331.448       -0.530      857.476
02/03/2014  10:11:00       69.678       74.082       11.832       60.277       44.632       33.703     3633.366     1991.974     1135.899        0.862        0.338      101.702       25.032        0.061      331.441       -0.542      857.486
02/03/2014  10:12:00       95.194       93.329       -3.291       45.232       40.549       41.931     2045.934     1644.215     1758.187        1.161        0.272      133.312       30.028        0.051      331.405       -0.602      857.499
02/03/2014  10:13:00      110.335       88.768        4.595       33.048       33.566       29.917     1092.141     1126.647      895.008        1.159        0.156      141.611       18.710        0.017      331.368       -0.661      857.493
02/03/2014  10:14:00       36.168       65.199       43.640       52.875       37.166       41.636     2795.743     1381.283     1733.594        0.669        0.296       74.559       42.717        0.328      331.610       -0.265      857.485
02/03/2014  10:15:00       98.479       64.842       16.041       63.222       40.251       37.748     3997.004     1620.108     1424.926        1.060        0.352      117.910       36.641        0.097      331.704       -0.109      857.487
02/03/2014  10:16:00      103.829       52.209       13.374       51.164       47.912       36.264     2617.705     2295.595     1315.102        0.996        0.311      116.217       27.660        0.057      331.451       -0.526      857.488
02/03/2014  10:17:00       75.687       90.017       20.970       30.135       43.129       40.890      908.094     1860.110     1671.974        0.936        0.222      117.608       16.226        0.019      331.527       -0.400      857.476
02/03/2014  10:18:00      102.632       70.614       31.730       56.250       35.265       35.545     3164.071     1243.599     1263.422        1.110        0.284      124.578       14.657        0.014      331.718       -0.086      857.460
02/03/2014  10:19:00      104.730       85.399        6.334       51.254       39.171       34.143     2626.925     1534.391     1165.770        1.181        0.266      135.134       20.127        0.022      331.460       -0.511      857.470
02/03/2014  10:20:00       91.870       76.301       63.375       83.749       53.482       42.303     7013.834     2860.342     1789.525        1.497        0.583      119.424       42.427        0.126      331.800        0.048      857.463
02/03/2014  10:21:00       93.812      104.150       84.520       59.002       54.074       42.392     3481.219     2923.959     1797.121        1.750        0.410      140.171       30.104        0.046      331.661       -0.181      857.463
02/03/2014  10:22:00       77.944       60.610       25.739       39.260       33.844       32.862     1541.310     1145.413     1079.893        0.709        0.188       98.736       11.407        0.013      331.901        0.217      857.453
02/03/2014  10:23:00      104.328       59.852       24.687       51.194       41.886       33.067     2620.803     1754.410     1093.415        1.027        0.273      120.277       17.500        0.021      331.801        0.050      857.447
02/03/2014  10:24:00       52.686       73.335       82.286       39.878       44.083       30.784     1590.260     1943.267      947.648        0.970        0.224       90.299       29.039        0.103      331.882        0.182      857.437
02/03/2014  10:25:00      112.990      124.098       90.599       69.515       64.273       49.780     4832.278     4131.047     2478.040        2.391        0.572      167.830       47.900        0.081      331.764       -0.013      857.438
02/03/2014  10:26:00       -3.821       48.615       79.059       33.562       41.024       22.140     1126.385     1682.962      490.170        0.596        0.165       48.765       23.559        0.233      332.153        0.631      857.452
02/03/2014  10:27:00       55.027       76.701       79.621       38.650       33.586       23.899     1493.795     1128.027      571.166        0.922        0.160       94.398       10.934        0.013      331.785        0.025      857.465
02/03/2014  10:28:00       48.373       60.295       -7.499       36.901       21.623       35.403     1361.682      467.547     1253.406        0.456        0.154       77.301       27.568        0.127      331.521       -0.411      857.477
02/03/2014  10:29:00       37.337       45.147        4.584       29.110       27.972       35.825      847.365      782.439     1283.439        0.318        0.146       58.586       26.094        0.198      332.072        0.497      857.460
02/03/2014  10:30:00       34.741       -3.744       10.789       33.182       26.197       18.998     1101.075      686.300      360.918        0.174        0.107       34.942       16.455        0.222      332.280        0.840      857.456
02/03/2014  10:31:00       17.804       76.338       89.343       46.436       57.610       44.707     2156.303     3318.879     1998.729        1.080        0.374       78.386       39.170        0.250      332.377        0.999      857.445
02/03/2014  10:32:00        1.833       28.931       52.520       32.783       67.529       43.719     1074.721     4560.125     1911.338        0.557        0.377       28.989       48.778        2.831      332.310        0.890      857.429
02/03/2014  10:33:00       28.688      -25.818       38.077       44.226       65.606       37.233     1955.979     4304.091     1386.330        0.529        0.382       38.595       27.051        0.491      332.543        1.274      857.416
02/03/2014  10:34:00       14.263      -26.086       37.380       44.122       48.969       34.216     1946.767     2398.003     1170.734        0.390        0.276       29.731       32.018        1.160      332.861        1.798      857.409
02/03/2014  10:35:00      -10.542      -25.895       29.163       21.460       37.424       28.216      460.517     1400.541      796.149        0.214        0.133       27.958       20.644        0.545      332.862        1.801      857.380
02/03/2014  10:36:00       -1.409        3.537       47.059       38.735       39.005       24.035     1500.417     1521.352      577.658        0.291        0.180        3.807       22.553       35.096      333.006        2.040      857.365
02/03/2014  10:37:00       59.408     -126.293      -11.622       57.910       42.099       40.642     3353.579     1772.301     1651.742        1.319        0.339      139.568       25.973        0.035      332.185        0.684      857.372
02/03/2014  10:38:00       94.040       26.666       29.718       55.097       49.110       37.681     3035.697     2411.762     1419.854        0.865        0.343       97.748       35.762        0.134      332.304        0.879      857.365
02/03/2014  10:39:00      109.401      112.043       98.109       96.099       90.920       63.677     9234.940     8266.485     4054.799        2.785        1.078      156.596       60.506        0.149      332.231        0.756      857.320
02/03/2014  10:40:00      106.748      117.072       95.786       84.930       69.542       66.124     7213.111     4836.144     4372.380        2.535        0.821      158.433       54.989        0.120      332.240        0.772      857.301
02/03/2014  10:41:00       29.252      -24.854       32.538       53.380      125.705       62.809     2849.476    15801.711     3944.938        1.256        1.130       38.385       79.461        4.285      332.614        1.391      857.315
02/03/2014  10:42:00       47.076     -154.952      -22.001       56.687       67.314       46.366     3213.441     4531.216     2149.782        1.830        0.495      161.946       26.354        0.026      332.466        1.146      857.326
02/03/2014  10:43:00        7.148       19.038       53.700       45.826       60.257       56.022     2100.027     3630.937     3138.409        0.608        0.443       20.336       54.367        7.147      332.630        1.417      857.353
02/03/2014  10:44:00        6.043       52.392       81.935       35.339       64.826       48.968     1248.858     4202.458     2397.828        0.867        0.392       52.740       56.164        1.134      332.440        1.105      857.350
02/03/2014  10:45:00       64.108      -82.649       31.486       61.996       74.690       46.393     3843.541     5578.628     2152.347        1.175        0.579      104.598       35.892        0.118      332.636        1.428      857.339
02/03/2014  10:46:00       45.668      -37.723       27.348       55.739       74.865       45.525     3106.787     5604.792     2072.539        0.752        0.539       59.233       49.324        0.693      332.901        1.866      857.318
02/03/2014  10:47:00      153.699     -154.309      -18.655       53.948       64.998       35.874     2910.366     4224.751     1286.964        2.810        0.421      217.795       34.717        0.025      332.352        0.956      857.290
02/03/2014  10:48:00       86.992     -119.868       14.340       54.763       71.816       54.150     2998.979     5157.520     2932.197        1.661        0.554      148.108       49.710        0.113      332.643        1.439      857.274
02/03/2014  10:49:00      108.179      -97.807       10.598       72.300      106.027       65.583     5227.357    11241.763     4301.065        2.107        1.039      145.838       56.215        0.149      332.749        1.611      857.247
02/03/2014  10:50:00       24.551       30.867       76.688       61.257       84.282       47.247     3752.379     7103.423     2232.241        1.026        0.654       39.440       26.699        0.458      333.139        2.258      857.225
02/03/2014  10:51:00      147.936      137.508      129.797       89.242       81.399       61.799     7964.193     6625.850     3819.147        3.802        0.920      201.974       53.548        0.070      332.177        0.666      857.204
02/03/2014  10:52:00       59.952      153.480      156.797       86.944       78.239       42.453     7559.317     6121.291     1802.222        3.361        0.774      164.774       44.344        0.072      332.519        1.231      857.172
02/03/2014  10:53:00       96.523       90.755      109.995       69.071      122.170       75.845     4770.750    14925.588     5752.424        2.755        1.272      132.488       82.600        0.389      332.666        1.476      857.132
02/03/2014  10:54:00       55.761        3.585       97.159       75.291      135.528       72.960     5668.721    18367.803     5323.112        2.096        1.468       55.876       91.876        2.704      332.672        1.484      857.112
02/03/2014  10:55:00       75.334     -103.164       15.364       80.398      150.412       64.656     6463.887    22623.742     4180.369        2.491        1.663      127.742       84.295        0.435      332.355        0.963      857.116
02/03/2014  10:56:00      123.165      -84.035       41.091       93.431      124.566       80.979     8729.378    15516.800     6557.596        2.736        1.540      149.102       93.435        0.393      332.463        1.140      857.123
02/03/2014  10:57:00      103.718        0.050       65.439       87.667      111.269       77.893     7685.544    12380.701     6067.380        2.058        1.307      103.718       78.977        0.580      332.397        1.032      857.129
02/03/2014  10:58:00      106.206       68.975       92.811       79.533       92.673       78.474     6325.453     8588.286     6158.106        2.286        1.054      126.638       73.531        0.337      332.238        0.768      857.120
02/03/2014  10:59:00       78.485       -9.619       72.899       95.329      135.117       90.386     9087.603    18256.724     8169.705        2.353        1.776       79.072      105.878        1.793      332.437        1.097      857.112
02/03/2014  11:00:00       45.616       68.862      106.548       68.658       88.967       57.302     4713.933     7915.044     3283.480        1.704        0.796       82.600       57.264        0.481      332.370        0.987      857.113
02/03/2014  11:01:00       98.646      -62.666       36.054       45.862       63.579       54.369     2103.358     4042.293     2955.980        1.203        0.455      116.868       44.702        0.146      332.193        0.698      857.121
02/03/2014  11:02:00      100.197      -79.403       32.918       73.960       91.540       65.488     5470.059     8379.502     4288.629        1.778        0.907      127.845       66.242        0.268      332.466        1.145      857.089
02/03/2014  11:03:00       78.076       20.277       61.404       77.535       59.946       54.600     6011.653     3593.534     2981.160        1.143        0.629       80.666       48.823        0.366      332.628        1.415      857.085
02/03/2014  11:04:00       54.473        1.414       72.378       65.546       66.733       52.762     4296.223     4453.318     2783.876        0.987        0.577       54.491       46.970        0.743      332.706        1.543      857.069
02/03/2014  11:05:00       25.920      -26.608       31.191       41.857       58.766       33.122     1751.998     3453.460     1097.061        0.433        0.315       37.146       20.877        0.316      332.547        1.281      857.056
02/03/2014  11:06:00       84.213      101.751       94.207       90.910       54.693       64.200     8264.585     2991.349     4121.636        2.085        0.769      132.080       63.268        0.229      332.469        1.150      857.040
02/03/2014  11:07:00      132.006      116.542       44.817       94.330       46.667       63.336     8898.223     2177.826     4011.398        2.405        0.754      176.090       53.670        0.093      332.396        1.029      857.022
02/03/2014  11:08:00       84.741       82.667       63.979       50.438       42.274       43.936     2543.974     1787.083     1930.341        1.218        0.313      118.384       27.171        0.053      332.566        1.312      857.016
02/03/2014  11:09:00       75.170      127.052      111.419       74.508       63.675       63.023     5551.434     4054.446     3971.895        2.389        0.679      147.624       61.452        0.173      332.397        1.030      857.004
02/03/2014  11:10:00       62.441      123.207      115.109       60.203       53.458       42.000     3624.437     2857.773     1763.999        2.029        0.412      138.126       40.296        0.085      332.444        1.110      856.997
02/03/2014  11:11:00       78.007       38.885       62.163       56.864       41.916       34.659     3233.569     1756.920     1201.266        0.883        0.310       87.161       27.463        0.099      332.563        1.308      856.986
02/03/2014  11:12:00      102.374       60.769       76.379       77.015       81.796       55.044     5931.343     6690.608     3029.863        1.783        0.783      119.052       58.370        0.240      332.586        1.343      856.971
02/03/2014  11:13:00       38.372       81.785       82.161       63.273       65.783       53.955     4003.513     4327.418     2911.143        1.307        0.562       90.339       46.038        0.260      332.871        1.815      856.959
02/03/2014  11:14:00       71.498       77.463       68.552       71.022       56.243       53.208     5044.131     3163.224     2831.095        1.342        0.552      105.416       43.164        0.168      333.060        2.128      856.949
02/03/2014  11:15:00      117.241      103.353       27.306       59.945       45.834       44.351     3593.453     2100.717     1967.021        1.642        0.383      156.292       25.596        0.027      332.781        1.665      856.962
02/03/2014  11:16:00      129.237       69.771       15.601       32.160       28.679       29.623     1034.297      822.491      877.525        1.227        0.137      146.868       10.644        0.005      332.686        1.510      856.963
02/03/2014  11:17:00       94.618       71.227       -3.978       47.058       31.473       27.472     2214.481      990.562      754.714        0.900        0.198      118.431       15.970        0.018      333.329        2.572      856.945
02/03/2014  11:18:00       12.822       54.389       65.338       47.244       42.085       46.062     2232.018     1771.173     2121.703        0.676        0.306       55.880       33.420        0.358      333.708        3.200      856.914
02/03/2014  11:19:00      101.117       60.382       23.681       44.289       49.306       50.262     1961.540     2431.127     2526.318        1.067        0.346      117.774       21.115        0.032      333.414        2.714      856.894
02/03/2014  11:20:00      137.902       99.991       10.039       67.722       49.171       46.917     4586.236     2417.742     2201.176        1.916        0.460      170.338       27.067        0.025      332.802        1.700      856.874
02/03/2014  11:21:00      108.811       89.046       22.897       61.420       49.386       34.577     3772.450     2439.016     1195.578        1.385        0.370      140.602       34.541        0.060      332.863        1.802      856.863
02/03/2014  11:22:00       87.629       62.877        3.048       49.179       30.812       30.203     2418.543      949.391      912.251        0.796        0.214      107.853       23.070        0.046      332.852        1.784      856.860
02/03/2014  11:23:00       57.527       62.764        9.120       34.674       39.250       37.210     1202.309     1540.590     1384.596        0.573        0.206       85.139       23.318        0.075      333.055        2.119      856.843
02/03/2014  11:24:00       70.923       82.244       55.796       70.534       52.677       60.423     4975.029     2774.826     3650.995        1.315        0.570      108.601       43.877        0.163      333.287        2.504      856.832
02/03/2014  11:25:00       67.637      130.142      118.818       93.208       59.352       58.054     8687.748     3522.702     3370.256        2.560        0.779      146.669       60.134        0.168      333.039        2.092      856.800
02/03/2014  11:26:00      116.766       91.958       54.643       90.970       56.884       61.152     8275.575     3235.783     3739.618        2.016        0.763      148.629       54.617        0.135      333.108        2.207      856.766
02/03/2014  11:27:00      212.920      124.805       -0.371       77.513       56.202       52.492     6008.247     3158.697     2755.432        3.641        0.596      246.802        7.851        0.001      332.638        1.426      856.728
02/03/2014  11:28:00      155.289      115.333       41.027       80.805       59.067       57.183     6529.414     3488.879     3269.853        2.619        0.664      193.433       31.149        0.026      332.959        1.959      856.705
02/03/2014  11:29:00      121.368       87.231       43.830       89.921       73.512       62.647     8085.750     5403.975     3924.657        2.083        0.871      149.464       56.164        0.141      333.108        2.206      856.714
02/03/2014  11:30:00       72.299       73.623       69.675       95.267       81.370       71.388     9075.811     6621.148     5096.316        1.814        1.040      103.187       63.156        0.375      333.357        2.618      856.719
02/03/2014  11:31:00       44.032      181.251      169.138       88.054       58.515       53.623     7753.575     3423.992     2875.425        3.872        0.703      186.523       41.381        0.049      333.165        2.298      856.738
02/03/2014  11:32:00      167.986      109.412       49.273       53.991       34.926       44.694     2915.046     1219.860     1997.560        2.437        0.307      200.475       14.347        0.005      332.759        1.628      856.748
02/03/2014  11:33:00       97.207       95.216       99.219       89.445       83.540       75.505     8000.414     6978.906     5701.021        2.452        1.034      136.071       65.541        0.232      333.118        2.222      856.758
02/03/2014  11:34:00       91.883      158.703      140.026       89.621       85.355       62.539     8031.893     7285.529     3911.087        3.623        0.961      183.382       67.948        0.137      332.853        1.783      856.774
02/03/2014  11:35:00      105.034       19.106       43.956       72.081       76.449       45.976     5195.735     5844.444     2113.766        1.324        0.658      106.758       43.568        0.167      332.869        1.811      856.792
02/03/2014  11:36:00       86.307       30.561       10.166       56.105       49.984       38.773     3147.737     2498.416     1503.370        0.782        0.357       91.558       31.218        0.116      333.423        2.728      856.753
02/03/2014  11:37:00       65.685       81.268       49.233       92.360       73.995       67.456     8530.462     5475.272     4550.264        1.595        0.928      104.494       59.306        0.322      333.502        2.858      856.701
02/03/2014  11:38:00       78.919       94.859       83.009       61.951       48.069       40.377     3837.876     2310.654     1630.272        1.495        0.389      123.395       24.697        0.040      333.513        2.877      856.708
02/03/2014  11:39:00       41.723       -5.513       30.711       47.952       77.271       45.826     2299.437     5970.869     2100.017        0.654        0.519       42.085       45.520        1.170      333.505        2.864      856.735
02/03/2014  11:40:00       70.719      -87.126        8.800       54.023       62.682       35.949     2918.486     3929.063     1292.347        1.040        0.407      112.215       27.150        0.059      333.217        2.387      856.753
02/03/2014  11:41:00      101.073      -81.176        0.302       65.409       93.874       43.869     4278.397     8812.411     1924.451        1.591        0.751      129.635       57.547        0.197      333.274        2.479      856.748
02/03/2014  11:42:00       39.596       60.532       13.034       56.592       40.308       37.453     3202.637     1624.720     1402.721        0.581        0.312       72.332       21.334        0.087      333.522        2.891      856.739
02/03/2014  11:43:00      132.428       87.819       22.580       66.816       46.786       53.394     4464.379     2188.941     2850.954        1.763        0.475      158.901       26.436        0.028      333.462        2.791      856.720
02/03/2014  11:44:00      141.546       73.997       12.488       76.410       42.942       45.629     5838.413     1843.995     2082.039        1.771        0.488      159.721       22.396        0.020      333.194        2.348      856.710
02/03/2014  11:45:00      173.312       85.494       13.604       61.741       45.463       40.015     3811.987     2066.864     1601.227        2.250        0.374      193.252       30.676        0.025      333.066        2.135      856.690
02/03/2014  11:46:00      143.061       93.308        4.799       78.234       48.479       48.262     6120.579     2350.247     2329.268        2.000        0.540      170.801       33.312        0.038      333.140        2.259      856.674
02/03/2014  11:47:00      173.888       88.739       57.330       88.052       85.843       67.372     7753.164     7369.074     4538.980        3.053        0.983      195.222       65.278        0.112      333.152        2.278      856.635
02/03/2014  11:48:00      157.050      114.703       50.287       79.679       66.651       64.686     6348.692     4442.312     4184.268        2.766        0.749      194.477       46.703        0.058      333.128        2.238      856.617
02/03/2014  11:49:00      142.738       76.664       -1.172       69.190       46.996       42.586     4787.310     2208.643     1813.561        1.753        0.440      162.023       29.226        0.033      333.321        2.557      856.618
02/03/2014  11:50:00      105.619       54.411        0.963       50.678       34.808       33.064     2568.251     1211.605     1093.229        0.949        0.244      118.810       24.848        0.044      333.203        2.364      856.615
02/03/2014  11:51:00      133.566       95.935       51.975       43.224       36.159       43.027     1868.341     1307.474     1851.299        1.739        0.251      164.449       29.312        0.032      333.254        2.447      856.613
02/03/2014  11:52:00       94.459       98.852       90.208       73.662       52.832       56.174     5426.079     2791.221     3155.490        1.910        0.569      136.727       49.826        0.133      333.484        2.828      856.594
02/03/2014  11:53:00      147.885      130.831       93.220       66.837       56.433       49.787     4467.157     3184.715     2478.769        2.890        0.507      197.450       38.952        0.039      333.371        2.640      856.565
02/03/2014  11:54:00      117.271      116.161       89.787       69.999       48.532       56.258     4899.883     2355.377     3165.014        2.286        0.521      165.063       48.285        0.086      333.234        2.414      856.552
02/03/2014  11:55:00      113.546       62.002       68.128       75.520       69.230       54.961     5703.287     4792.837     3020.683        1.745        0.676      129.371       52.403        0.164      333.284        2.498      856.538
02/03/2014  11:56:00      106.022       51.208       53.125       58.269       60.526       44.730     3395.270     3663.416     2000.745        1.287        0.453      117.741       35.126        0.089      333.417        2.715      856.539
02/03/2014  11:57:00       15.737       -9.077       51.077       47.534       78.495       31.681     2259.445     6161.476     1003.695        0.618        0.471       18.167       20.528        1.277      333.723        3.224      856.548
02/03/2014  11:58:00        4.390      -16.979       23.890       23.217       28.921       29.322      539.035      836.405      859.780        0.156        0.112       17.537       14.586        0.692      333.863        3.458      856.576
02/03/2014  11:59:00       39.994      -44.998       21.306       37.868       42.153       30.372     1433.988     1776.883      922.462        0.411        0.207       60.202       30.247        0.252      333.749        3.268      856.580
02/03/2014  12:00:00       16.994       22.157       45.915       26.332       51.326       23.737      693.393     2634.340      563.424        0.339        0.195       27.924       24.886        0.794      333.811        3.371      856.574
02/03/2014  12:01:00       65.783       88.623       71.952       44.151       30.897       31.745     1949.334      954.633     1007.736        1.063        0.196      110.370       11.622        0.011      333.673        3.142      856.556
02/03/2014  12:02:00      101.805       62.039       29.304       49.953       32.855       31.866     2495.348     1079.481     1015.432        0.983        0.230      119.218       20.763        0.030      333.453        2.778      856.549
02/03/2014  12:03:00      101.554       66.406       16.284       28.449       17.173       27.668      809.371      294.917      765.512        0.843        0.093      121.339       12.046        0.010      333.339        2.586      856.536
02/03/2014  12:04:00       56.261       36.678       23.800       39.973       40.511       36.850     1597.813     1641.149     1357.895        0.484        0.230       67.161       35.827        0.285      333.463        2.795      856.506
02/03/2014  12:05:00       81.249       55.082        9.019       44.056       44.835       33.269     1940.925     2010.211     1106.827        0.739        0.253       98.160       25.352        0.067      333.674        3.143      856.487
02/03/2014  12:06:00       92.392       52.831        9.153       42.938       38.481       30.349     1843.709     1480.750      921.064        0.783        0.212      106.430       23.188        0.047      333.695        3.178      856.495
02/03/2014  12:07:00       82.453       71.285       -9.172       38.689       25.682       17.406     1496.874      659.568      302.966        0.721        0.123      108.995       12.721        0.014      333.526        2.899      856.522
02/03/2014  12:08:00       19.429       37.044       -9.250       17.341       14.699       12.550      300.702      216.047      157.495        0.125        0.034       41.830        9.288        0.049      333.424        2.730      856.532
02/03/2014  12:09:00       22.887       33.016       -4.279       13.636       20.356       19.134      185.931      414.380      366.097        0.130        0.048       40.173        8.938        0.050      333.523        2.892      856.523
02/03/2014  12:10:00      -10.623       13.874        8.253       18.249       14.051       19.458      333.033      197.433      378.633        0.064        0.045       17.474       13.495        0.596      333.871        3.471      856.508
02/03/2014  12:11:00       10.561       49.019        7.410       27.022       39.436       25.323      730.196     1555.233      641.257        0.275        0.146       50.144       22.707        0.205      333.792        3.340      856.492
02/03/2014  12:12:00       91.941       74.934       -5.387       50.386       37.575       31.316     2538.733     1411.852      980.675        0.951        0.247      118.610       16.295        0.019      333.600        3.021      856.460
02/03/2014  12:13:00       85.905       82.211        2.801       63.113       49.004       32.705     3983.233     2401.424     1069.621        1.080        0.373      118.904       26.890        0.051      333.674        3.142      856.424
02/03/2014  12:14:00       85.404       50.761       -1.390       35.804       32.350       22.967     1281.941     1046.509      527.462        0.636        0.143       99.350       14.237        0.021      333.683        3.159      856.413
02/03/2014  12:15:00       65.265       37.406        4.446       30.640       18.297       17.959      938.813      334.790      322.528        0.364        0.080       75.224       10.038        0.018      333.561        2.955      856.395
02/03/2014  12:16:00       61.535       48.465        7.721       50.239       28.273       25.703     2523.922      799.390      660.645        0.509        0.199       78.329       12.677        0.026      333.538        2.920      856.382
02/03/2014  12:17:00       73.489       76.588       10.451       67.081       43.752       32.996     4499.874     1914.195     1088.729        0.944        0.375      106.144       25.603        0.058      333.652        3.107      856.383
02/03/2014  12:18:00      114.033       90.452        6.784       39.274       32.964       36.926     1542.452     1086.613     1363.558        1.261        0.200      145.551       24.334        0.028      333.628        3.067      856.345
02/03/2014  12:19:00       35.686       21.423       49.027       24.187       48.097       18.322      585.007     2313.281      335.706        0.368        0.162       41.623       19.904        0.229      333.778        3.315      856.341
02/03/2014  12:20:00      -14.541      -32.442       -1.017       33.805       36.910       24.036     1142.784     1362.359      577.715        0.217        0.154       35.552       15.486        0.190      333.988        3.665      856.365
02/03/2014  12:21:00       -1.271       48.844       43.313       32.332       32.751       30.162     1045.359     1072.646      909.739        0.365        0.151       48.860       10.280        0.044      334.119        3.882      856.336
02/03/2014  12:22:00      -52.568      -37.840       -2.867       58.904       51.696       31.533     3469.641     2672.442      994.338        0.567        0.357       64.771       25.641        0.157      334.090        3.834      856.327
02/03/2014  12:23:00     -178.943     -117.565       -0.114       71.031       77.283       46.177     5045.460     5972.685     2132.339        2.949        0.658      214.108       44.633        0.043      333.999        3.680      856.299
02/03/2014  12:24:00     -133.616      -15.644       -2.404      100.216       59.268       39.029    10043.311     3512.741     1523.243        1.659        0.754      134.529       41.828        0.097      334.051        3.767      856.267
02/03/2014  12:25:00     -177.565       -2.037      -11.286       65.325       58.601       28.826     4267.380     3434.103      830.919        2.010        0.427      177.577       27.446        0.024      334.036        3.743      856.235
02/03/2014  12:26:00     -107.235        4.343        3.552       79.250       71.839       42.153     6280.489     5160.875     1776.867        1.237        0.661      107.322       45.701        0.181      334.313        4.203      856.222
02/03/2014  12:27:00     -222.125      -74.543       -1.956      121.789       59.221       48.936    14832.645     3507.070     2394.700        3.781        1.037      234.299       43.523        0.035      334.292        4.165      856.214
02/03/2014  12:28:00     -192.274     -130.106       -0.025      149.525       70.422       48.764    22357.613     4959.315     2377.963        4.179        1.485      232.157       47.893        0.043      334.225        4.054      856.214
02/03/2014  12:29:00     -196.034     -108.542        5.386      126.082      121.577       64.914    15896.669    14780.937     4213.855        4.256        1.745      224.077       64.852        0.084      334.107        3.858      856.194
02/03/2014  12:30:00     -181.762      -32.983       -4.443       84.515       67.616       42.754     7142.805     4571.962     1827.917        2.384        0.677      184.730       29.573        0.026      334.047        3.759      856.156
02/03/2014  12:31:00     -150.181     -114.310        1.893       93.306       69.721       44.339     8706.024     4860.966     1965.972        2.558        0.777      188.735       54.797        0.084      333.977        3.644      856.117
02/03/2014  12:32:00     -177.906      -91.166        0.075       72.482       58.870       36.878     5253.581     3465.635     1360.012        2.502        0.504      199.904       37.895        0.036      334.076        3.807      856.082
02/03/2014  12:33:00       -9.904     -128.385       -6.320       44.996       45.806       40.995     2024.662     2098.163     1680.575        1.121        0.290      128.766       30.844        0.057      334.174        3.973      856.030
02/03/2014  12:34:00     -100.921      -44.079      -15.162       77.439       88.361       35.426     5996.759     7807.672     1254.983        1.371        0.753      110.127       17.002        0.024      334.323        4.218      855.989
02/03/2014  12:35:00      -87.700      -39.282        2.171       49.369       73.243       32.800     2437.321     5364.553     1075.865        0.906        0.444       96.095       33.486        0.121      334.225        4.057      855.978
02/03/2014  12:36:00     -138.103      -97.531       -1.403      112.266       86.752       36.675    12603.638     7525.884     1345.033        2.503        1.074      169.070       33.453        0.039      334.277        4.142      855.974
02/03/2014  12:37:00     -312.835     -113.511      -16.542       93.945       84.273       57.333     8825.603     7101.938     3287.117        6.512        0.961      332.792       48.104        0.021      334.151        3.931      855.979
02/03/2014  12:38:00     -206.944        2.426        8.833      120.181       89.136       51.863    14443.354     7945.282     2689.753        3.399        1.254      206.959       58.625        0.080      334.457        4.438      855.988
02/03/2014  12:39:00      -82.589      -78.975       12.613       81.814       76.832       47.071     6693.576     5903.208     2215.698        1.401        0.741      114.272       49.500        0.188      334.395        4.339      855.976
02/03/2014  12:40:00      -79.152     -111.694       -4.909       68.647       75.067       29.775     4712.427     5635.121      886.548        1.500        0.562      136.896       29.847        0.048      334.071        3.802      855.948
02/03/2014  12:41:00      -29.849     -107.140       -8.320       61.757       34.872       26.227     3813.966     1216.046      687.846        0.908        0.286      111.220       13.300        0.014      333.997        3.680      855.923
02/03/2014  12:42:00     -138.684     -160.450      -15.984       68.470       73.776       37.545     4688.167     5442.955     1409.607        2.838        0.577      212.079       32.737        0.024      334.343        4.250      855.907
02/03/2014  12:43:00       -3.300       12.655       17.491       39.279       23.915       28.406     1542.848      571.937      806.916        0.170        0.146       13.078       24.435        3.491      335.310        5.859      855.890
02/03/2014  12:44:00      -75.995      -20.050        4.274       44.778       37.644       29.003     2005.059     1417.042      841.148        0.523        0.213       78.595       26.986        0.118      334.984        5.318      855.887
02/03/2014  12:45:00      -39.704       37.215      -12.851       37.851       75.586       38.004     1432.701     5713.197     1444.340        0.586        0.430       54.419       36.995        0.462      334.867        5.121      855.867
02/03/2014  12:46:00        6.759       42.400        5.610       47.179       62.048       40.786     2225.879     3849.954     1663.522        0.481        0.387       42.935       42.026        0.958      335.070        5.460      855.850
02/03/2014  12:47:00      -81.777       21.963      -17.919       46.814       34.945       25.363     2191.509     1221.183      643.263        0.577        0.203       84.675       20.521        0.059      335.011        5.362      855.858
02/03/2014  12:48:00     -134.785      -11.502      -26.865       65.931       62.478       44.964     4346.864     3903.481     2021.729        1.464        0.514      135.275       32.666        0.058      334.455        4.438      855.846
02/03/2014  12:49:00     -240.793      -40.924      -18.090       60.403       49.892       27.528     3648.568     2489.260      757.788        3.344        0.345      244.246       21.063        0.007      334.381        4.312      855.858
02/03/2014  12:50:00     -249.878      -62.693      -22.021       78.818       78.130       37.937     6212.239     6104.346     1439.222        4.030        0.688      257.623       33.270        0.017      334.376        4.303      855.865
02/03/2014  12:51:00     -188.501      -50.367      -10.771      119.077       79.526       50.466    14179.293     6324.425     2546.802        3.061        1.153      195.114       30.001        0.024      334.559        4.610      855.866
02/03/2014  12:52:00     -183.681       62.110      -34.410       92.200       75.997       43.565     8500.886     5775.556     1897.942        2.747        0.809      193.898       36.263        0.035      334.526        4.554      855.863
02/03/2014  12:53:00      -20.686       49.763        7.051       95.194       68.658       54.818     9061.838     4713.863     3005.033        0.986        0.839       53.892       55.459        1.059      334.605        4.688      855.855
02/03/2014  12:54:00      -58.015       72.411      -14.275       68.911       88.765       32.373     4748.730     7879.210     1048.043        1.124        0.684       92.785       46.478        0.251      334.764        4.951      855.814
02/03/2014  12:55:00      -21.086       33.327        0.790      101.468      118.143       59.409    10295.854    13957.762     3529.416        1.466        1.389       39.437       27.366        0.482      335.113        5.530      855.801
02/03/2014  12:56:00     -174.073      -47.848      -12.892      125.287      110.380       61.356    15696.784    12183.730     3764.529        3.220        1.582      180.529       51.696        0.082      334.871        5.128      855.774
02/03/2014  12:57:00     -374.956     -144.469      -29.925      126.839      111.584       63.741    16088.214    12450.982     4062.861        9.747        1.630      401.825       53.591        0.018      334.440        4.410      855.763
02/03/2014  12:58:00     -296.138     -173.367       -2.950      132.385       87.356       63.590    17525.783     7631.115     4043.695        7.348        1.460      343.153       64.237        0.035      334.245        4.085      855.770
02/03/2014  12:59:00     -273.472      -85.932       -4.447       90.482       70.193       47.370     8186.983     4927.111     2243.905        4.877        0.768      286.655       45.536        0.025      334.228        4.059      855.749
02/03/2014  13:00:00     -235.276      -54.915       -6.526       80.771       38.391       26.952     6523.899     1473.887      726.403        3.357        0.436      241.600       23.826        0.010      334.073        3.802      855.727
02/03/2014  13:01:00     -111.534      -25.183        3.476       59.105       51.286       30.199     3493.419     2630.204      911.983        1.006        0.352      114.342       26.558        0.054      334.451        4.431      855.683
02/03/2014  13:02:00      -51.943      -48.301        7.343       42.414       68.372       33.335     1798.912     4674.729     1111.189        0.633        0.379       70.930       26.780        0.143      334.720        4.880      855.655
02/03/2014  13:03:00      -45.019      159.360        0.201       61.165       93.318       62.196     3741.114     8708.180     3868.342        2.187        0.816      165.596       61.040        0.136      334.719        4.875      855.635
02/03/2014  13:04:00      -92.413      139.739      -13.574       65.979       68.786       38.274     4353.183     4731.527     1464.908        1.940        0.527      167.532       27.501        0.027      334.744        4.917      855.617
02/03/2014  13:05:00      -61.256      155.246      -10.520       41.400       74.279       37.089     1713.976     5517.396     1375.605        1.828        0.430      166.894       38.975        0.055      334.612        4.697      855.607
02/03/2014  13:06:00       -7.786       41.708       16.324       41.317       53.781       25.081     1707.081     2892.409      629.037        0.365        0.261       42.428       27.750        0.428      335.129        5.557      855.572
02/03/2014  13:07:00      -13.329       14.792       30.603       69.571       76.064       47.093     4840.076     5785.780     2217.750        0.709        0.642       19.911       44.915        5.088      335.161        5.612      855.544
02/03/2014  13:08:00     -236.937      -85.179      -17.620      116.223      158.310       47.417    13507.750    25061.957     2248.417        5.225        2.041      251.783       46.695        0.034      334.607        4.687      855.550
02/03/2014  13:09:00     -218.973       90.339       -9.373      116.180       91.174       50.477    13497.893     8312.684     2547.978        4.027        1.218      236.876       47.789        0.041      334.535        4.569      855.569
02/03/2014  13:10:00     -176.682      -64.097       -6.846       63.792       79.162       41.572     4069.357     6266.661     1728.217        2.372        0.603      187.949       26.299        0.020      334.581        4.646      855.566
02/03/2014  13:11:00     -267.693      -83.066      -20.386      102.126       81.947       51.009    10429.792     6715.247     2601.923        4.936        0.987      280.285       49.972        0.032      334.471        4.460      855.563
02/03/2014  13:12:00     -119.767      -87.471       16.311       82.292       60.090       46.138     6772.016     3610.763     2128.743        1.738        0.626      148.308       44.443        0.090      334.363        4.285      855.576
02/03/2014  13:13:00     -109.192        3.438       -0.797       50.240       56.387       27.084     2524.036     3179.485      733.546        0.919        0.322      109.246       25.329        0.054      334.354        4.272      855.559
02/03/2014  13:14:00       39.100       -6.660       19.718       31.437       35.452       32.007      988.266     1256.877     1024.468        0.262        0.163       39.663       24.676        0.387      334.624        4.721      855.532
02/03/2014  13:15:00        0.579      109.771        0.942       35.977      102.346       37.608     1294.311    10474.729     1414.330        1.261        0.659      109.772       50.626        0.213      334.497        4.508      855.506
02/03/2014  13:16:00       -1.910      179.271      -20.213       24.098       35.715       22.234      580.738     1275.582      494.338        1.745        0.118      179.281       13.651        0.006      334.274        4.138      855.497
02/03/2014  13:17:00       34.218      106.095      -15.551       30.501       54.528       21.340      930.323     2973.279      455.398        0.851        0.218      111.476       24.809        0.050      334.191        3.999      855.511
02/03/2014  13:18:00      -28.692      -11.387       13.451       73.667       30.578       18.884     5426.804      935.005      356.610        0.392        0.336       30.869       23.098        0.560      334.459        4.446      855.515
02/03/2014  13:19:00     -127.677      -22.700       -0.428       51.906       43.334       32.206     2694.217     1877.806     1037.201        1.121        0.280      129.680       30.843        0.057      334.430        4.398      855.516
02/03/2014  13:20:00     -254.151     -134.433        5.097      118.552      100.307       46.841    14054.663    10061.419     2194.034        5.450        1.316      287.515       48.457        0.028      334.347        4.255      855.507
02/03/2014  13:21:00     -228.050     -154.389        0.075      118.114       86.771       57.284    13950.909     7529.241     3281.450        5.030        1.238      275.396       61.390        0.050      334.233        4.067      855.510
02/03/2014  13:22:00     -209.381     -132.347       -5.821       95.970       60.951       48.429     9210.183     3715.039     2345.352        3.833        0.764      247.702       43.742        0.031      334.282        4.147      855.524
02/03/2014  13:23:00     -136.226     -122.302        8.659       86.765       71.759       50.136     7528.155     5149.416     2513.660        2.439        0.760      183.071       48.308        0.070      334.332        4.232      855.510
02/03/2014  13:24:00     -100.789      -64.003        3.853       85.099       78.528       42.677     7241.783     6166.597     1821.315        1.475        0.761      119.393       39.991        0.112      334.300        4.180      855.500
02/03/2014  13:25:00     -105.211      -17.088       -7.069       76.256       77.642       26.104     5814.945     6028.331      681.418        1.197        0.626      106.590       37.849        0.126      334.253        4.102      855.497
02/03/2014  13:26:00      -90.587      -44.737        4.675       54.343       44.861       25.165     2953.191     2012.496      633.273        0.791        0.280      101.032       25.124        0.062      334.400        4.348      855.484
02/03/2014  13:27:00      -48.499      -10.899       13.208       39.061       42.198       26.085     1525.752     1780.689      680.446        0.332        0.199       49.709       24.231        0.238      334.571        4.632      855.469
02/03/2014  13:28:00      -95.771       31.015       -8.647       35.832       45.941       25.907     1283.944     2110.578      671.175        0.714        0.203      100.667       21.771        0.047      334.327        4.226      855.462
02/03/2014  13:29:00      -19.952       54.349        4.099       56.752       48.441       22.364     3220.837     2346.552      500.156        0.472        0.303       57.895       10.937        0.036      334.554        4.604      855.445
02/03/2014  13:30:00       -5.183       47.484       10.992       41.228       37.648       32.578     1699.722     1417.346     1061.329        0.329        0.209       47.766       15.735        0.109      334.593        4.669      855.434
02/03/2014  13:31:00      -16.750       64.173       -9.705       49.374       47.846       24.255     2437.787     2289.273      588.306        0.490        0.266       66.323       31.260        0.222      334.380        4.315      855.402
02/03/2014  13:32:00      -99.239       93.681      -39.135       56.991       56.132       19.396     3247.991     3150.825      376.198        1.346        0.339      136.472       31.884        0.055      334.225        4.057      855.407
02/03/2014  13:33:00      -23.894       47.652       -4.071       20.524       40.496       21.566      421.219     1639.931      465.073        0.269        0.126       53.307       14.340        0.072      334.552        4.600      855.391
02/03/2014  13:34:00      -41.224      161.502      -12.432       39.584       82.023       29.456     1566.876     6727.769      867.648        1.855        0.458      166.680       25.479        0.023      334.634        4.734      855.398
02/03/2014  13:35:00      -87.350      227.460      -31.166       79.532       59.886       36.612     6325.348     3586.382     1340.443        3.579        0.563      243.656       29.389        0.015      334.446        4.420      855.399
02/03/2014  13:36:00     -117.573       85.626      -12.675       64.247       61.561       34.400     4127.613     3789.788     1183.354        1.521        0.455      145.448       29.227        0.040      334.628        4.726      855.413
02/03/2014  13:37:00     -101.084      114.111      -22.884       47.101       36.652       27.475     2218.550     1343.341      754.851        1.404        0.216      152.444       25.040        0.027      334.355        4.273      855.419
02/03/2014  13:38:00      -43.696       89.706       -0.948       28.873       52.044       29.081      833.641     2708.626      845.683        0.717        0.219       99.782       22.586        0.051      334.662        4.783      855.417
02/03/2014  13:39:00     -132.792       -6.525      -14.228       67.938       78.611       25.275     4615.507     6179.709      638.828        1.465        0.572      132.952       27.471        0.043      334.657        4.775      855.414
02/03/2014  13:40:00      -48.629      -47.551        4.663       78.659       34.338       27.963     6187.303     1179.091      781.924        0.640        0.407       68.014       27.890        0.168      334.511        4.531      855.423
02/03/2014  13:41:00      -23.251      -20.189       11.029       47.451       26.748       20.188     2251.576      715.445      407.549        0.222        0.169       30.793       18.835        0.374      334.786        4.989      855.405
02/03/2014  13:42:00      -96.954      -25.041       -0.856       47.917       31.742       22.442     2296.030     1007.524      503.633        0.692        0.190      100.136       24.688        0.061      334.535        4.572      855.394
02/03/2014  13:43:00      -88.113      -42.426       -2.765       53.552       29.419       22.057     2867.824      865.480      486.524        0.689        0.211       97.795       19.928        0.042      334.461        4.449      855.394
02/03/2014  13:44:00     -161.348      -65.828      -11.842       34.951       28.649       17.693     1221.598      820.768      313.050        1.643        0.118      174.260        9.978        0.003      334.289        4.162      855.400
02/03/2014  13:45:00     -127.714      -49.524       -7.461       43.027       40.262       21.114     1851.323     1621.050      445.814        1.137        0.196      136.980       17.438        0.016      334.341        4.249      855.403
02/03/2014  13:46:00     -119.490      -35.880       -1.577       44.519       38.088       23.736     1981.908     1450.718      563.397        0.978        0.200      124.761       22.049        0.031      334.493        4.503      855.400
02/03/2014  13:47:00      -23.183       21.321       -6.413       39.465       51.580       28.507     1557.472     2660.479      812.628        0.303        0.252       31.497       32.399        1.058      334.691        4.832      855.398
02/03/2014  13:48:00      -17.444       79.113        5.296       27.136       28.272       24.368      736.389      799.304      593.776        0.436        0.106       81.013        4.287        0.003      334.855        5.102      855.391
02/03/2014  13:49:00      -75.811       17.490       -9.971       36.457       39.479       23.755     1329.117     1558.628      564.299        0.480        0.173       77.803       20.777        0.071      334.931        5.230      855.390
02/03/2014  13:50:00      -56.191      -37.980        9.122       55.608       35.416       26.279     3092.213     1254.318      690.587        0.486        0.252       67.823       23.577        0.121      335.290        5.825      855.384
02/03/2014  13:51:00     -243.165     -159.201        0.258      155.682      118.899       73.825    24236.850    14136.958     5450.198        6.414        2.191      290.644       75.713        0.068      334.752        4.928      855.386
02/03/2014  13:52:00     -224.901      -20.701      -16.038       90.513       93.319       37.696     8192.540     8708.459     1420.970        3.479        0.916      225.852       45.178        0.040      334.549        4.590      855.391
02/03/2014  13:53:00     -165.631       -7.284      -11.797       76.076       52.458       27.783     5787.528     2751.812      771.905        1.847        0.466      165.791       35.475        0.046      334.593        4.665      855.369
02/03/2014  13:54:00     -168.091      -67.818       -3.829       70.955       66.983       38.212     5034.632     4486.744     1460.164        2.192        0.549      181.256       20.709        0.013      334.626        4.720      855.344
02/03/2014  13:55:00     -173.336      -50.240      -14.947      120.172       51.619       35.590    14441.298     2664.514     1266.667        2.558        0.919      180.470       44.279        0.060      334.576        4.639      855.323
02/03/2014  13:56:00      -25.957      -58.293       12.364       42.948       71.871       31.340     1844.493     5165.430      982.194        0.611        0.400       63.811       33.780        0.280      334.857        5.106      855.311
02/03/2014  13:57:00      -81.913     -156.277        4.707       73.186       83.537       39.030     5356.130     6978.497     1523.362        2.250        0.693      176.444       29.788        0.029      334.770        4.960      855.314
02/03/2014  13:58:00     -165.673     -114.164        6.211      107.705       87.041       51.315    11600.437     7576.064     2633.272        3.116        1.090      201.199       58.792        0.085      334.777        4.971      855.318
02/03/2014  13:59:00     -167.447      -84.390        6.550       95.456       86.692       43.477     9111.809     7515.477     1890.274        2.686        0.926      187.510       47.588        0.064      334.717        4.870      855.306
02/03/2014  14:00:00     -154.207     -176.477       -0.551       91.369       96.133       54.795     8348.205     9241.542     3002.494        3.775        1.030      234.359       48.022        0.042      334.765        4.950      855.310
02/03/2014  14:01:00      -90.379      -93.550       13.079       94.244       76.173       46.870     8881.916     5802.254     2196.788        1.698        0.844      130.077       37.367        0.083      334.816        5.038      855.308
02/03/2014  14:02:00     -173.714     -137.203      -13.280       53.444       44.498       29.197     2856.273     1980.086      852.470        2.743        0.284      221.362       15.745        0.005      334.665        4.784      855.310
02/03/2014  14:03:00     -155.193      -98.673      -13.464       91.431       62.300       38.942     8359.540     3881.296     1516.470        2.388        0.688      183.905       37.876        0.042      334.686        4.820      855.303
02/03/2014  14:04:00     -253.956      -56.263       -8.481       78.820       85.845       45.684     6212.547     7369.284     2086.998        4.170        0.783      260.114       35.054        0.018      334.773        4.963      855.294
02/03/2014  14:05:00     -212.014     -110.638       -0.956      140.892       99.622       45.306    19850.667     9924.542     2052.677        4.450        1.591      239.145       49.544        0.043      334.927        5.222      855.283
02/03/2014  14:06:00     -178.939      -95.428        6.816      121.256       78.478       49.387    14702.967     6158.772     2439.052        3.223        1.165      202.794       54.202        0.071      334.924        5.215      855.284
02/03/2014  14:07:00      -39.527      -55.520       17.042       59.558       36.335       35.365     3547.108     1320.248     1250.717        0.553        0.306       68.153       34.061        0.250      335.091        5.496      855.266
02/03/2014  14:08:00     -152.613      -61.137       -8.478       84.540       45.299       33.061     7147.053     2052.034     1093.014        1.869        0.515      164.403       28.032        0.029      334.974        5.300      855.255
02/03/2014  14:09:00      -24.436      -47.710       38.771       70.975       68.736       33.996     5037.421     4724.683     1155.718        0.765        0.546       53.604       34.697        0.419      335.173        5.630      855.208
02/03/2014  14:10:00      -40.925     -120.953       -7.552       86.007       79.495       52.628     7397.217     6319.413     2769.697        1.642        0.824      127.689       41.076        0.103      335.172        5.628      855.197
02/03/2014  14:11:00     -127.841     -179.815        5.949      102.712      112.330       62.047    10549.744    12617.992     3849.771        3.786        1.351      220.628       65.109        0.087      334.894        5.166      855.186
02/03/2014  14:12:00     -277.637     -145.847      -11.359      102.404       84.077       51.325    10486.479     7068.881     2634.262        5.933        1.009      313.614       51.958        0.027      334.917        5.204      855.169
02/03/2014  14:13:00     -424.511     -161.073      -11.054      152.579       90.881       63.985    23280.368     8259.396     4094.116       12.095        1.782      454.042       65.124        0.021      334.788        4.989      855.142
02/03/2014  14:14:00     -236.590     -108.492       -9.846      109.437       99.834       64.491    11976.558     9966.893     4159.026        4.697        1.305      260.280       54.291        0.044      334.863        5.113      855.127
02/03/2014  14:15:00     -287.779      -70.806      -12.420       94.306      105.098       52.514     8893.558    11045.486     2757.688        5.534        1.135      296.362       46.510        0.025      334.870        5.125      855.139
02/03/2014  14:16:00     -232.782      -36.423       12.355      126.588       92.317       60.863    16024.502     8522.407     3704.311        4.195        1.413      235.614       64.738        0.075      334.859        5.106      855.152
02/03/2014  14:17:00      -64.538      -98.246       17.346      109.137       76.875       53.322    11910.881     5909.829     2843.212        1.739        1.033      117.548       60.244        0.263      335.036        5.403      855.170
02/03/2014  14:18:00     -344.071     -241.450       -2.454      159.114      159.261       74.614    25317.188    25364.148     5567.216       11.646        2.812      420.336       64.574        0.024      334.776        4.968      855.161
02/03/2014  14:19:00     -120.267     -119.922       -1.433      121.657      102.774       65.496    14800.484    10562.590     4289.689        2.925        1.483      169.839       64.265        0.143      334.829        5.057      855.186
02/03/2014  14:20:00     -117.921      -99.044        2.923       97.282       77.128       54.923     9463.746     5948.793     3016.588        2.107        0.921      153.997       55.126        0.128      335.022        5.379      855.165
02/03/2014  14:21:00     -201.764     -169.299       -4.079      101.831       72.835       57.916    10369.592     5304.988     3354.248        4.420        0.951      263.383       56.128        0.045      334.723        4.880      855.153
02/03/2014  14:22:00     -128.454      -95.476        1.199       92.953       87.423       49.827     8640.244     7642.754     2482.723        2.219        0.938      160.050       53.935        0.114      334.890        5.158      855.134
02/03/2014  14:23:00     -256.110      -85.311       -8.079       74.745       75.515       38.826     5586.767     5702.487     1507.427        4.286        0.640      269.945       33.213        0.015      334.865        5.117      855.131
02/03/2014  14:24:00     -286.054       35.235      -24.068       60.960       70.519       42.230     3716.108     4972.939     1783.379        4.706        0.524      288.216       36.433        0.016      334.677        4.803      855.116
02/03/2014  14:25:00     -157.953      -27.873       -8.719       68.453       33.079       28.192     4685.833     1094.243      794.776        1.619        0.329      160.394       38.064        0.056      334.713        4.865      855.088
02/03/2014  14:26:00     -125.172       26.791       -9.247       46.512       44.540       27.180     2163.396     1983.837      738.776        1.068        0.244      128.007       16.697        0.017      334.755        4.938      855.055
02/03/2014  14:27:00      -96.715       18.138        2.128       42.041       24.609       21.950     1767.457      605.598      481.822        0.627        0.143       98.401       22.662        0.053      334.739        4.909      855.033
02/03/2014  14:28:00      -81.717       16.791       -4.440       34.952       29.997       17.473     1221.648      899.803      305.303        0.470        0.121       83.425       19.451        0.054      334.804        5.018      855.009
02/03/2014  14:29:00      -52.760      -21.361       -9.075       32.581       47.029       21.135     1061.506     2211.771      446.696        0.352        0.186       56.920       15.984        0.079      334.910        5.194      854.978
02/03/2014  14:30:00      -46.464       16.402       -1.648       32.574       33.675       25.501     1061.076     1133.991      650.306        0.264        0.142       49.274       19.919        0.163      335.189        5.657      854.967
02/03/2014  14:31:00      -73.592       30.466        4.959       36.509       30.759       21.551     1332.880      946.137      464.440        0.456        0.137       79.649       23.161        0.085      335.124        5.551      854.952
02/03/2014  14:32:00     -135.661      -73.368       -2.417       62.834       47.912       31.274     3948.124     2295.584      978.075        1.551        0.361      154.230       21.546        0.020      334.963        5.282      854.926
02/03/2014  14:33:00     -172.673       20.395      -15.751       45.456       29.378       20.268     2066.212      863.060      410.807        1.691        0.167      173.873       18.008        0.011      334.841        5.079      854.931
02/03/2014  14:34:00     -123.663      -32.078       -3.156       60.808       34.072       27.263     3697.658     1160.886      743.296        1.097        0.280      127.755       26.242        0.042      335.143        5.581      854.922
02/03/2014  14:35:00     -227.171       29.099      -14.951       98.093       54.600       42.201     9622.206     2981.131     1780.917        3.353        0.719      229.027       39.620        0.030      335.073        5.462      854.930
02/03/2014  14:36:00     -214.625       41.307      -26.352       74.322       68.983       29.217     5523.714     4758.676      853.656        2.980        0.557      218.564       21.813        0.010      334.918        5.204      854.916
02/03/2014  14:37:00     -249.393       -8.180      -30.854       70.212       99.816       34.803     4929.750     9963.218     1211.242        3.966        0.805      249.527       31.318        0.016      334.905        5.183      854.923
02/03/2014  14:38:00      -51.806      -12.009      -15.519       58.499       59.314       40.583     3422.137     3518.156     1647.003        0.583        0.429       53.179       16.160        0.092      335.148        5.588      854.948
02/03/2014  14:39:00       10.321       -7.875       10.734       23.448       38.478       34.264      549.792     1480.558     1174.010        0.174        0.160       12.982       33.271        6.568      335.345        5.918      854.933
02/03/2014  14:40:00      -20.120      -39.793       -0.658       26.541       26.971       23.046      704.411      727.430      531.099        0.198        0.098       44.590       17.998        0.163      335.173        5.631      854.928
02/03/2014  14:41:00      -74.952      -28.284        3.799       87.439       67.934       36.045     7645.504     4614.988     1299.215        0.999        0.678       80.111       37.694        0.221      335.201        5.677      854.928
02/03/2014  14:42:00      -91.349       -0.418        6.525       66.700       37.037       31.448     4448.912     1371.707      988.989        0.760        0.340       91.349       38.194        0.175      335.167        5.621      854.925
02/03/2014  14:43:00     -277.868      -28.994      -17.020       61.967       80.600       41.271     3839.931     6496.328     1703.300        4.519        0.602      279.377       38.872        0.019      334.981        5.308      854.913
02/03/2014  14:44:00     -136.398      -17.770      -13.615       65.850       38.900       29.008     4336.171     1513.226      841.479        1.290        0.335      137.551       34.661        0.063      334.887        5.156      854.915
02/03/2014  14:45:00     -192.542       36.363      -22.574       52.903       40.910       19.379     2798.736     1673.656      375.527        2.188        0.242      195.946       19.657        0.010      334.776        4.967      854.925
02/03/2014  14:46:00      -86.756      -35.391       -3.040       98.566       66.822       33.389     9715.198     4465.188     1114.858        1.204        0.765       93.697       37.128        0.157      335.014        5.366      854.914
02/03/2014  14:47:00        3.754      -99.344       18.117       48.638       45.590       32.332     2365.608     2078.450     1045.363        0.785        0.274       99.415       28.454        0.082      334.963        5.283      854.882
02/03/2014  14:48:00       18.624      -58.096       22.270       53.775       37.151       31.818     2891.729     1380.227     1012.416        0.475        0.264       61.009       33.922        0.309      335.213        5.698      854.864
02/03/2014  14:49:00      -45.487      -62.088        4.815       57.813       57.431       24.009     3342.384     3298.325      576.445        0.658        0.361       76.967       21.782        0.080      334.966        5.287      854.852
02/03/2014  14:50:00      -57.021     -184.513        3.663      122.848       84.464       48.976    15091.654     7134.210     2398.641        3.096        1.231      193.123       16.897        0.008      335.176        5.634      854.829
02/03/2014  14:51:00     -116.328      -17.943        4.536       60.503       69.681       38.381     3660.574     4855.452     1473.130        1.193        0.499      117.704       35.828        0.093      335.209        5.690      854.827
02/03/2014  14:52:00      -46.823       -7.492       25.244       97.977       55.374       46.115     9599.436     3066.288     2126.571        0.884        0.740       47.419       48.600        1.050      335.442        6.079      854.824
02/03/2014  14:53:00     -217.634        8.367       -1.947       72.581       59.504       40.760     5268.055     3540.771     1661.413        2.895        0.524      217.795       29.554        0.018      335.094        5.497      854.804
02/03/2014  14:54:00     -177.218      -61.310        7.223      125.098      117.663       50.108    15649.447    13844.694     2510.858        3.361        1.600      187.523       54.072        0.083      335.158        5.604      854.802
02/03/2014  14:55:00     -175.063     -162.166        0.107      145.269      106.863       57.685    21102.938    11419.720     3327.566        4.639        1.793      238.632       54.929        0.053      334.907        5.187      854.787
02/03/2014  14:56:00     -258.726     -190.461      -12.420       98.762       80.973       48.243     9754.029     6556.642     2327.355        6.100        0.932      321.270       39.998        0.016      334.868        5.121      854.756
02/03/2014  14:57:00     -212.110     -158.614       -0.783      113.328       77.427       59.297    12843.316     5994.955     3516.177        4.625        1.118      264.857       45.324        0.029      334.930        5.224      854.734
02/03/2014  14:58:00     -167.172     -168.998       -0.587       92.191       98.023       52.624     8499.216     9608.465     2769.252        3.869        1.044      237.712       61.402        0.067      334.895        5.165      854.731
02/03/2014  14:59:00     -148.414     -167.432        3.862       95.025       90.174       49.235     9029.780     8131.359     2424.101        3.483        0.979      223.741       53.853        0.058      334.907        5.186      854.726
02/03/2014  15:00:00     -191.346      -98.894       -1.723       94.459       74.636       47.538     8922.432     5570.593     2259.816        3.157        0.838      215.391       39.596        0.034      335.018        5.371      854.717
02/03/2014  15:01:00     -158.692      -21.064       -0.279      117.601       50.843       41.216    13829.935     2585.015     1698.782        2.187        0.906      160.084       53.060        0.110      335.011        5.362      854.724
02/03/2014  15:02:00     -168.729     -101.041      -10.922      106.671       70.959       43.158    11378.665     5035.175     1862.590        2.853        0.914      196.669       42.093        0.046      334.958        5.274      854.728
02/03/2014  15:03:00     -138.306     -144.213      -10.145       74.424       67.539       43.790     5538.997     4561.455     1917.605        2.602        0.601      199.814       38.167        0.036      334.981        5.310      854.729
02/03/2014  15:04:00      -48.957      -86.272        1.293       51.286       58.148       34.142     2630.257     3381.150     1165.659        0.851        0.359       99.195       29.654        0.089      335.064        5.451      854.708
02/03/2014  15:05:00     -162.602      -83.785      -12.771       75.518       59.342       30.224     5702.919     3521.444      913.475        2.188        0.507      182.919       31.529        0.030      335.073        5.462      854.686
02/03/2014  15:06:00     -132.724      -41.198       -3.041       67.769       56.286       34.540     4592.655     3168.097     1193.044        1.414        0.448      138.971       30.986        0.050      335.137        5.571      854.691
02/03/2014  15:07:00      -96.885      -47.042        2.043       58.685       37.689       30.969     3443.947     1420.446      959.062        0.871        0.291      107.702       28.230        0.069      335.245        5.751      854.718
02/03/2014  15:08:00      -83.129      -47.088        1.246       57.509       50.856       27.785     3307.271     2586.301      771.980        0.790        0.333       95.539       25.652        0.072      335.350        5.925      854.722
02/03/2014  15:09:00     -185.698      -88.938       10.395       76.441       84.107       43.231     5843.207     7073.922     1868.954        2.864        0.739      205.897       38.548        0.035      335.218        5.705      854.731
02/03/2014  15:10:00     -219.754      -37.633       -9.583      139.359       87.042       54.529    19420.980     7576.296     2973.397        3.988        1.499      222.953       72.315        0.105      335.175        5.633      854.720
02/03/2014  15:11:00      -28.913       29.589       -3.443       57.169       55.656       49.229     3268.339     3097.608     2423.481        0.525        0.439       41.370       30.542        0.545      335.386        5.985      854.722
02/03/2014  15:12:00      -90.458       -6.131        2.639      102.579      107.830       46.264    10522.417    11627.239     2140.353        1.625        1.215       90.666       38.767        0.183      335.498        6.172      854.697
02/03/2014  15:13:00     -242.763      -67.793      -17.211      126.128       94.675       56.553    15908.306     8963.415     3198.228        4.594        1.403      252.052       19.705        0.006      335.269        5.788      854.698
02/03/2014  15:14:00     -271.574       87.889      -41.504       99.246      114.223       58.855     9849.828    13046.975     3463.895        5.478        1.318      285.442       56.323        0.039      335.077        5.471      854.712
02/03/2014  15:15:00      -79.399       46.619      -10.190       84.146       74.795       48.955     7080.578     5594.354     2396.554        1.182        0.754       92.074       45.847        0.248      335.195        5.668      854.706
02/03/2014  15:16:00     -239.181      -79.781      -15.414      176.462      109.043       58.455    31138.739    11890.434     3416.944        5.512        2.322      252.136       50.217        0.040      335.170        5.624      854.679
02/03/2014  15:17:00     -338.324      -97.969      -26.082      147.265      104.869       66.666    21686.961    10997.503     4444.322        8.093        1.856      352.223       66.973        0.036      335.100        5.507      854.690
02/03/2014  15:18:00     -263.219        6.221      -32.781      145.002      123.888       68.185    21025.453    15348.297     4649.242        5.570        2.051      263.292       63.639        0.058      335.095        5.501      854.717
02/03/2014  15:19:00     -332.064       51.818      -56.102      102.194       62.100       39.265    10443.524     3856.382     1541.741        6.597        0.792      336.083       35.216        0.011      334.981        5.310      854.714
02/03/2014  15:20:00     -287.363       28.402      -29.114       87.749       76.798       47.252     7699.963     5897.959     2232.775        5.003        0.792      288.763       32.034        0.012      335.073        5.463      854.722
02/03/2014  15:21:00     -103.876        6.654       -1.001       88.892       96.731       53.136     7901.710     9356.844     2823.468        1.546        1.004      104.089       41.724        0.161      335.339        5.904      854.711
02/03/2014  15:22:00     -142.830       -4.773       -0.648      106.250       81.234       62.959    11289.142     6598.962     3963.890        2.113        1.093      142.910       52.990        0.137      335.183        5.646      854.718
02/03/2014  15:23:00     -295.144      -45.368      -35.350      121.413      103.680       70.629    14741.096    10749.491     4988.443        6.044        1.524      298.611       74.421        0.062      335.123        5.546      854.714
02/03/2014  15:24:00     -271.697      -44.797      -27.807       90.663       67.121       37.075     8219.782     4505.225     1374.562        4.535        0.705      275.365       39.058        0.020      335.021        5.376      854.712
02/03/2014  15:25:00     -121.052      -12.756       -3.691       75.555       69.767       34.280     5708.526     4867.447     1175.152        1.329        0.588      121.722       20.184        0.027      335.324        5.881      854.698
02/03/2014  15:26:00     -212.595       52.767      -22.836       96.602       76.746       50.067     9331.978     5889.956     2506.750        3.311        0.886      219.045       46.928        0.046      335.262        5.777      854.688
02/03/2014  15:27:00     -112.548      175.391      -11.573       76.287      101.198       54.466     5819.715    10241.085     2966.598        3.129        0.951      208.397       45.661        0.048      335.343        5.912      854.685
02/03/2014  15:28:00     -245.098        9.680      -16.357      118.843      132.680       57.438    14123.586    17603.954     3299.157        4.772        1.751      245.289       67.432        0.076      335.407        6.018      854.658
02/03/2014  15:29:00     -224.915      -76.241      -11.734      120.179       68.226       53.956    14442.940     4654.829     2911.267        3.927        1.100      237.486       65.499        0.076      335.294        5.829      854.695
02/03/2014  15:30:00     -135.624      -75.745        1.537       89.379       77.618       44.286     7988.665     6024.543     1961.231        2.005        0.799      155.342       42.457        0.075      335.397        6.001      854.706
02/03/2014  15:31:00     -131.614      -16.717        7.475       91.381       83.901       39.347     8350.554     7039.300     1548.161        1.729        0.847      132.672       43.866        0.109      335.570        6.290      854.727
02/03/2014  15:32:00      -66.747       11.852      -13.553       56.848       60.330       42.995     3231.651     3639.766     1848.598        0.675        0.436       67.792       38.415        0.321      335.863        6.779      854.733
02/03/2014  15:33:00     -137.701       46.374       -3.860       87.158       55.183       38.450     7596.595     3045.205     1478.400        1.662        0.606      145.300       45.707        0.099      335.701        6.509      854.728
02/03/2014  15:34:00     -178.833      -22.805       -9.927      100.321      121.731       58.358    10064.214    14818.333     3405.706        3.044        1.414      180.281       33.031        0.034      335.557        6.269      854.731
02/03/2014  15:35:00     -116.174       -5.563      -11.311      118.097       81.536       53.166    13946.842     6648.044     2826.625        1.853        1.171      116.307       56.176        0.233      335.581        6.308      854.707
02/03/2014  15:36:00     -271.069      -34.152      -41.173      131.956       73.744       46.214    17412.499     5438.111     2135.689        5.066        1.249      273.212       51.201        0.035      335.257        5.770      854.726
02/03/2014  15:37:00     -131.048      -55.044       -6.422      121.711       66.510       46.236    14813.560     4423.531     2137.734        2.081        1.069      142.139       47.719        0.113      335.388        5.987      854.733
02/03/2014  15:38:00     -200.225      -42.476       -7.628      107.219       94.040       48.997    11495.986     8843.484     2400.727        3.234        1.137      204.681       45.541        0.050      335.190        5.658      854.749
02/03/2014  15:39:00     -250.952       60.668      -29.628       89.748       70.442       52.970     8054.763     4962.131     2805.779        4.168        0.791      258.181       45.015        0.030      335.235        5.731      854.769
02/03/2014  15:40:00     -220.420      -47.582      -17.860       80.166       63.464       38.461     6426.609     4027.705     1479.211        3.155        0.597      225.497       41.852        0.034      335.131        5.559      854.793
02/03/2014  15:41:00     -349.498      -38.241      -33.238      133.378      141.298       58.689    17789.702    19965.104     3444.357        8.295        2.060      351.584       58.762        0.028      335.026        5.384      854.773
02/03/2014  15:42:00     -328.067      -67.198      -31.517      110.539       75.967       59.834    12218.825     5770.954     3580.059        6.735        1.078      334.879       47.813        0.020      335.093        5.495      854.782
02/03/2014  15:43:00     -311.065       29.109      -30.963      116.283      103.084       56.612    13521.681    10626.382     3204.874        6.296        1.368      312.424       45.425        0.021      335.245        5.748      854.781
02/03/2014  15:44:00     -320.718      -48.738      -26.114      124.386       90.601       55.587    15471.918     8208.497     3089.939        6.634        1.339      324.400       57.968        0.032      335.114        5.529      854.811
02/03/2014  15:45:00     -332.680      -97.258      -24.488      154.994      117.997       76.748    24023.168    13923.262     5890.213        8.228        2.192      346.605       72.709        0.044      335.150        5.590      854.822
02/03/2014  15:46:00     -366.301      -68.327      -23.824      122.492      114.088       55.211    15004.217    13016.167     3048.221        8.524        1.553      372.619       56.178        0.023      335.175        5.633      854.831
02/03/2014  15:47:00     -334.127     -118.278      -16.229      128.784      111.028       60.780    16585.203    12327.323     3694.148        7.924        1.630      354.443       53.015        0.022      335.178        5.636      854.836
02/03/2014  15:48:00     -258.526      -16.942      -17.769       99.091      130.159       51.451     9819.096    16941.284     2647.244        4.842        1.470      259.081       46.807        0.033      335.127        5.553      854.872
02/03/2014  15:49:00     -262.455     -110.261        0.196      165.958      109.278       71.696    27541.917    11941.760     5140.249        6.282        2.231      284.675       65.852        0.054      335.131        5.560      854.844
02/03/2014  15:50:00     -134.944       20.086       -6.071       86.425      117.847       40.361     7469.285    13887.820     1629.032        2.081        1.149      136.431       35.384        0.067      335.234        5.731      854.878
02/03/2014  15:51:00     -162.286       10.090       -5.422       83.581       92.453       45.375     6985.861     8547.558     2058.857        2.203        0.880      162.599       50.301        0.096      335.350        5.924      854.887
02/03/2014  15:52:00     -144.252      -10.364      -22.326       81.781       74.545       43.944     6688.072     5556.949     1931.085        1.779        0.709      144.624       48.409        0.112      335.225        5.718      854.905
02/03/2014  15:53:00      -53.555       22.911       19.464       74.164       32.002       36.102     5500.258     1024.103     1303.332        0.580        0.391       58.249       42.363        0.529      335.399        6.005      854.902
02/03/2014  15:54:00      -49.062      -36.922        0.227       73.900       54.883       34.830     5461.156     3012.182     1213.111        0.673        0.484       61.403       33.609        0.300      335.370        5.957      854.908
02/03/2014  15:55:00      -81.818      -37.144        8.819       83.524       74.926       38.332     6976.288     5613.947     1469.369        1.110        0.703       89.855       34.239        0.145      335.387        5.986      854.935
02/03/2014  15:56:00      -47.370       29.308       13.891       34.975       59.996       31.499     1223.277     3599.498      992.162        0.455        0.291       55.703       19.582        0.124      335.589        6.323      854.955
02/03/2014  15:57:00     -164.540       49.012      -31.310       66.551       84.470       34.294     4429.063     7135.125     1176.112        2.160        0.637      171.685       30.939        0.032      335.221        5.708      854.966
02/03/2014  15:58:00     -146.614       23.267      -21.829       72.411       81.908       42.017     5243.389     6708.871     1765.401        1.811        0.686      148.449       41.110        0.077      335.069        5.457      854.959
02/03/2014  15:59:00     -148.854       -9.364      -19.566      101.241      107.236       48.031    10249.727    11499.471     2306.933        2.334        1.203      149.148       45.243        0.092      335.171        5.626      854.956
02/03/2014  16:00:00     -178.636      -27.487       -4.684      111.063       95.422       52.759    12334.946     9105.341     2783.544        2.845        1.211      180.738       44.012        0.059      335.220        5.707      854.962
02/03/2014  16:01:00     -120.247        6.286      -12.299       66.494       72.870       33.423     4421.431     5309.987     1117.103        1.275        0.542      120.412       24.736        0.042      335.050        5.425      854.969
02/03/2014  16:02:00     -101.906       -4.927      -10.339       65.967       57.433       34.926     4351.624     3298.599     1219.793        0.969        0.444      102.025       14.339        0.020      335.146        5.585      854.968
02/03/2014  16:03:00     -173.816      -87.970      -12.421       96.230       56.943       37.346     9260.159     3242.452     1394.746        2.600        0.695      194.809       29.769        0.023      335.121        5.542      854.997
02/03/2014  16:04:00     -159.822       -0.026      -26.327       77.397      100.065       44.461     5990.276    10012.977     1976.807        2.211        0.899      159.822       33.282        0.043      334.931        5.227      855.015
02/03/2014  16:05:00     -200.368      117.281      -23.991       90.337      108.692       63.740     8160.737    11813.857     4062.831        3.925        1.202      232.168       53.314        0.053      334.909        5.189      855.032
02/03/2014  16:06:00     -122.430      232.094      -20.647       83.567      141.606       62.106     6983.497    20052.339     3857.175        5.008        1.545      262.406       64.788        0.061      334.833        5.063      855.037
02/03/2014  16:07:00     -151.538      156.645      -13.365       98.995      129.671       65.767     9800.084    16814.587     4325.297        3.930        1.547      217.948       60.733        0.078      334.912        5.195      855.042
02/03/2014  16:08:00     -155.076       65.655      -28.959       70.101       78.966       39.377     4914.217     6235.574     1550.560        2.095        0.635      168.402       30.186        0.032      334.948        5.256      855.040
02/03/2014  16:09:00     -101.617       72.826      -12.877       73.128       93.483       34.737     5347.675     8739.089     1206.689        1.554        0.765      125.018       34.232        0.075      334.991        5.329      855.044
02/03/2014  16:10:00     -190.585       57.345      -27.191      129.486       81.770       59.764    16766.713     6686.287     3571.695        3.368        1.351      199.026       71.546        0.129      334.990        5.326      855.054
02/03/2014  16:11:00      -88.221        7.336        2.778       73.845       55.002       40.339     5453.112     3025.247     1627.253        0.897        0.505       88.526       35.794        0.163      335.032        5.397      855.055
02/03/2014  16:12:00     -167.030       86.373       -7.367       75.781       67.366       55.733     5742.793     4538.154     3106.192        2.440        0.669      188.041       50.364        0.072      334.926        5.218      855.065
02/03/2014  16:13:00     -188.575      -12.668      -33.501       81.997      108.314       49.049     6723.434    11731.958     2405.789        2.885        1.043      189.000       36.169        0.037      334.865        5.117      855.059
02/03/2014  16:14:00     -275.279      -89.321      -35.579       98.092      123.606       46.901     9622.131    15278.424     2199.675        5.606        1.355      289.407       24.811        0.007      334.749        4.923      855.054
02/03/2014  16:15:00     -240.553      -52.108        5.192      149.651       89.835       56.870    22395.431     8070.320     3234.229        4.715        1.685      246.133       59.487        0.058      334.864        5.115      855.079
02/03/2014  16:16:00     -171.696      -25.058       -7.774       83.164       99.822       47.390     6916.317     9964.462     2245.775        2.464        0.956      173.515       36.763        0.045      334.876        5.137      855.101
02/03/2014  16:17:00      -79.368       35.460       -1.504       62.840       90.453       40.583     3948.881     8181.784     1646.979        1.067        0.689       86.929       31.178        0.129      335.022        5.378      855.117
02/03/2014  16:18:00     -151.097       29.981      -23.084       79.099       80.103       45.480     6256.604     6416.559     2068.389        1.950        0.737      154.043       40.942        0.071      334.982        5.313      855.127
02/03/2014  16:19:00     -107.842       57.116       -7.393       88.194      100.101       52.865     7778.100    10020.142     2794.657        1.777        1.030      122.033       33.483        0.075      335.046        5.419      855.126
02/03/2014  16:20:00     -204.885       94.175      -31.384       97.571       78.805       56.563     9520.118     6210.161     3199.380        3.538        0.946      225.492       50.383        0.050      334.885        5.151      855.154
02/03/2014  16:21:00     -155.330      -16.742      -22.092      114.722       75.789       56.043    13161.195     5743.970     3140.792        2.347        1.102      156.229       53.969        0.119      334.951        5.262      855.144
02/03/2014  16:22:00     -146.880      -39.116      -10.879       74.616       68.192       52.942     5567.497     4650.092     2802.896        1.812        0.651      151.999       47.092        0.096      334.936        5.235      855.151
02/03/2014  16:23:00     -136.360      -48.112       -6.042       57.912       54.546       33.647     3353.810     2975.317     1132.148        1.420        0.373      144.598       19.614        0.018      334.881        5.145      855.145
02/03/2014  16:24:00     -133.240      -23.947      -25.998       82.909       51.918       43.274     6873.853     2695.430     1872.606        1.522        0.572      135.375       33.815        0.062      334.844        5.083      855.140
02/03/2014  16:25:00      -53.147       27.671       -1.470       64.754       57.138       35.353     4193.108     3264.788     1249.804        0.615        0.435       59.919       28.125        0.220      334.909        5.192      855.157
02/03/2014  16:26:00     -137.906       97.225      -21.909      112.272       65.839       44.752    12605.041     4334.725     2002.771        2.394        0.947      168.733       59.028        0.122      334.762        4.948      855.166
02/03/2014  16:27:00     -171.139       91.155      -36.544       76.489       81.171       37.389     5850.625     6588.671     1397.914        2.638        0.692      193.902       27.595        0.020      334.750        4.924      855.167
02/03/2014  16:28:00      -74.964       20.368        3.187      103.333       81.616       40.074    10677.693     6661.114     1605.888        1.249        0.947       77.682       45.661        0.346      334.889        5.158      855.162
02/03/2014  16:29:00     -110.207       45.507      -12.034       61.132       59.054       38.826     3737.082     3487.347     1507.473        1.155        0.437      119.233       28.530        0.057      334.933        5.232      855.169
02/03/2014  16:30:00     -199.028      113.431      -27.623      117.519       60.197       47.043    13810.694     3623.712     2213.027        3.644        0.982      229.082       42.858        0.035      334.853        5.098      855.163
02/03/2014  16:31:00     -107.646       44.011       -0.078       79.968       58.170       37.644     6394.858     3383.714     1417.049        1.236        0.560      116.296       40.529        0.121      334.928        5.223      855.170
02/03/2014  16:32:00     -138.694       51.782       -4.163       91.644       86.976       47.541     8398.644     7564.891     2260.120        2.008        0.911      148.045       32.777        0.049      334.835        5.069      855.187
02/03/2014  16:33:00     -216.054       86.729      -18.924      106.000       82.391       52.124    11235.944     6788.341     2716.936        3.765        1.037      232.811       53.297        0.052      334.678        4.806      855.204
02/03/2014  16:34:00     -163.849       86.158      -46.705       80.394      100.566       47.233     6463.173    10113.611     2230.943        2.763        0.940      185.121       32.422        0.031      334.653        4.765      855.212
02/03/2014  16:35:00     -197.478       -0.101      -26.038       76.588      103.129       46.104     5865.776    10635.637     2125.548        2.915        0.931      197.478       39.813        0.041      334.710        4.859      855.220
02/03/2014  16:36:00     -111.872      -28.820      -14.882       98.062       90.208       39.402     9616.238     8137.468     1552.541        1.643        0.965      115.525       39.444        0.117      334.683        4.814      855.220
02/03/2014  16:37:00     -160.310      -54.489      -11.317       78.565       75.066       39.573     6172.449     5634.909     1565.997        2.108        0.669      169.317       31.316        0.034      334.636        4.736      855.216
02/03/2014  16:38:00     -115.259      -35.280       -0.187      104.514       90.088       52.721    10923.104     8115.863     2779.516        1.817        1.091      120.538       55.433        0.211      334.614        4.703      855.208
02/03/2014  16:39:00     -132.230       17.200       -6.521       85.515       71.839       33.907     7312.759     5160.812     1149.672        1.572        0.681      133.344       29.210        0.048      334.607        4.689      855.210
02/03/2014  16:40:00     -164.276        8.468      -17.601      102.331       54.369       53.622    10471.582     2955.971     2875.321        2.183        0.815      164.494       47.411        0.083      334.591        4.662      855.220
02/03/2014  16:41:00     -126.895      -20.906       -4.027       84.657       70.124       40.638     7166.837     4917.317     1651.451        1.514        0.687      128.606       46.451        0.130      334.633        4.732      855.230
02/03/2014  16:42:00     -188.988      -13.056       -5.225      123.489       79.882       54.957    15249.424     6381.203     3020.306        3.028        1.233      189.439       68.007        0.129      334.615        4.701      855.231
02/03/2014  16:43:00     -140.189      -24.649       13.446      131.181       84.686       50.056    17208.459     7171.693     2505.614        2.366        1.344      142.340       68.304        0.230      334.679        4.809      855.236
02/03/2014  16:44:00     -168.831      -40.999      -10.099      115.297       72.888       49.475    13293.309     5312.676     2447.748        2.567        1.053      173.738       61.911        0.127      334.655        4.767      855.236
02/03/2014  16:45:00     -124.854      -27.337      -22.975      114.437       85.798       48.667    13095.895     7361.378     2368.506        1.984        1.141      127.811       40.226        0.099      334.637        4.738      855.246
02/03/2014  16:46:00     -203.144      -45.014      -24.057       88.893       79.884       51.892     7901.889     6381.528     2692.827        3.042        0.849      208.071       45.664        0.048      334.591        4.660      855.257
02/03/2014  16:47:00     -131.916       -9.753       -4.308       74.170       72.693       44.028     5501.164     5284.238     1938.503        1.512        0.636      132.276       31.572        0.057      334.581        4.646      855.260
02/03/2014  16:48:00     -123.429       -6.326       -1.563       80.497       97.795       41.508     6479.723     9563.872     1722.895        1.652        0.888      123.591       33.270        0.072      334.607        4.689      855.270
02/03/2014  16:49:00      -82.239       48.734       -9.747       82.052       67.468       45.082     6732.451     4551.906     2032.379        1.127        0.666       95.594       45.623        0.228      334.650        4.762      855.278
02/03/2014  16:50:00      -94.303       12.894       -8.512       61.330       78.881       36.586     3761.384     6222.267     1338.550        1.023        0.566       95.180       21.216        0.050      334.641        4.746      855.276
02/03/2014  16:51:00     -150.913       45.265      -21.744       83.707       70.966       45.385     7006.887     5036.149     2059.834        1.970        0.705      157.555       42.596        0.073      334.602        4.679      855.283
02/03/2014  16:52:00      -95.440       11.003        3.486       94.135       78.761       45.717     8861.458     6203.332     2090.010        1.320        0.858       96.072       49.536        0.266      334.635        4.737      855.278
02/03/2014  16:53:00     -107.528       -2.434       -5.142       71.574       75.853       53.929     5122.777     5753.685     2908.375        1.269        0.689      107.555       29.967        0.078      334.603        4.684      855.277
02/03/2014  16:54:00     -188.103      -60.992      -23.615      112.481       66.518       45.345    12651.988     4424.706     2056.187        2.939        0.957      197.745       41.035        0.043      334.491        4.495      855.288
02/03/2014  16:55:00     -217.042      -74.541      -14.850       76.849       89.834       47.269     5905.734     8070.094     2234.333        3.454        0.811      229.486       32.938        0.021      334.467        4.456      855.275
02/03/2014  16:56:00     -143.355      -40.139        1.442       49.979       67.288       34.138     2497.921     4527.650     1165.383        1.518        0.410      148.868       24.527        0.027      334.497        4.508      855.294
02/03/2014  16:57:00     -164.982      -42.445      -12.424       97.089      118.618       47.836     9426.234    14070.270     2288.242        2.748        1.289      170.355       41.105        0.058      334.451        4.430      855.294
02/03/2014  16:58:00      -91.991      -44.900       -3.165       88.916       66.462       35.503     7906.092     4417.191     1260.454        1.203        0.679      102.364       35.940        0.123      334.484        4.486      855.297
02/03/2014  16:59:00     -146.749       17.812      -12.380       75.790       74.780       41.871     5744.103     5592.107     1753.183        1.755        0.654      147.826       36.444        0.061      334.457        4.441      855.290
02/03/2014  17:00:00     -174.942        3.163      -23.216       78.914      117.665       51.598     6227.473    13845.154     2662.346        2.694        1.137      174.971       34.090        0.038      334.434        4.402      855.274
02/03/2014  17:01:00     -180.516      -46.289       -7.875       84.313       83.155       47.676     7108.625     6914.833     2273.001        2.554        0.815      186.357       18.938        0.010      334.402        4.350      855.276
02/03/2014  17:02:00     -190.194       -5.875       -8.231      110.119       99.463       51.308    12126.260     9892.830     2632.497        3.046        1.233      190.285       45.741        0.058      334.385        4.321      855.268
02/03/2014  17:03:00     -154.942       27.184      -17.400      104.304      108.082       48.624    10879.352    11681.808     2364.311        2.498        1.246      157.308       36.520        0.054      334.358        4.276      855.270
02/03/2014  17:04:00     -217.507      -50.809      -11.046      183.539       67.402       47.922    33686.398     4543.035     2296.546        4.526        2.026      223.363       46.856        0.044      334.362        4.283      855.261
02/03/2014  17:05:00     -211.407      -89.530        8.000      136.109      107.440       55.007    18525.688    11543.314     3025.745        4.293        1.655      229.584       59.572        0.067      334.312        4.200      855.242
02/03/2014  17:06:00     -185.773      -31.129        0.186      139.927       67.343       58.701    19579.641     4535.076     3445.812        3.152        1.378      188.363       66.847        0.126      334.299        4.176      855.239
02/03/2014  17:07:00     -198.206       11.814      -18.043      116.626      121.714       51.071    13601.735    14814.387     2608.259        3.538        1.551      198.557       40.679        0.042      334.296        4.171      855.234
02/03/2014  17:08:00     -131.896      -36.455      -14.925       75.319       93.146       44.473     5672.897     8676.239     1977.858        1.763        0.816      136.842       37.265        0.074      334.284        4.154      855.229
02/03/2014  17:09:00     -114.923      -21.481      -11.434       52.835       38.816       35.795     2791.490     1506.682     1281.302        0.969        0.279      116.913       17.318        0.022      334.309        4.197      855.226
02/03/2014  17:10:00      -92.984      -28.611      -10.507      115.936       62.258       52.363    13441.261     3876.049     2741.914        1.481        1.003       97.286       50.716        0.272      334.295        4.174      855.219
02/03/2014  17:11:00     -133.117       27.736      -12.715       74.489       62.124       48.714     5548.642     3859.441     2373.081        1.521        0.589      135.976       44.409        0.107      334.261        4.116      855.242
02/03/2014  17:12:00     -213.038      -54.160      -19.744      104.532       94.977       43.580    10926.963     9020.683     1899.208        3.527        1.092      219.815       35.539        0.026      334.214        4.034      855.246
02/03/2014  17:13:00     -205.666      -83.009      -26.409       98.056       70.611       47.221     9615.057     4985.944     2229.861        3.336        0.842      221.786       29.584        0.018      334.211        4.031      855.260
02/03/2014  17:14:00     -287.268      -77.133       -7.385      117.636       82.581       54.518    13838.319     6819.555     2972.229        5.607        1.182      297.443       55.380        0.035      334.098        3.842      855.259
02/03/2014  17:15:00     -224.447      -32.794      -11.055       78.564       67.785       42.145     6172.262     4594.809     1776.214        3.206        0.627      226.830       39.272        0.030      334.085        3.821      855.279
02/03/2014  17:16:00     -206.698      -16.774      -13.487       78.237       58.620       34.944     6121.106     3436.273     1221.096        2.698        0.539      207.377       33.105        0.025      334.014        3.705      855.295
02/03/2014  17:17:00     -154.034      -12.500       -8.130       55.643       52.299       33.157     3096.111     2735.134     1099.411        1.544        0.347      154.540       20.291        0.017      334.026        3.725      855.300
02/03/2014  17:18:00     -235.446      -31.989       -9.583      123.959       59.817       35.440    15365.712     3578.068     1256.015        3.837        1.010      237.609       42.404        0.032      333.985        3.657      855.296
02/03/2014  17:19:00     -208.279      -23.324      -18.791       93.386       55.538       41.737     8721.030     3084.497     1741.992        2.891        0.677      209.580       47.808        0.052      333.995        3.672      855.306
02/03/2014  17:20:00     -166.329      -39.501      -15.653       56.090       44.398       33.042     3146.097     1971.169     1091.800        1.784        0.310      170.955       23.512        0.019      334.009        3.697      855.319
02/03/2014  17:21:00     -204.215      -49.805       -7.101       68.978       58.201       36.215     4757.918     3387.307     1311.528        2.684        0.473      210.201       26.317        0.016      333.925        3.558      855.335
02/03/2014  17:22:00     -190.375      -48.788       -8.091       65.480       67.208       37.573     4287.577     4516.968     1411.745        2.445        0.511      196.527       31.677        0.026      333.906        3.525      855.336
02/03/2014  17:23:00     -212.093      -25.610       -1.876       72.968       60.625       41.017     5324.296     3675.353     1682.371        2.816        0.534      213.633       34.540        0.026      333.890        3.498      855.324
02/03/2014  17:24:00     -161.150      -49.610       -3.667       57.056       75.360       38.268     3255.362     5679.182     1464.428        1.942        0.520      168.613       37.335        0.049      333.903        3.521      855.319
02/03/2014  17:25:00     -149.871      -39.184      -13.063       68.582       44.730       32.059     4703.431     2000.813     1027.785        1.595        0.387      154.909       22.850        0.022      333.860        3.452      855.329
02/03/2014  17:26:00     -195.777       -7.012      -10.780       76.224       85.682       44.781     5810.065     7341.397     2005.375        2.682        0.758      195.903       36.455        0.035      333.843        3.421      855.343
02/03/2014  17:27:00     -160.356      -27.094       -0.841       68.166       66.231       36.162     4646.603     4386.564     1307.701        1.839        0.517      162.629       38.640        0.056      333.810        3.368      855.356
02/03/2014  17:28:00     -148.897      -31.399      -18.499       89.128       64.952       39.359     7943.835     4218.747     1549.130        1.860        0.686      152.171       45.348        0.089      333.809        3.365      855.355
02/03/2014  17:29:00     -124.357       10.992      -17.316       82.125       71.014       34.500     6744.466     5042.948     1190.240        1.443        0.649      124.842       10.971        0.008      333.786        3.328      855.365
02/03/2014  17:30:00      -85.326       37.207        2.740       84.151       53.165       27.636     7081.395     2826.570      763.758        0.967        0.534       93.086       29.947        0.104      333.766        3.294      855.385
02/03/2014  17:31:00      -93.579        4.710      -19.500       62.035       55.126       41.291     3848.369     3038.865     1704.958        0.887        0.430       93.698       35.484        0.143      333.783        3.324      855.397
02/03/2014  17:32:00     -141.001      -31.813      -14.368       51.190       37.352       27.891     2620.417     1395.138      777.934        1.295        0.240      144.545       17.649        0.015      333.829        3.400      855.413
02/03/2014  17:33:00     -162.663      -59.899      -20.433       58.450       48.724       36.692     3416.458     2374.063     1346.291        1.880        0.357      173.341       20.094        0.013      333.791        3.335      855.447
02/03/2014  17:34:00     -176.707      -49.220       -8.934       78.190       62.308       40.201     6113.636     3882.330     1616.142        2.267        0.581      183.434       34.343        0.035      333.731        3.235      855.471
02/03/2014  17:35:00     -136.104      -61.450      -18.420       90.682       55.185       33.975     8223.239     3045.413     1154.278        1.753        0.621      149.333       16.384        0.012      333.734        3.240      855.493
02/03/2014  17:36:00     -133.839      -40.714        0.951       92.372       56.071       38.118     8532.600     3143.990     1452.955        1.635        0.656      139.895       37.106        0.070      333.679        3.150      855.501
02/03/2014  17:37:00     -215.296      -60.555      -23.816       79.353       44.086       32.034     6296.895     1943.546     1026.203        2.992        0.463      223.650       30.389        0.018      333.657        3.113      855.504
02/03/2014  17:38:00     -165.147      -54.165      -35.914       85.139       63.581       46.650     7248.619     4042.527     2176.197        2.248        0.673      173.803       26.257        0.023      333.676        3.144      855.498
02/03/2014  17:39:00     -151.227      -38.035        6.946       90.391       70.411       39.246     8170.610     4957.640     1540.221        1.951        0.733      155.936       39.902        0.065      333.602        3.023      855.520
02/03/2014  17:40:00     -179.164      -27.740      -14.208       77.168       56.638       39.663     5954.916     3207.860     1573.128        2.190        0.537      181.299       33.239        0.034      333.589        3.000      855.541
02/03/2014  17:41:00     -101.567      -65.474       -0.905       53.272       56.919       30.221     2837.913     3239.827      913.316        1.080        0.350      120.842       27.256        0.051      333.612        3.039      855.561
02/03/2014  17:42:00     -128.022      -13.465      -22.502       37.545       83.117       33.913     1409.648     6908.407     1150.082        1.327        0.473      128.729       33.129        0.066      333.606        3.031      855.574
02/03/2014  17:43:00     -108.352       19.971      -19.878       80.998       87.851       40.666     6560.697     7717.799     1653.697        1.423        0.797      110.177       40.154        0.133      333.612        3.041      855.576
02/03/2014  17:44:00      -93.942      -45.482      -14.811       49.373       53.332       22.127     2437.715     2844.283      489.597        0.844        0.289      104.373       11.840        0.013      333.602        3.025      855.564
02/03/2014  17:45:00      -90.207       -5.964        3.458       49.467       29.483       27.345     2447.001      869.254      747.724        0.612        0.203       90.404       30.141        0.111      333.605        3.028      855.566
02/03/2014  17:46:00      -75.626      -62.113        2.158       65.152       51.770       27.672     4244.789     2680.153      765.742        0.864        0.385       97.864       29.038        0.088      333.585        2.996      855.584
02/03/2014  17:47:00      -96.941      -13.637       -1.927       53.107       33.481       28.102     2820.338     1120.950      789.734        0.716        0.237       97.895       28.768        0.086      333.577        2.983      855.600
02/03/2014  17:48:00     -117.126       -3.675      -15.109       49.948       61.519       34.999     2494.763     3784.600     1224.910        1.073        0.375      117.184       32.334        0.076      333.543        2.926      855.622
02/03/2014  17:49:00     -138.881       -8.085      -19.558       70.152       74.237       30.375     4921.307     5511.087      922.640        1.554        0.568      139.116       17.099        0.015      333.565        2.962      855.646
02/03/2014  17:50:00     -100.509      -10.720       -8.563       50.501       66.501       29.974     2550.350     4422.404      898.459        0.908        0.394      101.079       23.259        0.053      333.505        2.861      855.658
02/03/2014  17:51:00      -93.464        7.566       -8.534       59.448       45.285       27.246     3534.033     2050.703      742.357        0.760        0.316       93.770       25.795        0.076      333.526        2.897      855.678
02/03/2014  17:52:00     -136.748       24.235      -22.057       55.327       41.894       34.915     3061.076     1755.123     1219.092        1.290        0.302      138.879       26.559        0.037      333.526        2.897      855.677
02/03/2014  17:53:00      -76.311      -27.439       -9.773       43.907       40.846       22.797     1927.817     1668.418      519.685        0.539        0.206       81.094       21.143        0.068      333.529        2.902      855.686
02/03/2014  17:54:00      -42.006        4.554        0.408       33.497       27.922       23.317     1122.072      779.631      543.662        0.211        0.122       42.252       19.957        0.223      333.545        2.928      855.701
02/03/2014  17:55:00      -81.916        5.947      -15.524       32.811       40.899       25.976     1076.591     1672.746      674.755        0.520        0.171       82.131        5.667        0.005      333.559        2.953      855.719
02/03/2014  17:56:00      -54.279        1.784       -0.996       47.964       36.842       32.939     2300.524     1357.314     1084.974        0.385        0.237       54.308       30.712        0.320      333.567        2.968      855.726
02/03/2014  17:57:00     -101.606       13.565      -13.338       56.962       49.519       35.989     3244.624     2452.087     1295.236        0.884        0.350      102.507       32.596        0.101      333.587        2.999      855.738
02/03/2014  17:58:00      -91.689       50.957      -15.333       83.565       56.970       34.343     6983.187     3245.620     1179.408        1.132        0.570      104.897       33.609        0.103      333.671        3.139      855.742
02/03/2014  17:59:00      -96.945      -46.097       -6.618       57.918       54.338       36.349     3354.524     2952.611     1321.246        0.960        0.381      107.347       28.747        0.072      333.636        3.080      855.753
02/03/2014  18:00:00      -73.804       15.911        5.494       68.171       53.296       34.779     4647.298     2840.435     1209.559        0.721        0.435       75.500       37.437        0.246      333.608        3.032      855.775
02/03/2014  18:01:00      -48.773        1.460      -17.876       64.055       47.396       40.231     4103.059     2246.373     1618.523        0.533        0.398       48.795       32.249        0.437      333.671        3.139      855.798
02/03/2014  18:02:00     -160.447      -61.934       -9.509       93.444       77.852       44.166     8731.739     6060.924     1950.647        2.320        0.837      171.985       45.340        0.069      333.661        3.121      855.833
02/03/2014  18:03:00      -70.855      -23.334       19.444       76.055       54.227       41.483     5784.383     2940.588     1720.836        0.819        0.522       74.598       40.209        0.291      333.573        2.976      855.842
02/03/2014  18:04:00      -83.118      -39.210      -10.579       44.822       44.756       22.975     2008.971     2003.093      527.867        0.655        0.227       91.902       14.557        0.025      333.617        3.049      855.825
02/03/2014  18:05:00     -100.698      -17.584       -8.871       69.679       78.305       38.055     4855.187     6131.653     1448.205        1.148        0.622      102.222       38.710        0.143      333.584        2.994      855.821
02/03/2014  18:06:00     -162.530      -21.272      -11.976       82.724       51.904       33.542     6843.305     2694.007     1125.051        1.884        0.533      163.916       34.122        0.043      333.562        2.956      855.823
02/03/2014  18:07:00     -130.607      -57.561       -6.104       56.967       57.616       36.549     3245.266     3319.629     1335.822        1.415        0.395      142.729       27.607        0.037      333.599        3.020      855.835
02/03/2014  18:08:00     -285.113       10.066      -25.540      112.303       89.716       37.815    12611.935     8049.031     1429.974        5.206        1.105      285.291       38.685        0.018      333.721        3.217      855.858
02/03/2014  18:09:00     -145.792      -19.495        9.095      120.017       79.473       48.402    14404.169     6315.917     2342.725        2.239        1.153      147.090       50.149        0.116      333.676        3.145      855.869
02/03/2014  18:10:00     -197.098      -37.732      -14.372       81.108      115.892       44.427     6578.444    13430.907     1973.789        3.123        1.099      200.677       39.147        0.038      333.694        3.173      855.878
02/03/2014  18:11:00     -191.818      -66.252       -2.191      100.894       77.155       39.564    10179.590     5952.867     1565.295        2.944        0.885      202.937       41.753        0.042      333.689        3.165      855.880
02/03/2014  18:12:00      -88.998      -56.785       -4.428       52.296       33.964       21.349     2734.913     1153.562      455.773        0.775        0.217      105.571       22.068        0.044      333.694        3.178      855.884
02/03/2014  18:13:00     -140.278        5.341       -4.933       57.637       51.661       25.270     3322.007     2668.893      638.573        1.318        0.331      140.380       16.495        0.014      333.676        3.147      855.864
02/03/2014  18:14:00     -124.530      -66.792      -11.308       77.911       62.702       32.754     6070.058     3931.505     1072.828        1.558        0.554      141.311       35.298        0.062      333.704        3.191      855.865
02/03/2014  18:15:00     -167.984      -77.097      -11.915       91.062       63.678       36.645     8292.200     4054.875     1342.889        2.400        0.684      184.832       43.771        0.056      333.696        3.176      855.866
02/03/2014  18:16:00     -222.160      -23.078      -10.708       52.781       48.467       34.585     2785.795     2349.088     1196.121        2.817        0.317      223.355       30.253        0.018      333.632        3.072      855.888
02/03/2014  18:17:00      -83.672      -39.271        8.450       82.199       60.521       33.045     6756.639     3662.838     1091.960        1.006        0.576       92.430       40.045        0.188      333.656        3.113      855.890
02/03/2014  18:18:00     -128.597      -72.219       -0.022       87.645       47.495       31.640     7681.594     2255.756     1001.062        1.634        0.547      147.489       35.491        0.058      333.644        3.094      855.904
02/03/2014  18:19:00      -56.415      -16.360        4.182       48.677       36.767       31.746     2369.427     1351.815     1007.794        0.410        0.236       58.740       29.240        0.248      333.631        3.072      855.903
02/03/2014  18:20:00     -167.568      -73.280       -6.716       74.656       56.865       28.841     5573.481     3233.639      831.785        2.156        0.482      182.891       30.373        0.028      333.669        3.134      855.896
02/03/2014  18:21:00     -265.377      -96.310      -11.116      101.011       67.524       38.259    10203.275     4559.493     1463.713        4.802        0.811      282.313       44.107        0.024      333.690        3.166      855.877
02/03/2014  18:22:00     -250.638      -79.116       -9.807       53.259       79.881       36.712     2836.514     6380.910     1347.786        3.987        0.528      262.829       30.623        0.014      333.712        3.202      855.882
02/03/2014  18:23:00     -173.821      -17.079       -5.090       75.466       78.547       35.121     5695.156     6169.605     1233.487        2.181        0.655      174.658       33.084        0.036      333.703        3.189      855.888
02/03/2014  18:24:00     -107.968       -9.980       -8.696       51.998       50.115       30.899     2703.793     2511.501      954.731        0.900        0.309      108.428       25.257        0.054      333.660        3.120      855.889
02/03/2014  18:25:00     -155.836      -23.831       -5.653       47.930       48.636       26.487     2297.273     2365.446      701.558        1.512        0.268      157.647       17.950        0.013      333.668        3.132      855.906
02/03/2014  18:26:00     -187.178      -77.387      -17.336       69.119       68.831       28.004     4777.474     4737.680      784.237        2.581        0.515      202.545       19.443        0.009      333.711        3.202      855.901
02/03/2014  18:27:00     -137.853      -61.072       -4.663       55.443       49.915       32.370     3073.971     2491.466     1047.848        1.468        0.331      150.776       27.023        0.032      333.714        3.209      855.910
02/03/2014  18:28:00      -26.079      -18.624        9.696       57.907       30.883       26.225     3353.228      953.741      687.733        0.306        0.250       32.046       30.926        0.931      333.644        3.094      855.924
02/03/2014  18:29:00     -117.859        4.787       -9.659       28.385       24.796       20.797      805.706      614.819      432.499        0.793        0.093      117.956       10.887        0.009      333.626        3.064      855.919
02/03/2014  18:30:00     -158.642      -41.946      -15.735       38.474       40.872       28.994     1480.275     1670.539      840.626        1.558        0.200      164.094       17.064        0.011      333.636        3.080      855.908
02/03/2014  18:31:00     -180.426      -44.501       -4.403       54.758       53.395       31.938     2998.468     2850.985     1020.061        2.071        0.343      185.833       26.213        0.020      333.573        2.975      855.880
02/03/2014  18:32:00     -204.094      -40.308      -21.743       71.885       62.219       40.262     5167.455     3871.202     1620.993        2.720        0.533      208.036       38.389        0.034      333.600        3.018      855.875
02/03/2014  18:33:00     -179.831      -96.130       -4.697       84.352       62.636       46.799     7115.298     3923.289     2190.126        2.741        0.661      203.912       38.138        0.035      333.566        2.963      855.897
02/03/2014  18:34:00     -287.653      -65.627      -14.763       79.517       67.409       38.908     6322.965     4543.919     1513.822        4.982        0.619      295.044       30.965        0.011      333.576        2.977      855.911
02/03/2014  18:35:00     -129.571      -26.839       -3.028       69.073       48.139       34.914     4771.062     2317.361     1219.022        1.291        0.415      132.322       36.681        0.077      333.545        2.929      855.920
02/03/2014  18:36:00     -144.024       10.472       -8.118       57.397       48.326       26.021     3294.442     2335.363      677.103        1.361        0.315      144.404       27.015        0.035      333.520        2.890      855.921
02/03/2014  18:37:00     -154.779      -47.426        1.838       82.681       54.633       38.588     6836.085     2984.762     1489.005        1.876        0.565      161.882       24.644        0.023      333.451        2.772      855.910
02/03/2014  18:38:00     -219.996      -29.527      -17.025       81.044       60.846       41.019     6568.109     3702.235     1682.533        3.075        0.598      221.968       43.419        0.038      333.521        2.886      855.908
02/03/2014  18:39:00     -148.750      -63.726       -5.837       65.920       49.641       30.595     4345.469     2464.192      936.059        1.698        0.387      161.826       15.223        0.009      333.487        2.832      855.879
02/03/2014  18:40:00     -231.629      -16.370       -9.645       77.768       73.675       43.629     6047.813     5427.966     1903.521        3.369        0.669      232.206       44.462        0.037      333.475        2.811      855.861
02/03/2014  18:41:00     -256.540      -50.056      -10.096      105.268       92.817       51.550    11081.306     8614.907     2657.428        4.538        1.118      261.378       58.497        0.050      333.540        2.916      855.856
02/03/2014  18:42:00     -309.818      -56.461      -16.543      131.993       87.736       53.598    17422.039     7697.534     2872.755        6.372        1.400      314.921       66.682        0.045      333.544        2.926      855.847
02/03/2014  18:43:00     -246.352      -31.637      -16.685       86.051       59.997       45.220     7404.833     3599.592     2044.846        3.751        0.652      248.375       43.671        0.031      333.546        2.928      855.830
02/03/2014  18:44:00     -162.005      -26.176       -5.593       76.783       66.364       36.373     5895.682     4404.184     1322.988        1.929        0.581      164.106       36.075        0.048      333.473        2.808      855.848
02/03/2014  18:45:00     -167.733      -39.527       -3.817       94.992       47.660       39.711     9023.438     2271.494     1576.941        2.129        0.644      172.327       38.344        0.050      333.448        2.768      855.873
02/03/2014  18:46:00     -211.036      -76.740      -24.062      107.796       71.065       42.876    11619.927     5050.231     1838.338        3.475        0.925      224.556       47.070        0.044      333.502        2.855      855.891
02/03/2014  18:47:00     -226.052      -14.432      -20.017       92.583       85.295       45.917     8571.663     7275.243     2108.401        3.483        0.898      226.512       47.035        0.043      333.499        2.850      855.918
02/03/2014  18:48:00     -122.539      -11.641       -5.171      125.907       85.065       49.935    15852.615     7236.121     2493.542        2.038        1.279      123.090       54.276        0.194      333.500        2.855      855.923
02/03/2014  18:49:00     -192.079      -51.588        1.492       60.036       75.815       35.812     3604.328     5747.924     1282.497        2.509        0.532      198.886       22.222        0.012      333.511        2.870      855.948
02/03/2014  18:50:00     -226.316      -31.629      -12.527       70.106       60.042       38.009     4914.819     3605.040     1444.714        3.117        0.498      228.516       31.998        0.020      333.499        2.852      855.963
02/03/2014  18:51:00     -151.281       -9.085       -3.271       91.360       53.735       35.240     8346.666     2887.438     1241.882        1.773        0.624      151.553       40.443        0.071      333.472        2.806      855.977
02/03/2014  18:52:00     -217.990      -62.162      -12.275       70.704       74.570       34.933     4999.028     5560.634     1220.320        3.166        0.589      226.680       34.636        0.023      333.454        2.776      855.985
02/03/2014  18:53:00     -236.881      -43.200      -12.568       84.776       64.014       38.651     7187.015     4097.826     1493.923        3.546        0.639      240.788       41.900        0.030      333.448        2.767      855.991
02/03/2014  18:54:00     -258.434      -26.594      -18.150       75.858       72.535       38.857     5754.404     5261.375     1509.877        4.017        0.626      259.799       36.031        0.019      333.449        2.766      855.989
02/03/2014  18:55:00     -192.260      -60.599       -5.972       95.365       69.039       42.933     9094.470     4766.347     1843.283        2.819        0.785      201.584       49.237        0.060      333.449        2.767      855.994
02/03/2014  18:56:00     -180.801        5.709      -12.414       94.987       62.155       39.726     9022.542     3863.200     1578.138        2.367        0.723      180.891       50.434        0.078      333.435        2.744      856.016
02/03/2014  18:57:00     -144.647      -60.085       -7.065       58.303       40.142       33.593     3399.288     1611.412     1128.488        1.536        0.307      156.630       33.600        0.046      333.419        2.719      855.995
02/03/2014  18:58:00     -115.235      -72.446       -4.562       88.244       62.227       29.395     7786.953     3872.172      864.080        1.553        0.626      136.116       27.811        0.042      333.435        2.744      855.983
02/03/2014  18:59:00      -83.581      -37.444        1.565       97.225       62.262       45.650     9452.736     3876.527     2083.917        1.190        0.771       91.585       55.583        0.368      333.435        2.746      855.989
02/03/2014  19:00:00     -112.762      -34.151       -2.079       74.606       54.087       32.940     5566.115     2925.411     1085.019        1.173        0.479      117.820       25.418        0.047      333.410        2.704      856.004
02/03/2014  19:01:00     -142.890      -41.269       -3.105       78.912       55.945       41.057     6227.078     3129.818     1685.653        1.658        0.552      148.730       43.008        0.084      333.359        2.622      856.015
02/03/2014  19:02:00     -128.016      -31.645       -4.251       64.282       60.684       32.131     4132.166     3682.505     1032.427        1.313        0.442      131.869       36.682        0.077      333.329        2.572      856.031
02/03/2014  19:03:00     -176.887      -45.681       -6.773       66.120       47.934       33.940     4371.804     2297.711     1151.919        2.062        0.391      182.691       32.054        0.031      333.313        2.544      856.058
02/03/2014  19:04:00     -122.093      -48.940        1.210       57.500       50.433       29.335     3306.218     2543.515      860.556        1.201        0.336      131.536       22.783        0.030      333.257        2.454      856.079
02/03/2014  19:05:00     -182.175      -26.643      -13.154       58.502       56.128       35.667     3422.474     3150.318     1272.143        2.096        0.392      184.113       27.402        0.022      333.335        2.582      856.072
02/03/2014  19:06:00     -173.404      -22.612       -4.514       56.098       64.082       35.929     3146.973     4106.565     1290.923        1.957        0.427      174.872       34.353        0.039      333.331        2.575      856.066
02/03/2014  19:07:00     -154.110      -39.699       -4.891       52.136       51.949       29.322     2718.197     2698.684      859.751        1.581        0.314      159.141       27.549        0.030      333.307        2.535      856.053
02/03/2014  19:08:00     -100.676      -68.037       10.382       67.362       47.989       38.587     4537.671     2302.985     1488.977        1.160        0.416      121.510       36.278        0.089      333.304        2.532      856.066
02/03/2014  19:09:00     -131.720      -45.263       -0.613       71.461       58.234       35.097     5106.658     3391.143     1231.811        1.456        0.486      139.280       38.574        0.077      333.240        2.424      856.100
02/03/2014  19:10:00     -201.744       16.683      -13.155       65.547       57.542       30.901     4296.375     3311.037      954.875        2.486        0.428      202.433       28.132        0.019      333.251        2.439      856.120
02/03/2014  19:11:00     -235.068      -28.043      -20.524      100.127       61.669       42.920    10025.349     3803.085     1842.135        3.606        0.784      236.735       48.518        0.042      333.281        2.490      856.124
02/03/2014  19:12:00     -161.527       -9.033      -23.309       76.018       74.752       38.238     5778.754     5587.855     1462.169        1.977        0.641      161.780       29.095        0.032      333.305        2.531      856.095
02/03/2014  19:13:00     -172.731      -87.185        2.634       94.752       85.161       46.616     8977.912     7252.384     2173.019        2.792        0.920      193.487       50.458        0.068      333.250        2.439      856.074
02/03/2014  19:14:00     -226.336      -77.564       -6.167      101.873       59.452       46.434    10378.115     3534.567     2156.126        3.667        0.803      239.257       55.626        0.054      333.284        2.494      856.047
02/03/2014  19:15:00     -182.639      -68.536       -8.181       71.110       68.840       40.606     5056.656     4738.976     1648.838        2.478        0.572      195.075       24.390        0.016      333.282        2.492      856.037
02/03/2014  19:16:00     -176.592      -74.398      -19.443       85.681       82.235       43.520     7341.201     6762.617     1894.003        2.655        0.800      191.624       29.333        0.023      333.252        2.442      856.038
02/03/2014  19:17:00     -213.867      -93.009      -40.964       77.037       59.785       45.663     5934.754     3574.291     2085.142        3.383        0.580      233.216       37.490        0.026      333.243        2.424      856.030
02/03/2014  19:18:00     -259.351      -64.315      -29.788       70.803       66.505       45.935     5013.067     4422.981     2110.062        4.191        0.577      267.206       41.952        0.025      333.222        2.390      856.032
02/03/2014  19:19:00     -191.819      -90.393      -20.572       88.758       69.603       50.673     7877.928     4844.601     2567.747        3.034        0.765      212.051       31.409        0.022      333.240        2.422      856.040
02/03/2014  19:20:00     -207.510      -66.782      -10.366       84.722       65.222       40.849     7177.898     4253.954     1668.662        3.036        0.655      217.992       39.720        0.033      333.194        2.345      856.066
02/03/2014  19:21:00     -203.563      -89.955      -22.905       92.170       66.115       38.820     8495.297     4371.172     1507.012        3.221        0.719      222.553       35.158        0.025      333.189        2.338      856.059
02/03/2014  19:22:00     -228.423      -50.941      -15.304      102.382       73.236       45.686    10482.030     5363.443     2087.248        3.647        0.897      234.034       44.442        0.036      333.175        2.314      856.042
02/03/2014  19:23:00     -236.603      -79.559      -14.076       64.107       55.396       38.134     4109.695     3068.690     1454.210        3.557        0.432      249.621       34.816        0.019      333.088        2.172      856.023
02/03/2014  19:24:00     -286.963      -65.678      -10.405       85.069       73.255       42.463     7236.797     5366.346     1803.068        5.059        0.720      294.384       41.172        0.020      333.105        2.200      856.013
02/03/2014  19:25:00     -202.763      -57.966      -13.346       71.359       79.426       43.868     5092.091     6308.411     1924.360        2.899        0.666      210.886       37.955        0.032      333.104        2.199      856.008
02/03/2014  19:26:00     -248.675      -54.996      -21.332       62.726       73.578       42.206     3934.555     5413.729     1781.349        3.822        0.556      254.684       29.350        0.013      333.125        2.232      856.005
02/03/2014  19:27:00     -287.428     -102.719      -15.529       92.242       77.853       45.397     8508.636     6061.136     2060.919        5.502        0.832      305.232       39.646        0.017      333.146        2.266      856.007
02/03/2014  19:28:00     -273.298      -95.773       -7.134      105.434       82.148       45.321    11116.262     6748.260     2054.018        5.191        0.996      289.593       33.767        0.014      333.143        2.261      855.999
02/03/2014  19:29:00     -314.147      -82.064      -11.666      112.604      101.617       50.479    12679.710    10325.977     2548.148        6.555        1.278      324.689       47.324        0.021      333.155        2.282      855.997
02/03/2014  19:30:00     -399.338      -49.825      -24.323      147.750       96.471       59.240    21830.124     9306.678     3509.416        9.859        1.732      402.434       72.316        0.032      333.194        2.346      855.991
02/03/2014  19:31:00     -426.242      -93.819      -14.331      137.965      107.955       69.110    19034.444    11654.319     4776.235       11.307        1.773      436.446       73.563        0.028      333.261        2.458      855.988
02/03/2014  19:32:00     -306.244      -58.394      -15.927      144.494       80.096       55.442    20878.650     6415.416     3073.840        6.390        1.518      311.762       63.647        0.042      333.226        2.400      856.000
02/03/2014  19:33:00     -294.186      -81.361      -17.235      106.453      125.808       65.251    11332.184    15827.614     4257.758        6.243        1.571      305.229       55.551        0.033      333.248        2.434      855.999
02/03/2014  19:34:00     -318.284      -64.706      -34.953      106.591      120.176       58.189    11361.651    14442.267     3385.960        6.795        1.459      324.794       54.306        0.028      333.286        2.499      855.982
02/03/2014  19:35:00     -391.423      -80.188      -30.021      140.115      101.918       63.321    19632.335    10387.330     4009.543        9.728        1.701      399.552       68.863        0.030      333.370        2.638      855.992
02/03/2014  19:36:00     -337.327      -64.205      -19.885      135.057      113.652       67.131    18240.484    12916.845     4506.609        7.698        1.783      343.383       63.335        0.034      333.361        2.622      855.997
02/03/2014  19:37:00     -431.630     -107.659      -13.693      142.883       97.423       65.295    20415.505     9491.218     4263.406       11.612        1.709      444.853       66.904        0.023      333.357        2.616      855.999
02/03/2014  19:38:00     -408.908      -39.183       -5.984      167.800      107.858       60.780    28156.732    11633.311     3694.203       10.612        2.174      410.781       70.714        0.030      333.346        2.598      856.013
02/03/2014  19:39:00     -428.557      -64.525      -11.608      127.145      118.288       64.232    16165.897    13992.014     4125.793       11.112        1.714      433.387       59.097        0.019      333.367        2.635      856.029
02/03/2014  19:40:00     -314.266      -67.794       -9.633      162.543      109.391       65.506    26420.065    11966.297     4291.059        7.306        2.134      321.495       67.054        0.044      333.354        2.613      856.030
02/03/2014  19:41:00     -428.067     -110.908       -9.883      135.976       97.796       64.375    18489.415     9564.102     4144.197       11.391        1.610      442.201       71.706        0.026      333.435        2.744      856.042
02/03/2014  19:42:00     -364.748     -105.001       -8.292      174.459      124.787       73.258    30435.912    15571.755     5366.681        9.775        2.569      379.561       89.782        0.056      333.441        2.755      856.056
02/03/2014  19:43:00     -344.358      -80.430       -7.214      120.362       97.332       63.045    14486.935     9473.446     3974.701        7.651        1.397      353.626       60.662        0.029      333.389        2.670      856.059
02/03/2014  19:44:00     -349.852     -114.536      -18.715      123.229       90.526       54.134    15185.497     8195.009     2930.473        8.108        1.316      368.124       56.348        0.023      333.357        2.616      856.077
02/03/2014  19:45:00     -332.897      -92.163      -14.841      118.301      102.310       62.663    13995.071    10467.267     3926.648        7.396        1.419      345.419       60.518        0.031      333.376        2.648      856.084
02/03/2014  19:46:00     -404.228      -66.413      -26.647      113.420      115.710       63.740    12863.991    13388.862     4062.796        9.941        1.516      409.647       58.428        0.020      333.399        2.685      856.116
02/03/2014  19:47:00     -266.016      -61.700      -14.123      173.372      118.472       82.837    30057.967    14035.529     6861.998        6.285        2.548      273.077       97.982        0.129      333.406        2.697      856.129
02/03/2014  19:48:00     -334.764     -148.387      -17.364      146.470       94.223       67.067    21453.468     8878.027     4498.030        8.460        1.741      366.177       71.593        0.038      333.411        2.706      856.137
02/03/2014  19:49:00     -344.667     -125.997      -28.565      133.428      112.712       64.883    17803.067    12703.916     4209.864        8.510        1.736      366.975       63.682        0.030      333.417        2.716      856.152
02/03/2014  19:50:00     -448.625     -103.051      -16.835       97.397       99.452       53.992     9486.080     9890.706     2915.101       11.723        1.115      460.309       47.817        0.011      333.424        2.726      856.169
02/03/2014  19:51:00     -324.133     -139.485       -6.163      101.484       98.476       56.903    10298.912     9697.489     3237.912        7.389        1.162      352.872       43.133        0.015      333.436        2.747      856.189
02/03/2014  19:52:00     -319.611     -124.703       -6.731       99.563      100.869       55.973     9912.765    10174.605     3132.990        7.048        1.161      343.077       56.075        0.027      333.385        2.662      856.212
02/03/2014  19:53:00     -388.620     -112.456       -8.417      110.095       96.584       62.530    12120.921     9328.388     3910.049        9.455        1.268      404.564       61.281        0.023      333.439        2.752      856.211
02/03/2014  19:54:00     -336.421      -99.749       -7.615      116.468       84.767       53.823    13564.848     7185.373     2896.934        7.341        1.182      350.897       49.648        0.020      333.396        2.682      856.216
02/03/2014  19:55:00     -397.572      -68.318      -13.898      165.517       98.272       68.424    27395.935     9657.297     4681.870       10.232        2.087      403.399       81.641        0.041      333.408        2.700      856.223
02/03/2014  19:56:00     -306.151     -102.758      -13.545      124.643       98.627       61.312    15535.820     9727.342     3759.125        6.674        1.451      322.936       70.903        0.048      333.337        2.584      856.236
02/03/2014  19:57:00     -337.202      -38.109       -9.710      149.826      121.469       67.001    22447.699    14754.711     4489.126        7.846        2.085      339.348       71.052        0.044      333.344        2.595      856.237
02/03/2014  19:58:00     -351.357      -21.780      -12.964      156.586      113.596       70.838    24519.067    12904.055     5018.004        8.326        2.122      352.032       79.102        0.050      333.392        2.674      856.238
02/03/2014  19:59:00     -337.092      -34.914      -14.399      168.861       89.664       57.456    28513.885     8039.601     3301.203        7.745        1.993      338.895       64.962        0.037      333.392        2.675      856.242
02/03/2014  20:00:00     -238.233      -44.428       -9.158      104.312       89.323       56.900    10881.095     7978.612     3237.613        4.045        1.105      242.340       50.950        0.044      333.330        2.573      856.251
02/03/2014  20:01:00     -332.756      -73.233       -8.445      143.687      102.164       62.824    20645.896    10437.466     3946.801        7.559        1.752      340.719       75.513        0.049      333.323        2.560      856.266
02/03/2014  20:02:00     -221.752      -28.005        5.798      119.964       86.909       58.036    14391.290     7553.232     3368.174        3.765        1.266      223.514       63.183        0.080      333.287        2.501      856.275
02/03/2014  20:03:00     -240.280      -70.669       -1.211      114.716      102.715       49.815    13159.750    10550.320     2481.505        4.446        1.310      250.457       49.304        0.039      333.268        2.470      856.296
02/03/2014  20:04:00     -289.966      -85.091        2.093      141.306      109.720       55.828    19967.314    12038.381     3116.738        6.322        1.756      302.193       62.675        0.043      333.236        2.415      856.311
02/03/2014  20:05:00     -357.594      -84.588      -14.066      129.399       85.492       52.214    16744.013     7308.904     2726.297        8.100        1.339      367.463       50.830        0.019      333.222        2.392      856.315
02/03/2014  20:06:00     -232.048      -26.457       -5.934      136.932       90.861       65.403    18750.309     8255.705     4277.490        4.293        1.564      233.551       70.792        0.092      333.140        2.257      856.305
02/03/2014  20:07:00     -346.591      -70.332      -13.749      127.957       80.272       59.444    16373.069     6443.568     3533.612        7.580        1.318      353.655       58.590        0.027      333.127        2.235      856.303
02/03/2014  20:08:00     -333.723      -45.290       -8.596      122.394       93.415       61.164    14980.409     8726.289     3741.008        7.047        1.372      336.782       64.235        0.036      333.108        2.206      856.308
02/03/2014  20:09:00     -404.983      -74.072      -14.531      124.015       82.872       55.984    15379.762     6867.823     3134.221        9.754        1.269      411.701       52.724        0.016      333.091        2.176      856.332
02/03/2014  20:10:00     -386.374      -93.816       -3.703      145.489      110.379       63.133    21167.161    12183.539     3985.747        9.771        1.867      397.601       71.746        0.033      333.104        2.198      856.351
02/03/2014  20:11:00     -335.560     -109.970       -4.656      148.189      112.570       65.063    21960.092    12672.074     4233.156        8.178        1.943      353.121       70.279        0.040      333.096        2.185      856.328
02/03/2014  20:12:00     -306.843      -58.816       -8.978      109.611      115.214       53.296    12014.463    13274.357     2840.504        6.291        1.406      312.429       43.140        0.019      333.079        2.157      856.335
02/03/2014  20:13:00     -341.421      -88.153      -13.713      125.461      100.862       64.422    15740.517    10173.151     4150.203        7.729        1.503      352.618       68.527        0.038      333.136        2.251      856.360
02/03/2014  20:14:00     -293.076      -26.666      -11.108      107.400      127.675       64.905    11534.821    16300.914     4212.694        5.938        1.602      294.287       56.527        0.037      333.150        2.274      856.371
02/03/2014  20:15:00     -302.100      -77.620       -5.053      144.883       98.020       60.212    20991.191     9607.865     3625.446        6.576        1.711      311.912       72.189        0.054      333.154        2.280      856.386
02/03/2014  20:16:00     -297.805      -68.598       -6.129      139.208      105.895       62.814    19378.835    11213.797     3945.537        6.398        1.727      305.604       73.402        0.058      333.186        2.333      856.405
02/03/2014  20:17:00     -281.352      -45.896       -6.736      123.018      100.719       56.553    15133.491    10144.239     3198.248        5.489        1.424      285.071       66.487        0.054      333.161        2.292      856.405
02/03/2014  20:18:00     -246.035      -44.295       -9.843      114.397       92.485       55.687    13086.582     8553.524     3101.063        4.366        1.237      249.991       55.784        0.050      333.182        2.326      856.392
02/03/2014  20:19:00     -286.507      -36.535       -9.781      127.245      105.393       56.458    16191.192    11107.622     3187.536        5.700        1.524      288.827       50.857        0.031      333.187        2.334      856.399
02/03/2014  20:20:00     -300.363       -3.694      -27.143      133.851      104.784       51.882    17916.043    10979.612     2691.699        6.127        1.579      300.385       53.960        0.032      333.211        2.376      856.399
02/03/2014  20:21:00     -225.165      -57.442       -0.408      113.846       88.277       56.597    12960.893     7792.888     3203.240        3.897        1.198      232.376       54.215        0.054      333.175        2.314      856.396
02/03/2014  20:22:00     -251.672      -36.513        4.817      147.738       91.896       54.280    21826.558     8444.871     2946.308        4.895        1.661      254.307       63.494        0.062      333.210        2.373      856.403
02/03/2014  20:23:00     -314.247      -15.820      -14.634      101.694       76.876       52.746    10341.668     5909.983     2782.158        5.912        0.952      314.645       50.867        0.026      333.209        2.371      856.421
02/03/2014  20:24:00     -267.423      -54.351      -10.179      101.573       94.217       54.065    10317.098     8876.863     2922.983        4.834        1.106      272.890       46.940        0.030      333.185        2.330      856.423
02/03/2014  20:25:00     -244.815      -43.529       -2.296      128.654       86.269       64.641    16551.980     7442.300     4178.453        4.500        1.409      248.655       76.106        0.094      333.135        2.250      856.417
02/03/2014  20:26:00     -221.193      -64.311       -9.479      109.191      106.898       58.408    11922.741    11427.187     3411.475        3.995        1.338      230.352       65.717        0.081      333.162        2.293      856.408
02/03/2014  20:27:00     -375.688     -107.971      -12.143      160.283       98.374       70.706    25690.566     9677.355     4999.351        9.665        2.018      390.895       77.191        0.039      333.192        2.343      856.416
02/03/2014  20:28:00     -348.558     -124.706      -17.002      117.459       89.360       54.891    13796.699     7985.264     3013.075        8.106        1.240      370.195       54.289        0.022      333.169        2.304      856.442
02/03/2014  20:29:00     -307.574      -38.010      -13.256      117.841      101.715       61.339    13886.413    10345.881     3762.531        6.210        1.400      309.914       58.974        0.036      333.143        2.263      856.474
02/03/2014  20:30:00     -320.234      -55.081      -20.103      150.340      109.849       60.323    22602.006    12066.891     3638.811        7.214        1.915      324.937       57.604        0.031      333.163        2.295      856.501
02/03/2014  20:31:00     -410.907      -78.908      -32.765      121.446      116.250       56.459    14749.029    13514.058     3187.633       10.379        1.573      418.415       57.373        0.019      333.170        2.306      856.501
02/03/2014  20:32:00     -229.766      -23.089       -6.944      112.185       84.816       51.612    12585.377     7193.798     2663.774        3.790        1.122      230.923       57.108        0.061      333.112        2.213      856.530
02/03/2014  20:33:00     -289.940      -31.412      -13.378      117.151       72.539       49.221    13724.332     5261.950     2422.661        5.332        1.070      291.637       48.804        0.028      333.092        2.178      856.545
02/03/2014  20:34:00     -409.867      -48.450      -39.779      108.840      111.185       53.365    11846.229    12362.077     2847.841        9.948        1.353      412.720       45.057        0.012      333.124        2.232      856.565
02/03/2014  20:35:00     -326.142      -34.811      -12.298      120.857       80.424       54.682    14606.471     6468.007     2990.067        6.589        1.203      327.995       59.414        0.033      333.090        2.175      856.583
02/03/2014  20:36:00     -262.330      -67.259       -4.265      145.558      114.845       59.688    21187.255    13189.290     3562.682        5.564        1.897      270.815       44.199        0.027      333.169        2.304      856.583
02/03/2014  20:37:00     -359.681      -33.992      -21.042      144.793      105.673       65.590    20964.899    11166.734     4302.060        8.370        1.822      361.284       70.006        0.038      333.144        2.264      856.594
02/03/2014  20:38:00     -230.450      -60.819        3.913       99.118       92.452       48.881     9824.454     8547.407     2389.337        3.879        1.038      238.340       44.228        0.034      333.135        2.248      856.607
02/03/2014  20:39:00     -282.022      -51.895      -13.072      122.542      102.730       58.478    15016.495    10553.541     3419.652        5.569        1.449      286.757       58.990        0.042      333.111        2.210      856.620
02/03/2014  20:40:00     -293.327      -36.249      -16.680      148.601       91.966       54.025    22082.205     8457.742     2918.741        6.054        1.673      295.558       63.985        0.047      333.108        2.206      856.645
02/03/2014  20:41:00     -292.504      -70.673      -13.308      106.317       79.381       55.574    11303.328     6301.411     3088.437        5.571        1.035      300.921       51.490        0.029      333.082        2.162      856.671
02/03/2014  20:42:00     -330.587      -77.440      -17.442      120.278      122.184       57.120    14466.743    14928.809     3262.713        7.412        1.633      339.536       62.928        0.034      333.090        2.176      856.675
02/03/2014  20:43:00     -338.929      -40.256      -30.959      105.859      127.494       67.486    11206.023    16254.645     4554.306        7.473        1.601      341.312       61.082        0.032      333.084        2.164      856.676
02/03/2014  20:44:00     -389.688      -60.186      -25.511      122.151      105.876       58.306    14920.947    11209.761     3399.615        9.283        1.477      394.308       59.883        0.023      333.071        2.144      856.673
02/03/2014  20:45:00     -403.502      -35.135      -22.618      155.432      108.607       59.119    24159.115    11795.424     3495.080       10.200        1.972      405.029       64.587        0.025      333.082        2.162      856.680
02/03/2014  20:46:00     -337.286      -50.391      -11.239      125.146       92.957       60.977    15661.563     8640.950     3718.204        7.222        1.401      341.030       66.762        0.038      333.079        2.156      856.701
02/03/2014  20:47:00     -316.136      -70.114       -9.169      119.132       97.655       53.663    14192.341     9536.594     2879.743        6.577        1.330      323.818       59.958        0.034      333.045        2.100      856.716
02/03/2014  20:48:00     -333.160      -26.641      -21.875      137.967      102.112       60.803    19034.981    10426.819     3696.946        7.267        1.658      334.223       72.662        0.047      333.046        2.102      856.720
02/03/2014  20:49:00     -393.594     -100.047      -22.088      139.535       95.169       57.270    19470.124     9057.189     3279.878        9.861        1.590      406.111       64.042        0.025      333.055        2.116      856.717
02/03/2014  20:50:00     -279.605     -103.992       -8.295      118.987       95.126       58.728    14157.795     9048.906     3448.920        5.785        1.333      298.318       53.477        0.032      333.046        2.102      856.724
02/03/2014  20:51:00     -230.964      -68.509       -0.061      128.676      111.515       67.830    16557.604    12435.674     4600.926        4.581        1.680      240.911       68.163        0.080      333.012        2.048      856.733
02/03/2014  20:52:00     -296.055      -96.856       -9.016      162.174       98.952       63.421    26300.479     9791.498     4022.280        6.861        2.006      311.496       76.726        0.061      333.054        2.114      856.757
02/03/2014  20:53:00     -376.204      -79.620      -21.647      131.892       98.266       55.815    17395.558     9656.189     3115.327        8.925        1.508      384.537       60.844        0.025      333.072        2.146      856.766
02/03/2014  20:54:00     -328.853     -119.519      -12.963      132.857      122.731       62.701    17650.999    15062.865     3931.353        7.962        1.832      349.899       61.875        0.031      333.059        2.124      856.766
02/03/2014  20:55:00     -257.636     -101.239       10.803      155.606      140.990       71.526    24213.328    19878.213     5115.970        6.297        2.460      276.814       87.077        0.099      333.048        2.105      856.755
02/03/2014  20:56:00     -265.330      -48.869       -7.854      154.553       85.611       64.832    23886.676     7329.213     4203.242        5.413        1.771      269.793       65.483        0.059      333.023        2.064      856.756
02/03/2014  20:57:00     -323.180      -94.717      -11.502      126.841      112.847       51.141    16088.738    12734.397     2615.375        7.249        1.572      336.774       54.732        0.026      333.021        2.060      856.748
02/03/2014  20:58:00     -331.383      -92.840        2.958      182.307      133.102       73.450    33235.811    17716.115     5394.877        8.739        2.817      344.143       92.383        0.072      333.000        2.027      856.755
02/03/2014  20:59:00     -407.997      -36.025      -22.036      112.415      115.213       59.536    12637.082    13273.953     3544.562        9.885        1.473      409.584       60.417        0.022      333.014        2.048      856.763
02/03/2014  21:00:00     -283.185      -43.974      -28.169      126.377      110.311       59.443    15971.246    12168.604     3533.420        5.729        1.584      286.579       65.213        0.052      332.997        2.020      856.781
02/03/2014  21:01:00     -296.233      -66.314       -4.200      118.660      107.111       62.330    14080.156    11472.720     3885.087        6.080        1.472      303.565       62.891        0.043      332.971        1.977      856.775
02/03/2014  21:02:00     -272.803      -11.254       -5.718      132.885       83.540       47.460    17658.464     6979.010     2252.419        5.073        1.344      273.035       45.236        0.027      332.964        1.965      856.774
02/03/2014  21:03:00     -304.565      -37.496      -12.102      139.395       92.179       58.364    19430.914     8496.887     3406.348        6.282        1.567      306.864       52.674        0.029      332.950        1.942      856.776
02/03/2014  21:04:00     -360.940     -127.145       -8.890      116.381      105.708       52.585    13544.429    11174.161     2765.203        8.700        1.374      382.679       53.603        0.020      332.950        1.944      856.781
02/03/2014  21:05:00     -283.626     -114.502      -10.424      115.216      115.011       52.654    13274.707    13227.548     2772.483        6.146        1.464      305.866       54.111        0.031      332.939        1.923      856.778
02/03/2014  21:06:00     -330.182     -120.114      -27.586      111.671       83.720       49.258    12470.398     7009.109     2426.392        7.305        1.095      351.351       49.876        0.020      332.964        1.967      856.764
02/03/2014  21:07:00     -307.649      -93.467      -15.348      101.917      103.433       50.675    10387.026    10698.303     2567.953        6.363        1.183      321.534       49.269        0.023      332.923        1.898      856.766
02/03/2014  21:08:00     -282.067      -66.874       -6.931      109.581       89.254       56.027    12008.092     7966.363     3138.992        5.359        1.156      289.886       61.461        0.045      332.891        1.845      856.778
02/03/2014  21:09:00     -333.826     -120.471      -14.728      165.047      108.976       62.586    27240.631    11875.730     3916.973        8.459        2.152      354.899       64.328        0.033      332.903        1.865      856.774
02/03/2014  21:10:00     -305.496      -84.439       -8.948      125.559      109.473       58.995    15765.010    11984.334     3480.365        6.588        1.561      316.950       56.630        0.032      332.908        1.873      856.782
02/03/2014  21:11:00     -371.076      -56.902      -28.372       99.721       84.750       51.793     9944.203     7182.623     2682.473        8.077        0.990      375.413       53.251        0.020      332.933        1.914      856.785
02/03/2014  21:12:00     -301.261      -86.143      -10.195      106.860       95.547       53.266    11418.990     9129.193     2837.271        6.083        1.169      313.335       45.116        0.021      332.915        1.885      856.776
02/03/2014  21:13:00     -240.143      -32.948      -14.927       97.699      103.057       52.235     9545.037    10620.840     2728.492        4.093        1.145      242.393       47.803        0.039      332.900        1.862      856.775
02/03/2014  21:14:00     -390.752      -46.841      -30.590      112.305       93.873       59.986    12612.408     8812.054     3598.329        9.042        1.251      393.549       58.197        0.022      332.931        1.911      856.806
02/03/2014  21:15:00     -324.595      -68.942      -13.936      106.737       76.907       54.173    11392.812     5914.705     2934.757        6.527        1.012      331.836       53.545        0.026      332.938        1.922      856.827
02/03/2014  21:16:00     -273.382      -62.333       -6.106      111.418      107.194       57.514    12413.949    11490.502     3307.804        5.293        1.361      280.399       56.934        0.041      332.889        1.843      856.830
02/03/2014  21:17:00     -241.667      -54.996      -14.333      164.415       80.033       46.398    27032.387     6405.309     2152.736        4.861        1.780      247.846       64.421        0.068      332.898        1.859      856.829
02/03/2014  21:18:00     -172.373      -33.543       -9.264       74.455       75.622       41.022     5543.580     5718.730     1682.805        2.193        0.647      175.606       30.879        0.031      332.851        1.781      856.839
02/03/2014  21:19:00     -157.474      -72.834       13.930       85.518       81.116       45.461     7313.378     6579.803     2066.678        2.313        0.798      173.502       41.749        0.058      332.797        1.691      856.860
02/03/2014  21:20:00     -227.693      -79.171        2.597       94.994       68.339       45.341     9023.845     4670.208     2055.845        3.693        0.787      241.065       50.992        0.045      332.798        1.692      856.866
02/03/2014  21:21:00     -176.273      -57.154       -1.992       90.955       90.578       44.201     8272.875     8204.456     1953.742        2.638        0.922      185.307       42.680        0.053      332.833        1.751      856.866
02/03/2014  21:22:00     -248.382      -66.988      -11.890       96.172       90.060       36.050     9249.084     8110.719     1299.598        4.249        0.933      257.257       42.226        0.027      332.825        1.737      856.878
02/03/2014  21:23:00     -319.363      -51.359      -21.980      105.113       61.318       38.939    11048.733     3759.856     1516.271        6.072        0.816      323.466       21.810        0.005      332.830        1.745      856.885
02/03/2014  21:24:00     -228.853      -66.995       -7.707       78.043       69.494       37.707     6090.711     4829.393     1421.811        3.463        0.617      238.457       28.912        0.015      332.796        1.689      856.910
02/03/2014  21:25:00     -247.072      -40.518      -21.752       92.827       92.028       51.241     8616.813     8469.120     2625.684        4.143        0.986      250.372       48.816        0.038      332.827        1.740      856.928
02/03/2014  21:26:00     -149.261      -77.140       -0.069       90.142       57.080       43.008     8125.633     3258.117     1849.727        2.073        0.662      168.016       45.676        0.074      332.765        1.638      856.941
02/03/2014  21:27:00     -167.461      -54.414       -0.423       80.323       64.710       39.253     6451.861     4187.421     1540.763        2.159        0.609      176.079       41.351        0.055      332.764        1.637      856.960
02/03/2014  21:28:00     -299.490      -33.402      -23.952       96.577       90.068       52.519     9327.142     8112.327     2758.254        5.579        1.010      301.347       44.244        0.022      332.796        1.687      856.966
02/03/2014  21:29:00     -253.177      -17.833      -23.973       79.523       80.384       45.301     6323.883     6461.639     2052.147        3.991        0.742      253.804       43.003        0.029      332.774        1.651      856.972
02/03/2014  21:30:00     -236.832      -78.441      -13.118      106.420       79.139       51.689    11325.317     6262.995     2671.750        4.133        1.013      249.484       49.515        0.039      332.782        1.665      856.975
02/03/2014  21:31:00     -208.036      -82.235       -7.848       81.586       64.294       36.478     6656.268     4133.726     1330.665        3.111        0.606      223.699       34.437        0.024      332.778        1.658      856.971
02/03/2014  21:32:00     -246.133      -99.250      -16.106       89.460       64.072       41.509     8003.145     4105.169     1723.013        4.226        0.692      265.390       35.091        0.017      332.770        1.646      856.978
02/03/2014  21:33:00     -139.560      -77.570       -6.748       81.856       49.753       34.572     6700.431     2475.340     1195.240        1.795        0.519      159.669       34.242        0.046      332.749        1.612      856.994
02/03/2014  21:34:00     -203.322      -34.725      -18.771       71.707       48.918       28.868     5141.861     2392.951      833.380        2.563        0.418      206.266       29.197        0.020      332.707        1.544      857.014
02/03/2014  21:35:00     -219.307      -45.612       -9.229       77.423       67.288       40.388     5994.264     4527.652     1631.201        3.121        0.608      224.000       36.425        0.026      332.683        1.500      857.031
02/03/2014  21:36:00     -166.118      -71.295       -0.131       80.689       64.645       39.776     6510.717     4179.015     1582.096        2.247        0.614      180.771       42.063        0.054      332.694        1.522      857.060
02/03/2014  21:37:00     -176.671      -72.627      -17.219       86.376       53.274       36.945     7460.889     2838.102     1364.958        2.422        0.583      191.016       39.601        0.043      332.669        1.481      857.067
02/03/2014  21:38:00     -241.599      -40.135      -10.028       85.715       70.723       41.862     7346.976     5001.725     1752.397        3.709        0.705      244.910       40.369        0.027      332.670        1.479      857.075
02/03/2014  21:39:00     -230.057       -5.951      -24.868      107.471       76.092       46.967    11549.915     5789.995     2205.862        3.656        0.977      230.134       43.511        0.036      332.729        1.578      857.073
02/03/2014  21:40:00     -239.872      -46.285      -13.001       77.445       99.879       49.187     5997.716     9975.823     2419.349        3.912        0.920      244.297       42.745        0.031      332.656        1.459      857.078
02/03/2014  21:41:00     -314.656      -35.183      -15.954       91.917       70.474       49.890     8448.813     4966.536     2489.029        5.820        0.795      316.617       45.683        0.021      332.664        1.470      857.090
02/03/2014  21:42:00     -273.281      -60.889      -21.112       82.665       62.081       37.080     6833.545     3854.071     1374.955        4.545        0.603      279.982       27.891        0.010      332.634        1.421      857.099
02/03/2014  21:43:00     -213.500      -64.839      -10.238       74.928       62.769       40.770     5614.200     3939.944     1662.224        3.055        0.561      223.129       41.174        0.034      332.606        1.374      857.105
02/03/2014  21:44:00     -205.654      -34.908      -19.563       54.286       65.544       37.447     2946.982     4295.967     1402.302        2.627        0.432      208.595       32.780        0.025      332.610        1.382      857.129
02/03/2014  21:45:00     -237.666      -55.921      -19.338      103.907       74.440       40.405    10796.623     5541.305     1632.578        3.898        0.899      244.156       48.610        0.040      332.588        1.344      857.153
02/03/2014  21:46:00     -223.229     -133.299      -13.411       65.270       60.635       43.459     4260.116     3676.663     1888.694        3.880        0.491      259.999       31.689        0.015      332.591        1.350      857.155
02/03/2014  21:47:00     -178.734      -65.063       -7.173       76.757       78.240       37.052     5891.581     6121.437     1372.815        2.481        0.669      190.208       35.064        0.034      332.600        1.367      857.170
02/03/2014  21:48:00     -298.582      -44.741      -20.690       49.427       55.597       36.757     2443.038     3091.052     1351.054        4.923        0.344      301.915       24.975        0.007      332.605        1.371      857.179
02/03/2014  21:49:00     -188.105      -27.461        0.732      111.842       81.740       50.660    12508.698     6681.359     2566.425        2.894        1.088      190.099       63.275        0.111      332.561        1.299      857.188
02/03/2014  21:50:00     -165.246      -83.760       -7.907       98.176       79.789       41.312     9638.445     6366.292     1706.643        2.604        0.886      185.262       26.442        0.020      332.630        1.414      857.205
02/03/2014  21:51:00     -148.083      -71.777        2.778       94.157       72.905       48.414     8865.621     5315.071     2343.909        2.180        0.826      164.561       39.546        0.058      332.587        1.344      857.220
02/03/2014  21:52:00     -197.761      -79.414        2.732       96.187       81.642       49.655     9251.919     6665.394     2465.665        3.190        0.919      213.110       53.360        0.063      332.562        1.302      857.236
02/03/2014  21:53:00     -202.390      -12.976      -18.179       81.922       71.655       39.193     6711.267     5134.445     1536.062        2.742        0.669      202.805       24.819        0.015      332.585        1.340      857.225
02/03/2014  21:54:00     -109.002       16.968       -7.733       67.752       69.148       44.791     4590.341     4781.387     2006.190        1.180        0.569      110.314       35.689        0.105      332.585        1.343      857.220
02/03/2014  21:55:00     -101.534      -41.910      -12.782       64.250       44.484       32.007     4128.065     1978.786     1024.466        0.968        0.357      109.844       20.414        0.035      332.582        1.339      857.216
02/03/2014  21:56:00     -120.865       -6.839      -22.291       57.300       61.130       29.156     3283.305     3736.834      850.078        1.151        0.394      121.058       19.481        0.026      332.599        1.365      857.225
02/03/2014  21:57:00      -87.694      -66.365        0.090       95.936       70.851       43.893     9203.800     5019.828     1926.625        1.412        0.808      109.975       32.395        0.087      332.617        1.396      857.230
02/03/2014  21:58:00     -165.136      -17.369      -20.617       48.580       55.473       45.598     2360.038     3077.305     2079.219        1.776        0.376      166.047       34.964        0.044      332.607        1.377      857.232
02/03/2014  21:59:00      -96.666      -17.481        0.797       79.632       49.673       33.402     6341.216     2467.378     1115.722        0.979        0.496       98.234       34.726        0.125      332.594        1.357      857.207
02/03/2014  22:00:00     -173.669      -15.674      -17.820       86.004       94.847       35.880     7396.656     8996.037     1287.384        2.420        0.884      174.375       39.898        0.052      332.612        1.386      857.191
02/03/2014  22:01:00     -318.768     -105.687      -32.650      132.759       97.073       58.269    17624.974     9423.126     3395.258        7.214        1.522      335.832       46.004        0.019      332.629        1.412      857.173
02/03/2014  22:02:00     -183.251      -12.865       -9.869      108.411       84.657       74.492    11752.861     7166.889     5549.116        2.915        1.223      183.702       76.402        0.173      332.607        1.376      857.175
02/03/2014  22:03:00     -262.379      -98.927       -0.552      112.581       94.596       59.658    12674.423     8948.375     3559.085        5.190        1.259      280.409       45.884        0.027      332.622        1.401      857.164
02/03/2014  22:04:00     -117.400       45.807       -9.056       80.165       81.128       49.820     6426.495     6581.731     2482.078        1.572        0.775      126.020       51.449        0.167      332.588        1.347      857.167
02/03/2014  22:05:00     -153.561       -8.570      -21.169       53.458       81.265       44.777     2857.779     6603.922     2004.988        1.778        0.573      153.800       14.754        0.009      332.606        1.378      857.165
02/03/2014  22:06:00     -152.923      -45.231      -19.329       71.791       95.753       47.457     5153.961     9168.677     2252.187        2.119        0.829      159.471       26.553        0.028      332.639        1.431      857.176
02/03/2014  22:07:00     -325.509     -114.165      -39.083      103.911      100.863       53.819    10797.474    10173.297     2896.433        7.219        1.193      344.949       30.764        0.008      332.645        1.439      857.197
02/03/2014  22:08:00     -274.074      -68.967      -31.385      108.986       75.586       48.907    11877.882     5713.248     2391.899        5.042        0.999      282.618       47.649        0.028      332.645        1.438      857.210
02/03/2014  22:09:00     -245.372      -56.966      -22.740       77.204       84.256       37.212     5960.470     7099.058     1384.732        3.920        0.722      251.898       20.947        0.007      332.635        1.423      857.221
02/03/2014  22:10:00     -326.180      -72.686      -32.213      123.376       95.902       60.393    15221.692     9197.120     3647.289        7.039        1.403      334.181       52.281        0.024      332.631        1.417      857.225
02/03/2014  22:11:00     -226.924      -61.688      -32.388       96.672       75.864       58.118     9345.387     5755.405     3377.751        3.741        0.924      235.159       36.948        0.025      332.618        1.395      857.233
02/03/2014  22:12:00     -323.260      -73.699      -42.041      135.628       86.057       49.770    18395.020     7405.844     2477.013        6.998        1.414      331.555       49.224        0.022      332.662        1.467      857.248
02/03/2014  22:13:00     -184.066      -54.607      -14.115      105.194       98.720       56.025    11065.686     9745.717     3138.810        3.050        1.198      191.995       59.478        0.096      332.697        1.525      857.265
02/03/2014  22:14:00     -308.657      -86.955      -18.081      175.058      122.251       67.047    30645.162    14945.362     4495.243        7.661        2.504      320.672       66.042        0.042      332.743        1.602      857.283
02/03/2014  22:15:00     -199.877       -5.050      -29.022      101.438       81.734       47.013    10289.593     6680.520     2210.240        3.000        0.959      199.941       48.965        0.060      332.740        1.597      857.297
02/03/2014  22:16:00     -142.779       74.863      -25.711       70.007       82.543       39.240     4900.964     6813.390     1539.816        1.995        0.663      161.215       41.461        0.066      332.682        1.502      857.301
02/03/2014  22:17:00     -181.304       84.256      -17.522       86.738       42.750       48.988     7523.482     1827.605     2399.862        2.601        0.588      199.926       45.964        0.053      332.643        1.437      857.341
02/03/2014  22:18:00     -116.357       68.013      -11.372       77.211      119.814       46.285     5961.539    14355.322     2142.261        2.037        1.123      134.777       37.252        0.076      332.726        1.575      857.346
02/03/2014  22:19:00     -178.481       22.458      -16.208       78.208       66.347       46.661     6116.532     4401.925     2177.244        2.266        0.635      179.889       46.415        0.067      332.646        1.442      857.358
02/03/2014  22:20:00     -155.103       49.699      -29.897       57.959       59.395       39.606     3359.247     3527.823     1568.604        1.794        0.423      162.871       35.679        0.048      332.642        1.435      857.362
02/03/2014  22:21:00     -101.963       48.058      -17.107       66.040       98.019       39.335     4361.346     9607.731     1547.226        1.425        0.776      112.721       33.032        0.086      332.675        1.490      857.385
02/03/2014  22:22:00     -189.402      -92.312       -8.732       89.249       67.369       41.761     7965.471     4538.626     1744.022        2.936        0.712      210.700       30.683        0.021      332.629        1.413      857.406
02/03/2014  22:23:00     -187.603      -14.453      -19.530       78.002       57.349       38.118     6084.294     3288.962     1452.984        2.330        0.541      188.159       30.849        0.027      332.569        1.315      857.436
02/03/2014  22:24:00     -177.786       61.680      -25.151       61.948       71.201       39.271     3837.499     5069.516     1542.246        2.325        0.522      188.181       24.879        0.017      332.679        1.496      857.450
02/03/2014  22:25:00     -135.720       28.023      -22.209      115.285       66.393       33.900    13290.743     4408.040     1149.237        1.927        0.942      138.583       26.002        0.035      332.779        1.663      857.446
02/03/2014  22:26:00      -93.674       16.581      -15.223      110.072       71.387       45.807    12115.760     5096.081     2098.269        1.429        0.966       95.130       53.757        0.319      332.696        1.526      857.441
02/03/2014  22:27:00     -189.385       76.717      -32.046      108.576       63.595       39.070    11788.668     4044.289     1526.501        3.007        0.868      204.334       23.154        0.013      332.666        1.475      857.445
02/03/2014  22:28:00     -177.504       -5.861      -21.068       63.285       46.849       32.238     4005.033     2194.805     1039.277        1.961        0.362      177.601       24.869        0.020      332.629        1.414      857.432
02/03/2014  22:29:00      -70.976       72.500      -20.853       28.287       63.177       36.742      800.141     3991.297     1349.965        0.843        0.307      101.459       40.292        0.158      332.620        1.401      857.419
02/03/2014  22:30:00      -36.705       29.852       -3.106       24.074       33.580       16.813      579.578     1127.638      282.692        0.212        0.099       47.311       17.092        0.131      332.650        1.451      857.417
02/03/2014  22:31:00      -88.222       13.846      -14.288       26.547       31.070       19.913      704.747      965.344      396.514        0.512        0.103       89.302       17.860        0.040      332.612        1.387      857.445
02/03/2014  22:32:00     -127.834      -48.120       -0.409       67.519       50.947       26.531     4558.872     2595.617      703.919        1.326        0.393      136.591       20.628        0.023      332.528        1.247      857.459
02/03/2014  22:33:00     -129.815      -40.487       -1.658       42.536       52.930       28.945     1809.322     2801.587      837.787        1.197        0.272      135.982       16.683        0.015      332.487        1.181      857.459
02/03/2014  22:34:00      -54.336       21.681      -14.717       25.229       44.465       22.167      636.492     1977.177      491.397        0.337        0.155       58.502        9.531        0.027      332.512        1.221      857.474
02/03/2014  22:35:00      -61.335      -23.011      -12.664       38.660       33.724       14.710     1494.596     1137.331      216.374        0.365        0.142       65.510        8.230        0.016      332.492        1.189      857.484
02/03/2014  22:36:00      -73.154       50.927      -16.742       55.498       62.811       25.394     3080.027     3945.221      644.875        0.795        0.384       89.135       33.593        0.142      332.503        1.208      857.524
02/03/2014  22:37:00     -143.085      118.488      -29.479       55.457       65.781       38.439     3075.503     4327.100     1477.536        2.213        0.444      185.776       29.721        0.026      332.547        1.279      857.539
02/03/2014  22:38:00     -140.400       33.223      -15.844       75.817       51.995       33.820     5748.229     2703.529     1143.815        1.533        0.480      144.277       28.134        0.038      332.481        1.169      857.548
02/03/2014  22:39:00      -42.976       32.427        0.092       27.142       46.235       28.260      736.702     2137.640      798.645        0.329        0.184       53.837       17.445        0.105      332.451        1.122      857.552
02/03/2014  22:40:00      -34.044       89.830      -11.510       53.735       90.830       41.804     2887.489     8250.047     1747.556        1.112        0.644       96.065       42.266        0.194      332.559        1.300      857.527
02/03/2014  22:41:00      -15.199        8.345      -10.956       26.205       27.046       15.129      686.717      731.480      228.879        0.103        0.082       17.339       12.429        0.514      332.513        1.224      857.519
02/03/2014  22:42:00      -73.725       24.892      -10.828       26.896       21.164       19.344      723.389      447.896      374.191        0.386        0.077       77.814       11.306        0.021      332.596        1.361      857.531
02/03/2014  22:43:00      -62.140       33.375       -0.740       29.237       31.334       23.168      854.820      981.847      536.763        0.367        0.119       70.536       20.245        0.082      332.562        1.305      857.532
02/03/2014  22:44:00      -87.148        1.016       -7.154       33.017       47.354       17.632     1090.111     2242.411      310.900        0.564        0.182       87.154       10.176        0.014      332.475        1.163      857.535
02/03/2014  22:45:00     -125.535      -57.121        3.441       72.531       45.623       36.995     5260.691     2081.425     1368.639        1.387        0.436      137.920       43.647        0.100      332.505        1.210      857.560
02/03/2014  22:46:00      -96.308       29.551       -7.944       43.715       32.412       22.719     1910.959     1050.528      516.148        0.684        0.174      100.740       23.492        0.054      332.473        1.159      857.574
02/03/2014  22:47:00     -109.833       90.546      -23.834       33.756       43.074       27.869     1139.462     1855.327      776.661        1.230        0.189      142.344       20.210        0.020      332.520        1.235      857.588
02/03/2014  22:48:00      -61.453       54.754      -12.965       25.646       39.131       24.132      657.710     1531.206      582.364        0.486        0.139       82.307       23.051        0.078      332.505        1.212      857.604
02/03/2014  22:49:00      -72.638        6.308       -7.022       29.327       40.355       20.344      860.045     1628.540      413.877        0.413        0.145       72.911       15.859        0.047      332.489        1.184      857.640
02/03/2014  22:50:00      -31.744       35.327       -4.319       14.725       20.928       14.971      216.825      437.995      224.146        0.158        0.044       47.495       12.548        0.070      332.551        1.287      857.657
02/03/2014  22:51:00      -12.885       67.111       -2.204       36.457       36.453       17.530     1329.084     1328.829      307.287        0.382        0.148       68.337       20.175        0.087      332.606        1.376      857.664
02/03/2014  22:52:00      -17.411       93.962      -11.393       33.418       42.832       20.077     1116.791     1834.620      403.067        0.631        0.168       95.561       11.215        0.014      332.639        1.431      857.673
02/03/2014  22:53:00        8.777      185.637      -24.547       27.780       40.421       24.479      771.704     1633.851      599.217        1.907        0.150      185.844       21.953        0.014      332.438        1.101      857.678
02/03/2014  22:54:00        3.621      132.410      -17.613       34.552       51.905       26.131     1193.817     2694.136      682.837        1.121        0.229      132.459       25.151        0.036      332.378        1.000      857.676
02/03/2014  22:55:00       14.399      118.984      -26.720       38.990       58.898       19.443     1520.194     3468.973      378.044        1.022        0.268      119.852       22.263        0.035      332.303        0.877      857.668
02/03/2014  22:56:00       34.084      127.224      -26.488       28.208       41.378       15.844      795.693     1712.100      251.044        1.040        0.138      131.711       11.740        0.008      332.298        0.868      857.662
02/03/2014  22:57:00       -5.019       77.368      -13.754       32.100       40.499       23.513     1030.416     1640.132      552.857        0.471        0.161       77.531       21.970        0.080      332.292        0.859      857.654
02/03/2014  22:58:00      -58.759      163.114      -23.778       43.011       83.998       25.859     1849.948     7055.719      668.684        2.010        0.479      173.375       25.678        0.022      332.451        1.119      857.658
02/03/2014  22:59:00      -60.054      142.753      -12.557       38.286       53.072       25.831     1465.802     2816.627      667.230        1.455        0.247      154.871       25.389        0.027      332.477        1.165      857.653
02/03/2014  23:00:00      -63.137      116.152      -17.139       26.695       31.587       17.580      712.602      997.713      309.041        0.990        0.101      132.203        8.005        0.004      332.442        1.107      857.656
02/03/2014  23:01:00      -65.613      128.775      -28.847       62.219       42.656       22.655     3871.244     1819.511      513.252        1.396        0.310      144.527       28.339        0.038      332.500        1.201      857.672
02/03/2014  23:02:00      -59.762      145.943      -22.562       53.253       38.471       26.651     2835.841     1480.006      710.280        1.520        0.251      157.704       23.856        0.023      332.438        1.101      857.677
02/03/2014  23:03:00      -10.592      194.093      -15.159       37.940       85.806       31.364     1439.458     7362.591      983.722        2.390        0.489      194.382       37.253        0.037      332.466        1.147      857.675
02/03/2014  23:04:00      -49.490      117.065      -10.387       45.930       51.286       26.744     2109.579     2630.295      715.245        1.086        0.273      127.096       27.477        0.047      332.512        1.224      857.673
02/03/2014  23:05:00      -35.635       36.280       -8.752       33.543       36.079       22.511     1125.147     1301.675      506.758        0.280        0.147       50.854       22.079        0.188      332.367        0.982      857.686
02/03/2014  23:06:00      -23.986       85.892      -13.449       37.160       34.631       20.465     1380.848     1199.307      418.813        0.557        0.150       89.179       20.455        0.053      332.428        1.084      857.691
02/03/2014  23:07:00       28.397       63.182       -1.532       18.507       31.400       16.785      342.512      985.971      281.751        0.321        0.081       69.270       16.278        0.055      332.408        1.050      857.692
02/03/2014  23:08:00       19.783       18.699       -1.668       23.947       21.292       10.228      573.441      453.351      104.610        0.094        0.057       27.222        6.205        0.052      332.275        0.831      857.693
02/03/2014  23:09:00        6.200       17.850       -1.223        8.084       16.072       10.661       65.358      258.320      113.660        0.040        0.022       18.896        1.465        0.006      332.234        0.764      857.702
02/03/2014  23:10:00       15.046       76.314      -11.720       14.518       31.271       15.357      210.777      977.892      235.825        0.381        0.071       77.783       18.918        0.059      332.238        0.772      857.717
02/03/2014  23:11:00       -0.369       -6.997       -4.771       13.130       28.245       10.249      172.384      797.788      105.036        0.057        0.054        7.007        8.193        1.367      332.153        0.633      857.730
02/03/2014  23:12:00        5.252      -44.862       -2.288       20.258       25.021       19.042      410.403      626.075      362.597        0.172        0.070       45.168       16.156        0.128      332.374        0.994      857.743
02/03/2014  23:13:00      -50.747      -31.937       -0.758       53.629       33.732       17.287     2876.077     1137.856      298.843        0.395        0.216       59.960       12.489        0.043      332.314        0.896      857.768
02/03/2014  23:14:00      -58.389      -60.235        5.370       64.983       39.423       23.801     4222.767     1554.193      566.488        0.670        0.317       83.890       24.221        0.083      332.294        0.863      857.779
02/03/2014  23:15:00      -74.602      -58.205        3.146       52.896       44.775       26.490     2798.010     2004.806      701.732        0.723        0.275       94.621       27.969        0.087      332.178        0.672      857.779
02/03/2014  23:16:00      -76.284      -69.575        3.769       43.409       28.296       21.886     1884.379      800.638      478.990        0.692        0.158      103.247       17.221        0.028      332.162        0.647      857.768
02/03/2014  23:17:00      -43.428      -57.124        0.389       28.811       21.203       13.998      830.096      449.566      195.930        0.331        0.074       71.757       12.079        0.028      332.189        0.690      857.765
02/03/2014  23:18:00      -77.521      -35.134        1.327       42.348       24.262       20.344     1793.316      588.668      413.868        0.502        0.140       85.111       20.881        0.060      332.166        0.652      857.765
02/03/2014  23:19:00      -45.430      -35.747       -3.093       34.548       25.183       18.087     1193.548      634.196      327.124        0.275        0.108       57.808        8.040        0.019      332.216        0.735      857.766
02/03/2014  23:20:00      -21.738      -34.360       -0.739        9.374       13.146       11.346       87.867      172.810      128.737        0.102        0.019       40.659        5.122        0.016      332.238        0.771      857.766
02/03/2014  23:21:00      -33.904      -14.088       -0.288       24.992       11.858       11.060      624.603      140.617      122.335        0.112        0.044       36.715        5.712        0.024      332.265        0.815      857.775
02/03/2014  23:22:00      -43.302      -29.559        7.847       39.012       21.244       14.314     1521.936      451.301      204.885        0.249        0.109       52.429        7.304        0.019      332.240        0.773      857.775
02/03/2014  23:23:00      -11.720      -35.626        1.710       28.971       19.820       11.856      839.302      392.841      140.560        0.139        0.069       37.504        6.103        0.026      332.268        0.822      857.773
02/03/2014  23:24:00      -26.439      -36.708        2.564       12.200       21.047       12.272      148.845      442.985      150.591        0.140        0.037       45.238        7.351        0.026      332.273        0.830      857.768
02/03/2014  23:25:00      -19.134       27.183       -0.125       20.480       27.186       15.993      419.417      739.070      255.768        0.126        0.071       33.242       12.136        0.133      332.178        0.673      857.791
02/03/2014  23:26:00       -8.005        0.759       16.266       18.503       14.457       12.526      342.364      208.994      156.897        0.052        0.035        8.041       11.450        2.028      332.007        0.391      857.799
02/03/2014  23:27:00      -13.708       53.257       -7.186       14.539       22.723       13.906      211.382      516.355      193.369        0.200        0.046       54.993       12.884        0.055      331.990        0.363      857.802
02/03/2014  23:28:00      -48.450       10.340       -7.260       11.481       15.774        6.522      131.820      248.805       42.539        0.147        0.021       49.541        6.570        0.018      331.989        0.359      857.799
02/03/2014  23:29:00       -3.278      -12.582        1.233       17.314       14.916        6.692      299.763      222.476       44.785        0.037        0.028       13.002        3.997        0.094      332.014        0.403      857.796
02/03/2014  23:30:00      -21.985       -8.574        1.473       23.731       14.841       10.130      563.148      220.258      102.623        0.072        0.044       23.598        8.986        0.145      332.110        0.561      857.775
02/03/2014  23:31:00      -25.966      -14.780        0.613       16.747       15.202       12.259      280.471      231.097      150.288        0.078        0.033       29.877        8.145        0.074      332.142        0.612      857.773
02/03/2014  23:32:00      -48.049      -35.198        2.699       40.340       21.585       12.940     1627.275      465.922      167.431        0.291        0.113       59.562       12.910        0.047      332.026        0.422      857.777
02/03/2014  23:33:00      -46.319      -61.551       -0.612       44.112       35.712       22.739     1945.878     1275.373      517.042        0.484        0.187       77.033       26.753        0.121      332.038        0.441      857.781
02/03/2014  23:34:00     -129.909      -62.832        2.706       47.226       34.014       24.151     2230.251     1156.969      583.274        1.240        0.199      144.306       23.443        0.026      332.014        0.401      857.779
02/03/2014  23:35:00     -102.718     -108.528        0.809       45.615       45.534       27.084     2080.768     2073.308      733.524        1.361        0.244      149.430       24.001        0.026      331.995        0.368      857.776
02/03/2014  23:36:00     -186.781     -100.075       -6.488       50.842       56.403       27.265     2584.948     3181.319      743.356        2.573        0.325      211.901       26.022        0.015      331.914        0.233      857.781
02/03/2014  23:37:00     -167.725      -89.251       -4.733       73.160       48.703       32.666     5352.397     2372.011     1067.070        2.245        0.440      189.993       35.233        0.034      331.895        0.204      857.795
02/03/2014  23:38:00      -81.644      -86.092        6.582       70.391       42.132       31.624     4954.945     1775.124     1000.107        1.092        0.387      118.649       39.680        0.112      332.020        0.411      857.801
02/03/2014  23:39:00      -96.587      -55.659        0.008       68.145       41.062       30.819     4643.793     1686.123      949.817        0.985        0.364      111.476       34.987        0.099      331.933        0.266      857.813
02/03/2014  23:40:00     -102.737      -66.450        1.450       64.651       53.907       29.486     4179.773     2905.914      869.448        1.146        0.398      122.354       34.110        0.078      331.929        0.261      857.840
02/03/2014  23:41:00      -68.336      -55.677       12.659       81.932       41.902       33.746     6712.894     1755.803     1138.767        0.877        0.480       88.146       40.785        0.214      331.959        0.310      857.848
02/03/2014  23:42:00     -108.585      -44.096       -1.245       65.983       49.402       26.371     4353.736     2440.523      695.427        1.061        0.374      117.197       27.239        0.054      331.899        0.210      857.846
02/03/2014  23:43:00     -103.010      -32.528       -2.367       45.526       36.842       23.923     2072.607     1357.318      572.288        0.784        0.200      108.024       15.814        0.021      331.921        0.247      857.847
02/03/2014  23:44:00      -97.009       -5.301       -7.339       54.672       40.604       23.658     2989.047     1648.671      559.717        0.734        0.260       97.153       29.199        0.090      331.855        0.140      857.848
02/03/2014  23:45:00     -110.756      -54.191        7.907       61.583       45.031       36.897     3792.428     2027.762     1361.415        1.122        0.359      123.303       29.480        0.057      331.822        0.084      857.848
02/03/2014  23:46:00     -119.281      -28.898       -9.022       45.332       45.757       23.640     2055.020     2093.687      558.861        0.993        0.235      122.732       20.121        0.027      331.838        0.112      857.839
02/03/2014  23:47:00     -153.826       31.097      -25.634       50.121       29.152       19.116     2512.124      849.858      365.403        1.451        0.186      156.938       18.239        0.014      331.870        0.162      857.839
02/03/2014  23:48:00     -144.030       39.698      -30.052       36.781       49.526       22.690     1352.860     2452.839      514.854        1.377        0.216      149.401       18.247        0.015      331.892        0.201      857.833
02/03/2014  23:49:00      -94.083       37.838      -21.632       27.875       66.720       23.953      776.994     4451.508      573.768        0.828        0.290      101.406       31.002        0.093      331.877        0.175      857.822
02/03/2014  23:50:00      -74.908       34.399       -6.061       35.482       35.523       23.664     1258.961     1261.848      559.966        0.496        0.154       82.429       23.348        0.080      331.840        0.114      857.805
02/03/2014  23:51:00      -66.135       80.007       -9.326       31.718       48.346       24.675     1006.058     2337.383      608.863        0.741        0.198      103.802       23.534        0.051      331.827        0.092      857.785
02/03/2014  23:52:00      -54.978       38.826      -10.840       32.686       44.962       23.669     1068.383     2021.577      560.205        0.415        0.183       67.305       23.679        0.124      331.851        0.133      857.781
02/03/2014  23:53:00      -68.245       29.762      -14.800       40.928       33.184       25.254     1675.101     1101.203      637.761        0.459        0.171       74.452       26.778        0.129      331.757       -0.023      857.790
02/03/2014  23:54:00      -98.402       23.076      -31.188       56.360       39.310       24.985     3176.402     1545.290      624.232        0.827        0.267      101.071       28.826        0.081      331.729       -0.068      857.782
02/03/2014  23:55:00     -101.109       37.123      -18.193       43.884       51.622       27.067     1925.813     2664.822      732.627        0.863        0.266      107.709       30.052        0.078      331.737       -0.054      857.790
02/03/2014  23:56:00      -77.343      -17.528      -16.589       38.761       27.400       19.933     1502.380      750.745      397.317        0.461        0.133       79.305       17.603        0.049      331.673       -0.161      857.794
02/03/2014  23:57:00      -53.794       18.352       -9.716       20.303       21.152       15.877      412.205      447.410      252.077        0.222        0.056       56.838       12.063        0.045      331.628       -0.234      857.800
02/03/2014  23:58:00      -72.045       13.639      -12.563       34.667       31.570       21.550     1201.817      996.678      464.414        0.410        0.133       73.324       18.014        0.060      331.679       -0.150      857.808
02/03/2014  23:59:00      -87.981       64.004      -19.039       28.857       41.257       19.673      832.735     1702.124      387.034        0.756        0.146      108.799       18.005        0.027      331.741       -0.048      857.808
